<?xml version="1.0" encoding="UTF-8" standalone="no" ?>
<gpx xmlns="http://www.topografix.com/GPX/1/1" xmlns:xsi="http://www.w3.org/2001/XMLSchema-instance" xsi:schemaLocation="http://www.topografix.com/GPX/1/1 http://www.topografix.com/GPX/1/1/gpx.xsd" version="1.1" creator="VisuGPX - https://www.visugpx.com">
  <metadata>
    <name>Grande Traversée de la Bourgogne VTT</name>
  </metadata>
  <trk>
    <name><![CDATA[Grande Traversée de la Bourgogne VTT_1]]></name>
    <trkseg>
      <trkpt lat="47.32254" lon="5.02561">
        <ele>245</ele>
      </trkpt>
      <trkpt lat="47.32254" lon="5.02561">
        <ele>245</ele>
      </trkpt>
      <trkpt lat="47.32254" lon="5.02561">
        <ele>245</ele>
      </trkpt>
      <trkpt lat="47.32254" lon="5.02561">
        <ele>245</ele>
      </trkpt>
      <trkpt lat="47.32254" lon="5.02561">
        <ele>245</ele>
      </trkpt>
      <trkpt lat="47.32057" lon="5.02514">
        <ele>243</ele>
      </trkpt>
      <trkpt lat="47.31957" lon="5.02872">
        <ele>241</ele>
      </trkpt>
      <trkpt lat="47.31886" lon="5.0284">
        <ele>239</ele>
      </trkpt>
      <trkpt lat="47.31568" lon="5.02419">
        <ele>238</ele>
      </trkpt>
      <trkpt lat="47.31486" lon="5.02213">
        <ele>238</ele>
        <time>2017-09-24T06:56:17Z</time>
      </trkpt>
      <trkpt lat="47.31474" lon="5.02214">
        <ele>238</ele>
        <time>2017-09-24T06:56:24Z</time>
      </trkpt>
      <trkpt lat="47.31465" lon="5.02198">
        <ele>239</ele>
        <time>2017-09-24T06:56:30Z</time>
      </trkpt>
      <trkpt lat="47.31414" lon="5.02025">
        <ele>239</ele>
        <time>2017-09-24T06:57:04Z</time>
      </trkpt>
      <trkpt lat="47.31397" lon="5.01909">
        <ele>240</ele>
        <time>2017-09-24T06:57:21Z</time>
      </trkpt>
      <trkpt lat="47.31355" lon="5.01494">
        <ele>243</ele>
        <time>2017-09-24T06:58:19Z</time>
      </trkpt>
      <trkpt lat="47.31337" lon="5.01326">
        <ele>245</ele>
        <time>2017-09-24T06:58:43Z</time>
      </trkpt>
      <trkpt lat="47.31324" lon="5.01269">
        <ele>246</ele>
        <time>2017-09-24T06:58:51Z</time>
      </trkpt>
      <trkpt lat="47.31273" lon="5.01004">
        <ele>251</ele>
        <time>2017-09-24T06:59:28Z</time>
      </trkpt>
      <trkpt lat="47.31261" lon="5.00948">
        <ele>253</ele>
        <time>2017-09-24T06:59:36Z</time>
      </trkpt>
      <trkpt lat="47.31238" lon="5.00826">
        <ele>256</ele>
        <time>2017-09-24T06:59:53Z</time>
      </trkpt>
      <trkpt lat="47.31226" lon="5.00677">
        <ele>260</ele>
        <time>2017-09-24T07:00:14Z</time>
      </trkpt>
      <trkpt lat="47.31212" lon="5.00585">
        <ele>263</ele>
        <time>2017-09-24T07:00:29Z</time>
      </trkpt>
      <trkpt lat="47.31197" lon="5.00471">
        <ele>269</ele>
        <time>2017-09-24T07:00:50Z</time>
      </trkpt>
      <trkpt lat="47.31203" lon="5.00455">
        <ele>270</ele>
        <time>2017-09-24T07:00:54Z</time>
      </trkpt>
      <trkpt lat="47.31241" lon="5.00427">
        <ele>267</ele>
        <time>2017-09-24T07:01:06Z</time>
      </trkpt>
      <trkpt lat="47.31262" lon="5.00361">
        <ele>265</ele>
        <time>2017-09-24T07:02:19Z</time>
      </trkpt>
      <trkpt lat="47.31267" lon="5.0033">
        <ele>267</ele>
        <time>2017-09-24T07:02:29Z</time>
      </trkpt>
      <trkpt lat="47.31267" lon="5.00302">
        <ele>269</ele>
        <time>2017-09-24T07:02:34Z</time>
      </trkpt>
      <trkpt lat="47.31258" lon="5.00248">
        <ele>270</ele>
        <time>2017-09-24T07:02:44Z</time>
      </trkpt>
      <trkpt lat="47.31258" lon="5.00214">
        <ele>270</ele>
        <time>2017-09-24T07:02:50Z</time>
      </trkpt>
      <trkpt lat="47.3127" lon="5.00155">
        <ele>274</ele>
        <time>2017-09-24T07:03:01Z</time>
      </trkpt>
      <trkpt lat="47.31306" lon="5.00049">
        <ele>280</ele>
        <time>2017-09-24T07:03:25Z</time>
      </trkpt>
      <trkpt lat="47.31309" lon="5.00018">
        <ele>280</ele>
        <time>2017-09-24T07:03:31Z</time>
      </trkpt>
      <trkpt lat="47.31308" lon="4.99939">
        <ele>283</ele>
        <time>2017-09-24T07:03:47Z</time>
      </trkpt>
      <trkpt lat="47.31319" lon="4.99883">
        <ele>287</ele>
        <time>2017-09-24T07:04:04Z</time>
      </trkpt>
      <trkpt lat="47.31324" lon="4.9979">
        <ele>294</ele>
        <time>2017-09-24T07:04:27Z</time>
      </trkpt>
      <trkpt lat="47.31355" lon="4.99604">
        <ele>301</ele>
        <time>2017-09-24T07:05:12Z</time>
      </trkpt>
      <trkpt lat="47.31369" lon="4.99524">
        <ele>303</ele>
        <time>2017-09-24T07:05:31Z</time>
      </trkpt>
      <trkpt lat="47.31371" lon="4.99495">
        <ele>304</ele>
        <time>2017-09-24T07:05:37Z</time>
      </trkpt>
      <trkpt lat="47.31363" lon="4.9936">
        <ele>311</ele>
        <time>2017-09-24T07:06:09Z</time>
      </trkpt>
      <trkpt lat="47.31353" lon="4.99305">
        <ele>317</ele>
        <time>2017-09-24T07:06:23Z</time>
      </trkpt>
      <trkpt lat="47.31347" lon="4.99231">
        <ele>320</ele>
        <time>2017-09-24T07:06:42Z</time>
      </trkpt>
      <trkpt lat="47.31339" lon="4.99205">
        <ele>320</ele>
        <time>2017-09-24T07:06:50Z</time>
      </trkpt>
      <trkpt lat="47.31337" lon="4.99182">
        <ele>321</ele>
        <time>2017-09-24T07:09:05Z</time>
      </trkpt>
      <trkpt lat="47.31324" lon="4.99155">
        <ele>321</ele>
        <time>2017-09-24T07:09:13Z</time>
      </trkpt>
      <trkpt lat="47.31307" lon="4.99137">
        <ele>323</ele>
        <time>2017-09-24T07:09:20Z</time>
      </trkpt>
      <trkpt lat="47.31295" lon="4.99111">
        <ele>323</ele>
        <time>2017-09-24T07:09:27Z</time>
      </trkpt>
      <trkpt lat="47.3128" lon="4.99063">
        <ele>326</ele>
        <time>2017-09-24T07:09:40Z</time>
      </trkpt>
      <trkpt lat="47.31273" lon="4.99052">
        <ele>326</ele>
        <time>2017-09-24T07:09:44Z</time>
      </trkpt>
      <trkpt lat="47.31256" lon="4.99058">
        <ele>325</ele>
        <time>2017-09-24T07:10:02Z</time>
      </trkpt>
      <trkpt lat="47.31222" lon="4.99017">
        <ele>326</ele>
        <time>2017-09-24T07:10:12Z</time>
      </trkpt>
      <trkpt lat="47.31207" lon="4.98992">
        <ele>329</ele>
        <time>2017-09-24T07:10:21Z</time>
      </trkpt>
      <trkpt lat="47.31198" lon="4.98962">
        <ele>332</ele>
        <time>2017-09-24T07:10:29Z</time>
      </trkpt>
      <trkpt lat="47.31167" lon="4.9893">
        <ele>335</ele>
        <time>2017-09-24T07:10:44Z</time>
      </trkpt>
      <trkpt lat="47.31158" lon="4.98926">
        <ele>335</ele>
        <time>2017-09-24T07:10:48Z</time>
      </trkpt>
      <trkpt lat="47.31096" lon="4.98863">
        <ele>339</ele>
        <time>2017-09-24T07:11:12Z</time>
      </trkpt>
      <trkpt lat="47.31062" lon="4.98833">
        <ele>341</ele>
        <time>2017-09-24T07:11:24Z</time>
      </trkpt>
      <trkpt lat="47.31047" lon="4.98814">
        <ele>344</ele>
        <time>2017-09-24T07:11:30Z</time>
      </trkpt>
      <trkpt lat="47.31011" lon="4.98764">
        <ele>350</ele>
        <time>2017-09-24T07:11:48Z</time>
      </trkpt>
      <trkpt lat="47.31028" lon="4.9861">
        <ele>352</ele>
        <time>2017-09-24T07:12:18Z</time>
      </trkpt>
      <trkpt lat="47.31031" lon="4.9849">
        <ele>355</ele>
        <time>2017-09-24T07:12:38Z</time>
      </trkpt>
      <trkpt lat="47.31052" lon="4.98375">
        <ele>359</ele>
        <time>2017-09-24T07:12:59Z</time>
      </trkpt>
      <trkpt lat="47.31078" lon="4.98297">
        <ele>362</ele>
        <time>2017-09-24T07:13:15Z</time>
      </trkpt>
      <trkpt lat="47.31064" lon="4.98246">
        <ele>363</ele>
        <time>2017-09-24T07:13:25Z</time>
      </trkpt>
      <trkpt lat="47.31051" lon="4.98226">
        <ele>363</ele>
        <time>2017-09-24T07:13:30Z</time>
      </trkpt>
      <trkpt lat="47.30945" lon="4.98135">
        <ele>365</ele>
        <time>2017-09-24T07:13:57Z</time>
      </trkpt>
      <trkpt lat="47.30864" lon="4.97962">
        <ele>367</ele>
        <time>2017-09-24T07:14:26Z</time>
      </trkpt>
      <trkpt lat="47.30743" lon="4.97823">
        <ele>368</ele>
        <time>2017-09-24T07:14:59Z</time>
      </trkpt>
      <trkpt lat="47.30736" lon="4.97787">
        <ele>368</ele>
        <time>2017-09-24T07:15:04Z</time>
      </trkpt>
      <trkpt lat="47.3074" lon="4.97758">
        <ele>368</ele>
        <time>2017-09-24T07:15:08Z</time>
      </trkpt>
      <trkpt lat="47.30776" lon="4.97638">
        <ele>365</ele>
        <time>2017-09-24T07:15:25Z</time>
      </trkpt>
      <trkpt lat="47.30826" lon="4.97452">
        <ele>360</ele>
        <time>2017-09-24T07:15:48Z</time>
      </trkpt>
      <trkpt lat="47.3085" lon="4.97382">
        <ele>357</ele>
        <time>2017-09-24T07:15:56Z</time>
      </trkpt>
      <trkpt lat="47.3086" lon="4.97343">
        <ele>354</ele>
        <time>2017-09-24T07:16:00Z</time>
      </trkpt>
      <trkpt lat="47.30863" lon="4.97256">
        <ele>348</ele>
        <time>2017-09-24T07:16:07Z</time>
      </trkpt>
      <trkpt lat="47.30871" lon="4.97191">
        <ele>342</ele>
        <time>2017-09-24T07:16:13Z</time>
      </trkpt>
      <trkpt lat="47.30883" lon="4.97162">
        <ele>339</ele>
        <time>2017-09-24T07:16:18Z</time>
      </trkpt>
      <trkpt lat="47.30882" lon="4.9714">
        <ele>337</ele>
        <time>2017-09-24T07:16:25Z</time>
      </trkpt>
      <trkpt lat="47.30889" lon="4.97058">
        <ele>338</ele>
        <time>2017-09-24T07:16:52Z</time>
      </trkpt>
      <trkpt lat="47.309" lon="4.97041">
        <ele>339</ele>
        <time>2017-09-24T07:17:00Z</time>
      </trkpt>
      <trkpt lat="47.30901" lon="4.97028">
        <ele>340</ele>
        <time>2017-09-24T07:17:06Z</time>
      </trkpt>
      <trkpt lat="47.30857" lon="4.97023">
        <ele>348</ele>
        <time>2017-09-24T07:17:36Z</time>
      </trkpt>
      <trkpt lat="47.30849" lon="4.97027">
        <ele>349</ele>
        <time>2017-09-24T07:17:40Z</time>
      </trkpt>
      <trkpt lat="47.30828" lon="4.9703">
        <ele>350</ele>
        <time>2017-09-24T07:17:47Z</time>
      </trkpt>
      <trkpt lat="47.30778" lon="4.97025">
        <ele>353</ele>
        <time>2017-09-24T07:18:02Z</time>
      </trkpt>
      <trkpt lat="47.3071" lon="4.97006">
        <ele>359</ele>
        <time>2017-09-24T07:18:25Z</time>
      </trkpt>
      <trkpt lat="47.30656" lon="4.97018">
        <ele>361</ele>
        <time>2017-09-24T07:18:48Z</time>
      </trkpt>
      <trkpt lat="47.30646" lon="4.97023">
        <ele>361</ele>
        <time>2017-09-24T07:18:53Z</time>
      </trkpt>
      <trkpt lat="47.30629" lon="4.97024">
        <ele>363</ele>
        <time>2017-09-24T07:19:02Z</time>
      </trkpt>
      <trkpt lat="47.30607" lon="4.97034">
        <ele>364</ele>
        <time>2017-09-24T07:19:13Z</time>
      </trkpt>
      <trkpt lat="47.30572" lon="4.97032">
        <ele>368</ele>
        <time>2017-09-24T07:19:25Z</time>
      </trkpt>
      <trkpt lat="47.3055" lon="4.97019">
        <ele>373</ele>
        <time>2017-09-24T07:19:31Z</time>
      </trkpt>
      <trkpt lat="47.30524" lon="4.97">
        <ele>378</ele>
        <time>2017-09-24T07:19:38Z</time>
      </trkpt>
      <trkpt lat="47.3048" lon="4.96948">
        <ele>383</ele>
        <time>2017-09-24T07:19:55Z</time>
      </trkpt>
      <trkpt lat="47.30491" lon="4.96939">
        <ele>385</ele>
        <time>2017-09-24T07:20:07Z</time>
      </trkpt>
      <trkpt lat="47.30566" lon="4.96923">
        <ele>384</ele>
        <time>2017-09-24T07:20:37Z</time>
      </trkpt>
      <trkpt lat="47.30584" lon="4.96924">
        <ele>383</ele>
        <time>2017-09-24T07:20:42Z</time>
      </trkpt>
      <trkpt lat="47.30614" lon="4.96943">
        <ele>379</ele>
        <time>2017-09-24T07:20:48Z</time>
      </trkpt>
      <trkpt lat="47.30642" lon="4.96945">
        <ele>377</ele>
        <time>2017-09-24T07:20:52Z</time>
      </trkpt>
      <trkpt lat="47.30711" lon="4.96929">
        <ele>375</ele>
        <time>2017-09-24T07:21:02Z</time>
      </trkpt>
      <trkpt lat="47.30738" lon="4.96902">
        <ele>376</ele>
        <time>2017-09-24T07:21:07Z</time>
      </trkpt>
      <trkpt lat="47.30768" lon="4.96889">
        <ele>376</ele>
        <time>2017-09-24T07:21:12Z</time>
      </trkpt>
      <trkpt lat="47.30783" lon="4.96865">
        <ele>376</ele>
        <time>2017-09-24T07:21:16Z</time>
      </trkpt>
      <trkpt lat="47.3077" lon="4.9682">
        <ele>377</ele>
        <time>2017-09-24T07:21:22Z</time>
      </trkpt>
      <trkpt lat="47.30771" lon="4.96792">
        <ele>378</ele>
        <time>2017-09-24T07:21:26Z</time>
      </trkpt>
      <trkpt lat="47.30785" lon="4.96774">
        <ele>379</ele>
        <time>2017-09-24T07:21:30Z</time>
      </trkpt>
      <trkpt lat="47.30804" lon="4.96775">
        <ele>377</ele>
        <time>2017-09-24T07:21:34Z</time>
      </trkpt>
      <trkpt lat="47.30851" lon="4.96784">
        <ele>374</ele>
        <time>2017-09-24T07:21:43Z</time>
      </trkpt>
      <trkpt lat="47.30879" lon="4.9676">
        <ele>374</ele>
        <time>2017-09-24T07:21:49Z</time>
      </trkpt>
      <trkpt lat="47.30887" lon="4.96735">
        <ele>374</ele>
        <time>2017-09-24T07:21:53Z</time>
      </trkpt>
      <trkpt lat="47.3089" lon="4.96708">
        <ele>375</ele>
        <time>2017-09-24T07:21:58Z</time>
      </trkpt>
      <trkpt lat="47.30895" lon="4.96699">
        <ele>374</ele>
        <time>2017-09-24T07:22:00Z</time>
      </trkpt>
      <trkpt lat="47.30909" lon="4.96687">
        <ele>373</ele>
        <time>2017-09-24T07:22:03Z</time>
      </trkpt>
      <trkpt lat="47.30909" lon="4.96622">
        <ele>372</ele>
        <time>2017-09-24T07:22:14Z</time>
      </trkpt>
      <trkpt lat="47.30904" lon="4.96594">
        <ele>372</ele>
        <time>2017-09-24T07:22:18Z</time>
      </trkpt>
      <trkpt lat="47.30886" lon="4.96565">
        <ele>374</ele>
        <time>2017-09-24T07:22:23Z</time>
      </trkpt>
      <trkpt lat="47.30865" lon="4.96539">
        <ele>376</ele>
        <time>2017-09-24T07:22:28Z</time>
      </trkpt>
      <trkpt lat="47.30854" lon="4.96512">
        <ele>377</ele>
        <time>2017-09-24T07:22:32Z</time>
      </trkpt>
      <trkpt lat="47.30849" lon="4.96482">
        <ele>378</ele>
        <time>2017-09-24T07:22:36Z</time>
      </trkpt>
      <trkpt lat="47.30849" lon="4.9642">
        <ele>378</ele>
        <time>2017-09-24T07:22:44Z</time>
      </trkpt>
      <trkpt lat="47.30841" lon="4.96394">
        <ele>379</ele>
        <time>2017-09-24T07:22:48Z</time>
      </trkpt>
      <trkpt lat="47.30781" lon="4.96257">
        <ele>380</ele>
        <time>2017-09-24T07:23:13Z</time>
      </trkpt>
      <trkpt lat="47.30775" lon="4.96228">
        <ele>379</ele>
        <time>2017-09-24T07:23:18Z</time>
      </trkpt>
      <trkpt lat="47.30752" lon="4.96183">
        <ele>377</ele>
        <time>2017-09-24T07:23:25Z</time>
      </trkpt>
      <trkpt lat="47.30731" lon="4.96174">
        <ele>377</ele>
        <time>2017-09-24T07:23:29Z</time>
      </trkpt>
      <trkpt lat="47.30703" lon="4.96176">
        <ele>377</ele>
        <time>2017-09-24T07:23:34Z</time>
      </trkpt>
      <trkpt lat="47.30684" lon="4.96191">
        <ele>378</ele>
        <time>2017-09-24T07:23:37Z</time>
      </trkpt>
      <trkpt lat="47.30661" lon="4.96222">
        <ele>381</ele>
        <time>2017-09-24T07:23:44Z</time>
      </trkpt>
      <trkpt lat="47.30644" lon="4.96236">
        <ele>382</ele>
        <time>2017-09-24T07:23:49Z</time>
      </trkpt>
      <trkpt lat="47.30633" lon="4.96233">
        <ele>382</ele>
        <time>2017-09-24T07:23:53Z</time>
      </trkpt>
      <trkpt lat="47.30618" lon="4.96208">
        <ele>381</ele>
        <time>2017-09-24T07:23:58Z</time>
      </trkpt>
      <trkpt lat="47.30611" lon="4.96184">
        <ele>381</ele>
        <time>2017-09-24T07:24:02Z</time>
      </trkpt>
      <trkpt lat="47.30612" lon="4.96158">
        <ele>380</ele>
        <time>2017-09-24T07:24:07Z</time>
      </trkpt>
      <trkpt lat="47.3061" lon="4.96112">
        <ele>377</ele>
        <time>2017-09-24T07:24:13Z</time>
      </trkpt>
      <trkpt lat="47.30603" lon="4.9608">
        <ele>376</ele>
        <time>2017-09-24T07:24:18Z</time>
      </trkpt>
      <trkpt lat="47.3052" lon="4.95939">
        <ele>379</ele>
        <time>2017-09-24T07:24:42Z</time>
      </trkpt>
      <trkpt lat="47.30424" lon="4.95835">
        <ele>380</ele>
        <time>2017-09-24T07:25:05Z</time>
      </trkpt>
      <trkpt lat="47.30409" lon="4.95828">
        <ele>382</ele>
        <time>2017-09-24T07:25:09Z</time>
      </trkpt>
      <trkpt lat="47.30387" lon="4.95805">
        <ele>382</ele>
        <time>2017-09-24T07:25:13Z</time>
      </trkpt>
      <trkpt lat="47.30347" lon="4.95755">
        <ele>382</ele>
        <time>2017-09-24T07:25:25Z</time>
      </trkpt>
      <trkpt lat="47.30276" lon="4.9558">
        <ele>384</ele>
        <time>2017-09-24T07:25:58Z</time>
      </trkpt>
      <trkpt lat="47.30199" lon="4.95293">
        <ele>385</ele>
        <time>2017-09-24T07:26:40Z</time>
      </trkpt>
      <trkpt lat="47.30185" lon="4.9523">
        <ele>387</ele>
        <time>2017-09-24T07:26:52Z</time>
      </trkpt>
      <trkpt lat="47.3016" lon="4.95136">
        <ele>391</ele>
        <time>2017-09-24T07:27:09Z</time>
      </trkpt>
      <trkpt lat="47.30134" lon="4.9509">
        <ele>395</ele>
        <time>2017-09-24T07:27:24Z</time>
      </trkpt>
      <trkpt lat="47.30132" lon="4.95077">
        <ele>396</ele>
        <time>2017-09-24T07:27:29Z</time>
      </trkpt>
      <trkpt lat="47.30123" lon="4.95057">
        <ele>397</ele>
        <time>2017-09-24T07:27:37Z</time>
      </trkpt>
      <trkpt lat="47.30102" lon="4.95037">
        <ele>399</ele>
        <time>2017-09-24T07:27:48Z</time>
      </trkpt>
      <trkpt lat="47.30089" lon="4.95004">
        <ele>400</ele>
        <time>2017-09-24T07:27:58Z</time>
      </trkpt>
      <trkpt lat="47.30086" lon="4.94945">
        <ele>399</ele>
        <time>2017-09-24T07:28:05Z</time>
      </trkpt>
      <trkpt lat="47.3007" lon="4.94894">
        <ele>402</ele>
        <time>2017-09-24T07:28:16Z</time>
      </trkpt>
      <trkpt lat="47.30071" lon="4.94868">
        <ele>404</ele>
        <time>2017-09-24T07:28:23Z</time>
      </trkpt>
      <trkpt lat="47.30075" lon="4.94854">
        <ele>405</ele>
        <time>2017-09-24T07:28:28Z</time>
      </trkpt>
      <trkpt lat="47.30084" lon="4.94835">
        <ele>406</ele>
        <time>2017-09-24T07:28:34Z</time>
      </trkpt>
      <trkpt lat="47.30104" lon="4.94782">
        <ele>411</ele>
        <time>2017-09-24T07:28:47Z</time>
      </trkpt>
      <trkpt lat="47.30165" lon="4.94571">
        <ele>423</ele>
        <time>2017-09-24T07:29:33Z</time>
      </trkpt>
      <trkpt lat="47.3018" lon="4.94493">
        <ele>426</ele>
        <time>2017-09-24T07:29:53Z</time>
      </trkpt>
      <trkpt lat="47.30183" lon="4.94406">
        <ele>429</ele>
        <time>2017-09-24T07:30:14Z</time>
      </trkpt>
      <trkpt lat="47.30153" lon="4.94218">
        <ele>442</ele>
        <time>2017-09-24T07:31:05Z</time>
      </trkpt>
      <trkpt lat="47.3015" lon="4.94177">
        <ele>444</ele>
        <time>2017-09-24T07:31:19Z</time>
      </trkpt>
      <trkpt lat="47.30103" lon="4.94142">
        <ele>447</ele>
        <time>2017-09-24T07:31:40Z</time>
      </trkpt>
      <trkpt lat="47.30072" lon="4.94106">
        <ele>449</ele>
        <time>2017-09-24T07:31:54Z</time>
      </trkpt>
      <trkpt lat="47.30022" lon="4.94061">
        <ele>454</ele>
        <time>2017-09-24T07:32:13Z</time>
      </trkpt>
      <trkpt lat="47.29949" lon="4.94017">
        <ele>458</ele>
        <time>2017-09-24T07:32:42Z</time>
      </trkpt>
      <trkpt lat="47.29955" lon="4.9401">
        <ele>459</ele>
        <time>2017-09-24T07:32:47Z</time>
      </trkpt>
      <trkpt lat="47.29996" lon="4.93994">
        <ele>458</ele>
        <time>2017-09-24T07:32:55Z</time>
      </trkpt>
      <trkpt lat="47.30017" lon="4.93979">
        <ele>457</ele>
        <time>2017-09-24T07:33:00Z</time>
      </trkpt>
      <trkpt lat="47.30173" lon="4.93845">
        <ele>458</ele>
        <time>2017-09-24T07:33:30Z</time>
      </trkpt>
      <trkpt lat="47.30233" lon="4.93818">
        <ele>458</ele>
        <time>2017-09-24T07:33:42Z</time>
      </trkpt>
      <trkpt lat="47.30318" lon="4.93808">
        <ele>455</ele>
        <time>2017-09-24T07:33:57Z</time>
      </trkpt>
      <trkpt lat="47.30341" lon="4.93751">
        <ele>453</ele>
        <time>2017-09-24T07:34:05Z</time>
      </trkpt>
      <trkpt lat="47.30362" lon="4.93634">
        <ele>449</ele>
        <time>2017-09-24T07:34:19Z</time>
      </trkpt>
      <trkpt lat="47.30367" lon="4.93544">
        <ele>445</ele>
        <time>2017-09-24T07:34:28Z</time>
      </trkpt>
      <trkpt lat="47.30374" lon="4.93422">
        <ele>439</ele>
        <time>2017-09-24T07:34:40Z</time>
      </trkpt>
      <trkpt lat="47.30372" lon="4.93391">
        <ele>437</ele>
        <time>2017-09-24T07:34:43Z</time>
      </trkpt>
      <trkpt lat="47.30366" lon="4.93349">
        <ele>435</ele>
        <time>2017-09-24T07:34:47Z</time>
      </trkpt>
      <trkpt lat="47.30335" lon="4.93261">
        <ele>437</ele>
        <time>2017-09-24T07:34:57Z</time>
      </trkpt>
      <trkpt lat="47.30341" lon="4.93239">
        <ele>437</ele>
        <time>2017-09-24T07:35:02Z</time>
      </trkpt>
      <trkpt lat="47.30373" lon="4.93199">
        <ele>437</ele>
        <time>2017-09-24T07:35:14Z</time>
      </trkpt>
      <trkpt lat="47.30381" lon="4.93174">
        <ele>439</ele>
        <time>2017-09-24T07:35:20Z</time>
      </trkpt>
      <trkpt lat="47.30385" lon="4.93145">
        <ele>441</ele>
        <time>2017-09-24T07:35:25Z</time>
      </trkpt>
      <trkpt lat="47.30378" lon="4.92937">
        <ele>443</ele>
        <time>2017-09-24T07:36:02Z</time>
      </trkpt>
      <trkpt lat="47.30332" lon="4.92716">
        <ele>442</ele>
        <time>2017-09-24T07:36:36Z</time>
      </trkpt>
      <trkpt lat="47.30323" lon="4.92685">
        <ele>443</ele>
        <time>2017-09-24T07:36:40Z</time>
      </trkpt>
      <trkpt lat="47.30271" lon="4.92587">
        <ele>445</ele>
        <time>2017-09-24T07:36:58Z</time>
      </trkpt>
      <trkpt lat="47.30259" lon="4.92585">
        <ele>446</ele>
        <time>2017-09-24T07:37:02Z</time>
      </trkpt>
      <trkpt lat="47.30222" lon="4.92611">
        <ele>450</ele>
        <time>2017-09-24T07:37:24Z</time>
      </trkpt>
      <trkpt lat="47.30173" lon="4.926">
        <ele>455</ele>
        <time>2017-09-24T07:37:56Z</time>
      </trkpt>
      <trkpt lat="47.30164" lon="4.92592">
        <ele>455</ele>
        <time>2017-09-24T07:38:01Z</time>
      </trkpt>
      <trkpt lat="47.30146" lon="4.92597">
        <ele>457</ele>
        <time>2017-09-24T07:38:11Z</time>
      </trkpt>
      <trkpt lat="47.30138" lon="4.92611">
        <ele>459</ele>
        <time>2017-09-24T07:38:19Z</time>
      </trkpt>
      <trkpt lat="47.30118" lon="4.92619">
        <ele>462</ele>
        <time>2017-09-24T07:38:35Z</time>
      </trkpt>
      <trkpt lat="47.30109" lon="4.92626">
        <ele>464</ele>
        <time>2017-09-24T07:38:41Z</time>
      </trkpt>
      <trkpt lat="47.30091" lon="4.92633">
        <ele>467</ele>
        <time>2017-09-24T07:38:54Z</time>
      </trkpt>
      <trkpt lat="47.30038" lon="4.92652">
        <ele>475</ele>
        <time>2017-09-24T07:39:23Z</time>
      </trkpt>
      <trkpt lat="47.30033" lon="4.92644">
        <ele>474</ele>
        <time>2017-09-24T07:39:30Z</time>
      </trkpt>
      <trkpt lat="47.30027" lon="4.92626">
        <ele>472</ele>
        <time>2017-09-24T07:39:37Z</time>
      </trkpt>
      <trkpt lat="47.29978" lon="4.92535">
        <ele>470</ele>
        <time>2017-09-24T07:40:04Z</time>
      </trkpt>
      <trkpt lat="47.29954" lon="4.92511">
        <ele>474</ele>
        <time>2017-09-24T07:40:16Z</time>
      </trkpt>
      <trkpt lat="47.29919" lon="4.92468">
        <ele>480</ele>
        <time>2017-09-24T07:40:35Z</time>
      </trkpt>
      <trkpt lat="47.29912" lon="4.92455">
        <ele>480</ele>
        <time>2017-09-24T07:40:39Z</time>
      </trkpt>
      <trkpt lat="47.29869" lon="4.92393">
        <ele>485</ele>
        <time>2017-09-24T07:40:55Z</time>
      </trkpt>
      <trkpt lat="47.29808" lon="4.92329">
        <ele>490</ele>
        <time>2017-09-24T07:41:13Z</time>
      </trkpt>
      <trkpt lat="47.29734" lon="4.92297">
        <ele>491</ele>
        <time>2017-09-24T07:41:34Z</time>
      </trkpt>
      <trkpt lat="47.29703" lon="4.92301">
        <ele>490</ele>
        <time>2017-09-24T07:41:41Z</time>
      </trkpt>
      <trkpt lat="47.29672" lon="4.92298">
        <ele>488</ele>
        <time>2017-09-24T07:41:48Z</time>
      </trkpt>
      <trkpt lat="47.29624" lon="4.92283">
        <ele>483</ele>
        <time>2017-09-24T07:41:57Z</time>
      </trkpt>
      <trkpt lat="47.29612" lon="4.92285">
        <ele>483</ele>
        <time>2017-09-24T07:41:59Z</time>
      </trkpt>
      <trkpt lat="47.29549" lon="4.92282">
        <ele>480</ele>
        <time>2017-09-24T07:42:10Z</time>
      </trkpt>
      <trkpt lat="47.29529" lon="4.92271">
        <ele>480</ele>
        <time>2017-09-24T07:42:14Z</time>
      </trkpt>
      <trkpt lat="47.29513" lon="4.92256">
        <ele>478</ele>
        <time>2017-09-24T07:42:18Z</time>
      </trkpt>
      <trkpt lat="47.29464" lon="4.922">
        <ele>475</ele>
        <time>2017-09-24T07:42:30Z</time>
      </trkpt>
      <trkpt lat="47.29419" lon="4.92161">
        <ele>481</ele>
        <time>2017-09-24T07:42:42Z</time>
      </trkpt>
      <trkpt lat="47.29406" lon="4.92154">
        <ele>484</ele>
        <time>2017-09-24T07:42:46Z</time>
      </trkpt>
      <trkpt lat="47.29389" lon="4.92149">
        <ele>488</ele>
        <time>2017-09-24T07:42:52Z</time>
      </trkpt>
      <trkpt lat="47.29372" lon="4.92142">
        <ele>492</ele>
        <time>2017-09-24T07:42:58Z</time>
      </trkpt>
      <trkpt lat="47.29335" lon="4.92121">
        <ele>495</ele>
        <time>2017-09-24T07:43:08Z</time>
      </trkpt>
      <trkpt lat="47.29291" lon="4.92087">
        <ele>496</ele>
        <time>2017-09-24T07:43:20Z</time>
      </trkpt>
      <trkpt lat="47.29215" lon="4.92069">
        <ele>497</ele>
        <time>2017-09-24T07:43:37Z</time>
      </trkpt>
      <trkpt lat="47.29148" lon="4.92052">
        <ele>493</ele>
        <time>2017-09-24T07:43:50Z</time>
      </trkpt>
      <trkpt lat="47.29076" lon="4.92028">
        <ele>489</ele>
        <time>2017-09-24T07:44:03Z</time>
      </trkpt>
      <trkpt lat="47.29005" lon="4.91982">
        <ele>491</ele>
        <time>2017-09-24T07:44:19Z</time>
      </trkpt>
      <trkpt lat="47.28992" lon="4.91968">
        <ele>491</ele>
        <time>2017-09-24T07:44:23Z</time>
      </trkpt>
      <trkpt lat="47.28973" lon="4.91936">
        <ele>493</ele>
        <time>2017-09-24T07:44:29Z</time>
      </trkpt>
      <trkpt lat="47.28938" lon="4.91907">
        <ele>495</ele>
        <time>2017-09-24T07:44:37Z</time>
      </trkpt>
      <trkpt lat="47.28848" lon="4.91862">
        <ele>495</ele>
        <time>2017-09-24T07:44:55Z</time>
      </trkpt>
      <trkpt lat="47.28681" lon="4.91853">
        <ele>494</ele>
        <time>2017-09-24T07:45:23Z</time>
      </trkpt>
      <trkpt lat="47.28598" lon="4.91836">
        <ele>492</ele>
        <time>2017-09-24T07:45:38Z</time>
      </trkpt>
      <trkpt lat="47.28448" lon="4.91808">
        <ele>492</ele>
        <time>2017-09-24T07:46:07Z</time>
      </trkpt>
      <trkpt lat="47.28355" lon="4.91763">
        <ele>501</ele>
        <time>2017-09-24T07:46:27Z</time>
      </trkpt>
      <trkpt lat="47.28286" lon="4.91747">
        <ele>507</ele>
        <time>2017-09-24T07:46:49Z</time>
      </trkpt>
      <trkpt lat="47.28269" lon="4.91752">
        <ele>509</ele>
        <time>2017-09-24T07:46:57Z</time>
      </trkpt>
      <trkpt lat="47.28249" lon="4.91763">
        <ele>511</ele>
        <time>2017-09-24T07:47:10Z</time>
      </trkpt>
      <trkpt lat="47.28165" lon="4.9177">
        <ele>512</ele>
        <time>2017-09-24T07:47:44Z</time>
      </trkpt>
      <trkpt lat="47.28054" lon="4.91747">
        <ele>512</ele>
        <time>2017-09-24T07:48:12Z</time>
      </trkpt>
      <trkpt lat="47.28028" lon="4.91699">
        <ele>506</ele>
        <time>2017-09-24T07:48:18Z</time>
      </trkpt>
      <trkpt lat="47.27986" lon="4.91644">
        <ele>503</ele>
        <time>2017-09-24T07:48:24Z</time>
      </trkpt>
      <trkpt lat="47.27954" lon="4.91635">
        <ele>503</ele>
        <time>2017-09-24T07:48:28Z</time>
      </trkpt>
      <trkpt lat="47.27921" lon="4.91652">
        <ele>504</ele>
        <time>2017-09-24T07:48:36Z</time>
      </trkpt>
      <trkpt lat="47.27905" lon="4.91655">
        <ele>503</ele>
        <time>2017-09-24T07:48:44Z</time>
      </trkpt>
      <trkpt lat="47.27883" lon="4.91651">
        <ele>501</ele>
        <time>2017-09-24T07:49:24Z</time>
      </trkpt>
      <trkpt lat="47.27861" lon="4.91688">
        <ele>499</ele>
      </trkpt>
      <trkpt lat="47.27852" lon="4.91809">
        <ele>498</ele>
      </trkpt>
      <trkpt lat="47.27832" lon="4.9186">
        <ele>486</ele>
      </trkpt>
      <trkpt lat="47.27788" lon="4.91948">
        <ele>480</ele>
      </trkpt>
      <trkpt lat="47.27759" lon="4.91954">
        <ele>478</ele>
      </trkpt>
      <trkpt lat="47.27638" lon="4.91775">
        <ele>462</ele>
      </trkpt>
      <trkpt lat="47.27631" lon="4.9175">
        <ele>461</ele>
      </trkpt>
      <trkpt lat="47.27657" lon="4.9169">
        <ele>462</ele>
      </trkpt>
      <trkpt lat="47.27677" lon="4.91682">
        <ele>465</ele>
        <time>2017-09-24T07:51:01Z</time>
      </trkpt>
      <trkpt lat="47.27668" lon="4.91679">
        <ele>464</ele>
        <time>2017-09-24T07:51:18Z</time>
      </trkpt>
      <trkpt lat="47.27658" lon="4.91666">
        <ele>462</ele>
        <time>2017-09-24T07:51:22Z</time>
      </trkpt>
      <trkpt lat="47.27643" lon="4.91654">
        <ele>459</ele>
        <time>2017-09-24T07:51:28Z</time>
      </trkpt>
      <trkpt lat="47.27616" lon="4.91637">
        <ele>452</ele>
        <time>2017-09-24T07:51:33Z</time>
      </trkpt>
      <trkpt lat="47.27589" lon="4.91626">
        <ele>446</ele>
        <time>2017-09-24T07:51:39Z</time>
      </trkpt>
      <trkpt lat="47.27575" lon="4.91615">
        <ele>444</ele>
        <time>2017-09-24T07:51:41Z</time>
      </trkpt>
      <trkpt lat="47.2756" lon="4.91608">
        <ele>441</ele>
        <time>2017-09-24T07:51:43Z</time>
      </trkpt>
      <trkpt lat="47.27527" lon="4.91599">
        <ele>433</ele>
        <time>2017-09-24T07:51:49Z</time>
      </trkpt>
      <trkpt lat="47.27511" lon="4.91602">
        <ele>429</ele>
        <time>2017-09-24T07:51:53Z</time>
      </trkpt>
      <trkpt lat="47.27498" lon="4.91622">
        <ele>426</ele>
        <time>2017-09-24T07:51:58Z</time>
      </trkpt>
      <trkpt lat="47.27496" lon="4.91636">
        <ele>426</ele>
        <time>2017-09-24T07:52:00Z</time>
      </trkpt>
      <trkpt lat="47.27501" lon="4.91655">
        <ele>428</ele>
        <time>2017-09-24T07:52:04Z</time>
      </trkpt>
      <trkpt lat="47.27488" lon="4.91628">
        <ele>425</ele>
        <time>2017-09-24T07:52:16Z</time>
      </trkpt>
      <trkpt lat="47.27486" lon="4.91609">
        <ele>425</ele>
        <time>2017-09-24T07:52:20Z</time>
      </trkpt>
      <trkpt lat="47.27488" lon="4.91598">
        <ele>425</ele>
        <time>2017-09-24T07:52:24Z</time>
      </trkpt>
      <trkpt lat="47.27472" lon="4.91526">
        <ele>425</ele>
        <time>2017-09-24T07:52:36Z</time>
      </trkpt>
      <trkpt lat="47.27466" lon="4.91511">
        <ele>425</ele>
        <time>2017-09-24T07:52:39Z</time>
      </trkpt>
      <trkpt lat="47.27452" lon="4.91494">
        <ele>422</ele>
        <time>2017-09-24T07:52:43Z</time>
      </trkpt>
      <trkpt lat="47.27442" lon="4.91474">
        <ele>422</ele>
        <time>2017-09-24T07:52:48Z</time>
      </trkpt>
      <trkpt lat="47.27428" lon="4.91417">
        <ele>418</ele>
        <time>2017-09-24T07:52:56Z</time>
      </trkpt>
      <trkpt lat="47.27426" lon="4.9139">
        <ele>416</ele>
        <time>2017-09-24T07:53:00Z</time>
      </trkpt>
      <trkpt lat="47.27418" lon="4.91349">
        <ele>411</ele>
        <time>2017-09-24T07:53:05Z</time>
      </trkpt>
      <trkpt lat="47.2739" lon="4.91262">
        <ele>406</ele>
        <time>2017-09-24T07:53:15Z</time>
      </trkpt>
      <trkpt lat="47.27375" lon="4.91208">
        <ele>401</ele>
        <time>2017-09-24T07:53:21Z</time>
      </trkpt>
      <trkpt lat="47.27362" lon="4.91137">
        <ele>397</ele>
        <time>2017-09-24T07:53:28Z</time>
      </trkpt>
      <trkpt lat="47.27343" lon="4.91073">
        <ele>395</ele>
        <time>2017-09-24T07:53:35Z</time>
      </trkpt>
      <trkpt lat="47.2734" lon="4.91025">
        <ele>390</ele>
        <time>2017-09-24T07:53:40Z</time>
      </trkpt>
      <trkpt lat="47.27347" lon="4.90948">
        <ele>386</ele>
        <time>2017-09-24T07:53:50Z</time>
      </trkpt>
      <trkpt lat="47.2734" lon="4.90909">
        <ele>383</ele>
        <time>2017-09-24T07:53:55Z</time>
      </trkpt>
      <trkpt lat="47.27329" lon="4.90876">
        <ele>382</ele>
        <time>2017-09-24T07:53:59Z</time>
      </trkpt>
      <trkpt lat="47.27329" lon="4.90797">
        <ele>380</ele>
        <time>2017-09-24T07:54:09Z</time>
      </trkpt>
      <trkpt lat="47.27324" lon="4.90787">
        <ele>381</ele>
        <time>2017-09-24T07:54:14Z</time>
      </trkpt>
      <trkpt lat="47.27269" lon="4.90747">
        <ele>386</ele>
        <time>2017-09-24T07:54:37Z</time>
      </trkpt>
      <trkpt lat="47.27181" lon="4.90674">
        <ele>388</ele>
        <time>2017-09-24T07:54:59Z</time>
      </trkpt>
      <trkpt lat="47.27129" lon="4.90619">
        <ele>386</ele>
        <time>2017-09-24T07:55:15Z</time>
      </trkpt>
      <trkpt lat="47.27104" lon="4.90609">
        <ele>389</ele>
        <time>2017-09-24T07:55:22Z</time>
      </trkpt>
      <trkpt lat="47.27063" lon="4.90586">
        <ele>393</ele>
        <time>2017-09-24T07:55:34Z</time>
      </trkpt>
      <trkpt lat="47.27029" lon="4.90574">
        <ele>395</ele>
        <time>2017-09-24T07:55:42Z</time>
      </trkpt>
      <trkpt lat="47.27005" lon="4.90573">
        <ele>396</ele>
        <time>2017-09-24T07:55:49Z</time>
      </trkpt>
      <trkpt lat="47.26947" lon="4.90598">
        <ele>400</ele>
        <time>2017-09-24T07:56:05Z</time>
      </trkpt>
      <trkpt lat="47.26934" lon="4.90598">
        <ele>400</ele>
        <time>2017-09-24T07:56:09Z</time>
      </trkpt>
      <trkpt lat="47.26872" lon="4.90612">
        <ele>399</ele>
        <time>2017-09-24T07:56:35Z</time>
      </trkpt>
      <trkpt lat="47.26861" lon="4.90612">
        <ele>399</ele>
        <time>2017-09-24T07:56:40Z</time>
      </trkpt>
      <trkpt lat="47.26835" lon="4.90617">
        <ele>402</ele>
        <time>2017-09-24T07:56:51Z</time>
      </trkpt>
      <trkpt lat="47.26805" lon="4.90636">
        <ele>408</ele>
        <time>2017-09-24T07:57:00Z</time>
      </trkpt>
      <trkpt lat="47.26778" lon="4.90643">
        <ele>413</ele>
        <time>2017-09-24T07:57:08Z</time>
      </trkpt>
      <trkpt lat="47.26742" lon="4.9066">
        <ele>417</ele>
        <time>2017-09-24T07:57:19Z</time>
      </trkpt>
      <trkpt lat="47.26723" lon="4.90659">
        <ele>419</ele>
        <time>2017-09-24T07:57:25Z</time>
      </trkpt>
      <trkpt lat="47.26633" lon="4.90654">
        <ele>422</ele>
        <time>2017-09-24T07:57:46Z</time>
      </trkpt>
      <trkpt lat="47.26602" lon="4.90665">
        <ele>422</ele>
        <time>2017-09-24T07:57:56Z</time>
      </trkpt>
      <trkpt lat="47.26544" lon="4.90712">
        <ele>425</ele>
        <time>2017-09-24T07:58:15Z</time>
      </trkpt>
      <trkpt lat="47.26476" lon="4.90797">
        <ele>425</ele>
        <time>2017-09-24T07:58:41Z</time>
      </trkpt>
      <trkpt lat="47.26371" lon="4.90926">
        <ele>430</ele>
        <time>2017-09-24T07:59:18Z</time>
      </trkpt>
      <trkpt lat="47.26352" lon="4.90959">
        <ele>431</ele>
        <time>2017-09-24T07:59:28Z</time>
      </trkpt>
      <trkpt lat="47.26353" lon="4.90984">
        <ele>428</ele>
        <time>2017-09-24T07:59:37Z</time>
      </trkpt>
      <trkpt lat="47.26363" lon="4.90998">
        <ele>428</ele>
        <time>2017-09-24T07:59:43Z</time>
      </trkpt>
      <trkpt lat="47.26366" lon="4.91014">
        <ele>429</ele>
        <time>2017-09-24T07:59:47Z</time>
      </trkpt>
      <trkpt lat="47.26365" lon="4.91028">
        <ele>431</ele>
        <time>2017-09-24T07:59:52Z</time>
      </trkpt>
      <trkpt lat="47.26346" lon="4.91054">
        <ele>432</ele>
        <time>2017-09-24T07:59:58Z</time>
      </trkpt>
      <trkpt lat="47.26327" lon="4.91079">
        <ele>434</ele>
        <time>2017-09-24T08:00:06Z</time>
      </trkpt>
      <trkpt lat="47.26285" lon="4.91109">
        <ele>434</ele>
        <time>2017-09-24T08:00:20Z</time>
      </trkpt>
      <trkpt lat="47.26253" lon="4.91142">
        <ele>440</ele>
        <time>2017-09-24T08:00:36Z</time>
      </trkpt>
      <trkpt lat="47.26216" lon="4.91148">
        <ele>443</ele>
        <time>2017-09-24T08:00:51Z</time>
      </trkpt>
      <trkpt lat="47.26151" lon="4.91138">
        <ele>450</ele>
        <time>2017-09-24T08:01:16Z</time>
      </trkpt>
      <trkpt lat="47.26132" lon="4.91145">
        <ele>450</ele>
        <time>2017-09-24T08:01:23Z</time>
      </trkpt>
      <trkpt lat="47.26111" lon="4.91163">
        <ele>449</ele>
        <time>2017-09-24T08:01:32Z</time>
      </trkpt>
      <trkpt lat="47.26089" lon="4.91191">
        <ele>452</ele>
        <time>2017-09-24T08:01:45Z</time>
      </trkpt>
      <trkpt lat="47.26036" lon="4.91223">
        <ele>455</ele>
        <time>2017-09-24T08:02:06Z</time>
      </trkpt>
      <trkpt lat="47.26025" lon="4.91244">
        <ele>455</ele>
        <time>2017-09-24T08:02:12Z</time>
      </trkpt>
      <trkpt lat="47.2602" lon="4.91269">
        <ele>456</ele>
        <time>2017-09-24T08:02:22Z</time>
      </trkpt>
      <trkpt lat="47.26009" lon="4.91272">
        <ele>457</ele>
        <time>2017-09-24T08:02:28Z</time>
      </trkpt>
      <trkpt lat="47.25939" lon="4.91277">
        <ele>464</ele>
        <time>2017-09-24T08:03:00Z</time>
      </trkpt>
      <trkpt lat="47.25927" lon="4.91271">
        <ele>465</ele>
        <time>2017-09-24T08:03:07Z</time>
      </trkpt>
      <trkpt lat="47.25918" lon="4.91258">
        <ele>466</ele>
        <time>2017-09-24T08:03:13Z</time>
      </trkpt>
      <trkpt lat="47.25914" lon="4.91229">
        <ele>467</ele>
        <time>2017-09-24T08:03:23Z</time>
      </trkpt>
      <trkpt lat="47.25913" lon="4.91203">
        <ele>469</ele>
        <time>2017-09-24T08:03:32Z</time>
      </trkpt>
      <trkpt lat="47.2591" lon="4.91182">
        <ele>470</ele>
        <time>2017-09-24T08:03:40Z</time>
      </trkpt>
      <trkpt lat="47.25899" lon="4.91143">
        <ele>473</ele>
        <time>2017-09-24T08:03:52Z</time>
      </trkpt>
      <trkpt lat="47.2587" lon="4.91073">
        <ele>477</ele>
        <time>2017-09-24T08:04:14Z</time>
      </trkpt>
      <trkpt lat="47.25833" lon="4.90996">
        <ele>481</ele>
        <time>2017-09-24T08:04:41Z</time>
      </trkpt>
      <trkpt lat="47.25795" lon="4.90938">
        <ele>484</ele>
        <time>2017-09-24T08:04:58Z</time>
      </trkpt>
      <trkpt lat="47.25776" lon="4.90917">
        <ele>487</ele>
        <time>2017-09-24T08:05:05Z</time>
      </trkpt>
      <trkpt lat="47.25756" lon="4.90908">
        <ele>488</ele>
        <time>2017-09-24T08:05:11Z</time>
      </trkpt>
      <trkpt lat="47.25705" lon="4.90888">
        <ele>495</ele>
        <time>2017-09-24T08:05:32Z</time>
      </trkpt>
      <trkpt lat="47.25636" lon="4.90844">
        <ele>502</ele>
        <time>2017-09-24T08:06:10Z</time>
      </trkpt>
      <trkpt lat="47.25623" lon="4.90843">
        <ele>504</ele>
        <time>2017-09-24T08:06:17Z</time>
      </trkpt>
      <trkpt lat="47.25597" lon="4.90856">
        <ele>507</ele>
        <time>2017-09-24T08:06:32Z</time>
      </trkpt>
      <trkpt lat="47.25589" lon="4.90872">
        <ele>508</ele>
        <time>2017-09-24T08:08:45Z</time>
      </trkpt>
      <trkpt lat="47.25574" lon="4.90933">
        <ele>507</ele>
        <time>2017-09-24T08:09:02Z</time>
      </trkpt>
      <trkpt lat="47.25547" lon="4.91066">
        <ele>504</ele>
        <time>2017-09-24T08:09:29Z</time>
      </trkpt>
      <trkpt lat="47.25481" lon="4.91295">
        <ele>501</ele>
        <time>2017-09-24T08:10:00Z</time>
      </trkpt>
      <trkpt lat="47.25465" lon="4.91362">
        <ele>503</ele>
        <time>2017-09-24T08:10:10Z</time>
      </trkpt>
      <trkpt lat="47.25463" lon="4.91387">
        <ele>503</ele>
        <time>2017-09-24T08:10:14Z</time>
      </trkpt>
      <trkpt lat="47.25466" lon="4.91423">
        <ele>504</ele>
        <time>2017-09-24T08:10:20Z</time>
      </trkpt>
      <trkpt lat="47.25476" lon="4.91502">
        <ele>508</ele>
        <time>2017-09-24T08:10:32Z</time>
      </trkpt>
      <trkpt lat="47.25481" lon="4.91567">
        <ele>511</ele>
        <time>2017-09-24T08:10:43Z</time>
      </trkpt>
      <trkpt lat="47.25475" lon="4.91627">
        <ele>513</ele>
        <time>2017-09-24T08:10:55Z</time>
      </trkpt>
      <trkpt lat="47.2545" lon="4.91706">
        <ele>516</ele>
        <time>2017-09-24T08:11:12Z</time>
      </trkpt>
      <trkpt lat="47.25422" lon="4.91839">
        <ele>522</ele>
        <time>2017-09-24T08:11:42Z</time>
      </trkpt>
      <trkpt lat="47.25403" lon="4.92014">
        <ele>526</ele>
        <time>2017-09-24T08:12:16Z</time>
      </trkpt>
      <trkpt lat="47.25415" lon="4.9207">
        <ele>528</ele>
        <time>2017-09-24T08:12:27Z</time>
      </trkpt>
      <trkpt lat="47.25479" lon="4.92253">
        <ele>532</ele>
        <time>2017-09-24T08:13:01Z</time>
      </trkpt>
      <trkpt lat="47.2548" lon="4.92332">
        <ele>533</ele>
        <time>2017-09-24T08:13:11Z</time>
      </trkpt>
      <trkpt lat="47.25483" lon="4.92342">
        <ele>533</ele>
        <time>2017-09-24T08:13:13Z</time>
      </trkpt>
      <trkpt lat="47.25488" lon="4.92534">
        <ele>536</ele>
        <time>2017-09-24T08:13:38Z</time>
      </trkpt>
      <trkpt lat="47.25481" lon="4.92634">
        <ele>535</ele>
        <time>2017-09-24T08:13:51Z</time>
      </trkpt>
      <trkpt lat="47.2545" lon="4.92788">
        <ele>532</ele>
        <time>2017-09-24T08:14:08Z</time>
      </trkpt>
      <trkpt lat="47.25419" lon="4.92943">
        <ele>528</ele>
        <time>2017-09-24T08:14:28Z</time>
      </trkpt>
      <trkpt lat="47.25095" lon="4.92871">
        <ele>525</ele>
      </trkpt>
      <trkpt lat="47.25002" lon="4.93019">
        <ele>528</ele>
      </trkpt>
      <trkpt lat="47.24905" lon="4.93299">
        <ele>519</ele>
      </trkpt>
      <trkpt lat="47.2483" lon="4.93405">
        <ele>514</ele>
      </trkpt>
      <trkpt lat="47.24772" lon="4.93453">
        <ele>512</ele>
      </trkpt>
      <trkpt lat="47.24748" lon="4.93552">
        <ele>500</ele>
      </trkpt>
      <trkpt lat="47.24739" lon="4.93509">
        <ele>501</ele>
      </trkpt>
      <trkpt lat="47.2474" lon="4.93483">
        <ele>502</ele>
      </trkpt>
      <trkpt lat="47.24724" lon="4.93433">
        <ele>505</ele>
      </trkpt>
      <trkpt lat="47.24709" lon="4.93411">
        <ele>506</ele>
      </trkpt>
      <trkpt lat="47.24678" lon="4.93402">
        <ele>509</ele>
      </trkpt>
      <trkpt lat="47.24619" lon="4.93415">
        <ele>511</ele>
      </trkpt>
      <trkpt lat="47.24607" lon="4.93383">
        <ele>513</ele>
      </trkpt>
      <trkpt lat="47.24574" lon="4.93321">
        <ele>517</ele>
      </trkpt>
      <trkpt lat="47.24563" lon="4.93312">
        <ele>518</ele>
      </trkpt>
      <trkpt lat="47.24532" lon="4.93314">
        <ele>519</ele>
      </trkpt>
      <trkpt lat="47.24499" lon="4.93296">
        <ele>519</ele>
      </trkpt>
      <trkpt lat="47.24456" lon="4.93295">
        <ele>518</ele>
      </trkpt>
      <trkpt lat="47.24447" lon="4.93304">
        <ele>518</ele>
      </trkpt>
      <trkpt lat="47.24437" lon="4.93294">
        <ele>518</ele>
      </trkpt>
      <trkpt lat="47.2443" lon="4.93301">
        <ele>517</ele>
      </trkpt>
      <trkpt lat="47.24342" lon="4.9347">
        <ele>514</ele>
      </trkpt>
      <trkpt lat="47.24337" lon="4.93523">
        <ele>512</ele>
      </trkpt>
      <trkpt lat="47.2433" lon="4.93533">
        <ele>512</ele>
      </trkpt>
      <trkpt lat="47.24284" lon="4.93532">
        <ele>514</ele>
      </trkpt>
      <trkpt lat="47.24163" lon="4.93506">
        <ele>514</ele>
      </trkpt>
      <trkpt lat="47.24144" lon="4.93512">
        <ele>514</ele>
      </trkpt>
      <trkpt lat="47.24119" lon="4.93532">
        <ele>513</ele>
      </trkpt>
      <trkpt lat="47.24095" lon="4.93536">
        <ele>513</ele>
      </trkpt>
      <trkpt lat="47.23935" lon="4.93511">
        <ele>509</ele>
      </trkpt>
      <trkpt lat="47.23921" lon="4.93498">
        <ele>509</ele>
      </trkpt>
      <trkpt lat="47.23916" lon="4.93478">
        <ele>510</ele>
      </trkpt>
      <trkpt lat="47.23915" lon="4.93339">
        <ele>513</ele>
      </trkpt>
      <trkpt lat="47.23923" lon="4.93281">
        <ele>514</ele>
      </trkpt>
      <trkpt lat="47.23922" lon="4.93117">
        <ele>514</ele>
      </trkpt>
      <trkpt lat="47.23936" lon="4.93">
        <ele>513</ele>
      </trkpt>
      <trkpt lat="47.23946" lon="4.92964">
        <ele>512</ele>
      </trkpt>
      <trkpt lat="47.23949" lon="4.9293">
        <ele>510</ele>
      </trkpt>
      <trkpt lat="47.23934" lon="4.92841">
        <ele>512</ele>
      </trkpt>
      <trkpt lat="47.23929" lon="4.92779">
        <ele>516</ele>
      </trkpt>
      <trkpt lat="47.2393" lon="4.92683">
        <ele>518</ele>
      </trkpt>
      <trkpt lat="47.23927" lon="4.92665">
        <ele>518</ele>
      </trkpt>
      <trkpt lat="47.2389" lon="4.92588">
        <ele>519</ele>
      </trkpt>
      <trkpt lat="47.23897" lon="4.92567">
        <ele>519</ele>
      </trkpt>
      <trkpt lat="47.23898" lon="4.92546">
        <ele>520</ele>
      </trkpt>
      <trkpt lat="47.23969" lon="4.92494">
        <ele>521</ele>
      </trkpt>
      <trkpt lat="47.23981" lon="4.92491">
        <ele>521</ele>
      </trkpt>
      <trkpt lat="47.24003" lon="4.92474">
        <ele>522</ele>
      </trkpt>
      <trkpt lat="47.24009" lon="4.92451">
        <ele>522</ele>
      </trkpt>
      <trkpt lat="47.2401" lon="4.92421">
        <ele>522</ele>
      </trkpt>
      <trkpt lat="47.23997" lon="4.92376">
        <ele>522</ele>
      </trkpt>
      <trkpt lat="47.23983" lon="4.92346">
        <ele>522</ele>
      </trkpt>
      <trkpt lat="47.23869" lon="4.9217">
        <ele>519</ele>
      </trkpt>
      <trkpt lat="47.23819" lon="4.92132">
        <ele>517</ele>
      </trkpt>
      <trkpt lat="47.23809" lon="4.9214">
        <ele>517</ele>
      </trkpt>
      <trkpt lat="47.2377" lon="4.92163">
        <ele>515</ele>
      </trkpt>
      <trkpt lat="47.23712" lon="4.92175">
        <ele>511</ele>
      </trkpt>
      <trkpt lat="47.23703" lon="4.92173">
        <ele>510</ele>
      </trkpt>
      <trkpt lat="47.23687" lon="4.92159">
        <ele>509</ele>
      </trkpt>
      <trkpt lat="47.23658" lon="4.92171">
        <ele>506</ele>
      </trkpt>
      <trkpt lat="47.23643" lon="4.92168">
        <ele>505</ele>
      </trkpt>
      <trkpt lat="47.23618" lon="4.92147">
        <ele>503</ele>
      </trkpt>
      <trkpt lat="47.23517" lon="4.92109">
        <ele>492</ele>
      </trkpt>
      <trkpt lat="47.23458" lon="4.9207">
        <ele>482</ele>
      </trkpt>
      <trkpt lat="47.23431" lon="4.92062">
        <ele>476</ele>
      </trkpt>
      <trkpt lat="47.23404" lon="4.92072">
        <ele>473</ele>
      </trkpt>
      <trkpt lat="47.23376" lon="4.92101">
        <ele>470</ele>
      </trkpt>
      <trkpt lat="47.23333" lon="4.92158">
        <ele>468</ele>
      </trkpt>
      <trkpt lat="47.23287" lon="4.9217">
        <ele>468</ele>
      </trkpt>
      <trkpt lat="47.232" lon="4.92173">
        <ele>466</ele>
      </trkpt>
      <trkpt lat="47.2317" lon="4.92187">
        <ele>463</ele>
      </trkpt>
      <trkpt lat="47.23125" lon="4.92231">
        <ele>461</ele>
      </trkpt>
      <trkpt lat="47.2311" lon="4.9224">
        <ele>460</ele>
      </trkpt>
      <trkpt lat="47.23053" lon="4.92263">
        <ele>456</ele>
      </trkpt>
      <trkpt lat="47.22993" lon="4.92304">
        <ele>455</ele>
      </trkpt>
      <trkpt lat="47.22968" lon="4.92305">
        <ele>455</ele>
      </trkpt>
      <trkpt lat="47.22903" lon="4.92339">
        <ele>448</ele>
      </trkpt>
      <trkpt lat="47.22842" lon="4.92392">
        <ele>446</ele>
      </trkpt>
      <trkpt lat="47.22823" lon="4.92425">
        <ele>447</ele>
      </trkpt>
      <trkpt lat="47.2274" lon="4.92482">
        <ele>440</ele>
      </trkpt>
      <trkpt lat="47.22623" lon="4.92472">
        <ele>439</ele>
      </trkpt>
      <trkpt lat="47.2257" lon="4.92486">
        <ele>436</ele>
      </trkpt>
      <trkpt lat="47.22532" lon="4.9251">
        <ele>428</ele>
      </trkpt>
      <trkpt lat="47.22485" lon="4.92563">
        <ele>428</ele>
      </trkpt>
      <trkpt lat="47.2242" lon="4.92608">
        <ele>424</ele>
      </trkpt>
      <trkpt lat="47.22406" lon="4.92609">
        <ele>421</ele>
      </trkpt>
      <trkpt lat="47.22389" lon="4.92599">
        <ele>418</ele>
      </trkpt>
      <trkpt lat="47.22341" lon="4.92425">
        <ele>428</ele>
      </trkpt>
      <trkpt lat="47.22345" lon="4.92369">
        <ele>429</ele>
      </trkpt>
      <trkpt lat="47.2238" lon="4.92233">
        <ele>436</ele>
      </trkpt>
      <trkpt lat="47.22356" lon="4.92235">
        <ele>434</ele>
      </trkpt>
      <trkpt lat="47.22338" lon="4.92246">
        <ele>434</ele>
      </trkpt>
      <trkpt lat="47.223" lon="4.92237">
        <ele>440</ele>
      </trkpt>
      <trkpt lat="47.22273" lon="4.92242">
        <ele>445</ele>
      </trkpt>
      <trkpt lat="47.22244" lon="4.92256">
        <ele>449</ele>
      </trkpt>
      <trkpt lat="47.2223" lon="4.9227">
        <ele>451</ele>
      </trkpt>
      <trkpt lat="47.22225" lon="4.92284">
        <ele>452</ele>
      </trkpt>
      <trkpt lat="47.22212" lon="4.9244">
        <ele>457</ele>
      </trkpt>
      <trkpt lat="47.22201" lon="4.92525">
        <ele>460</ele>
      </trkpt>
      <trkpt lat="47.22155" lon="4.92671">
        <ele>464</ele>
      </trkpt>
      <trkpt lat="47.22138" lon="4.92709">
        <ele>464</ele>
      </trkpt>
      <trkpt lat="47.22123" lon="4.92717">
        <ele>464</ele>
      </trkpt>
      <trkpt lat="47.22069" lon="4.92704">
        <ele>465</ele>
      </trkpt>
      <trkpt lat="47.22058" lon="4.92715">
        <ele>465</ele>
      </trkpt>
      <trkpt lat="47.22033" lon="4.92721">
        <ele>465</ele>
      </trkpt>
      <trkpt lat="47.21988" lon="4.92712">
        <ele>464</ele>
      </trkpt>
      <trkpt lat="47.21923" lon="4.92663">
        <ele>466</ele>
      </trkpt>
      <trkpt lat="47.21905" lon="4.92663">
        <ele>465</ele>
      </trkpt>
      <trkpt lat="47.21881" lon="4.92682">
        <ele>465</ele>
      </trkpt>
      <trkpt lat="47.21861" lon="4.92707">
        <ele>466</ele>
      </trkpt>
      <trkpt lat="47.21818" lon="4.92806">
        <ele>469</ele>
      </trkpt>
      <trkpt lat="47.21814" lon="4.92851">
        <ele>470</ele>
      </trkpt>
      <trkpt lat="47.21817" lon="4.92906">
        <ele>472</ele>
      </trkpt>
      <trkpt lat="47.21809" lon="4.93063">
        <ele>477</ele>
      </trkpt>
      <trkpt lat="47.21768" lon="4.93182">
        <ele>477</ele>
      </trkpt>
      <trkpt lat="47.21728" lon="4.93252">
        <ele>474</ele>
      </trkpt>
      <trkpt lat="47.21711" lon="4.9335">
        <ele>471</ele>
      </trkpt>
      <trkpt lat="47.21682" lon="4.93432">
        <ele>467</ele>
      </trkpt>
      <trkpt lat="47.21675" lon="4.93465">
        <ele>465</ele>
      </trkpt>
      <trkpt lat="47.21677" lon="4.93512">
        <ele>461</ele>
      </trkpt>
      <trkpt lat="47.2167" lon="4.93557">
        <ele>457</ele>
      </trkpt>
      <trkpt lat="47.2167" lon="4.93608">
        <ele>452</ele>
      </trkpt>
      <trkpt lat="47.21684" lon="4.93738">
        <ele>442</ele>
      </trkpt>
      <trkpt lat="47.21671" lon="4.93747">
        <ele>439</ele>
      </trkpt>
      <trkpt lat="47.21665" lon="4.93787">
        <ele>434</ele>
      </trkpt>
      <trkpt lat="47.21665" lon="4.9385">
        <ele>428</ele>
      </trkpt>
      <trkpt lat="47.21692" lon="4.93945">
        <ele>425</ele>
      </trkpt>
      <trkpt lat="47.21693" lon="4.94">
        <ele>432</ele>
      </trkpt>
      <trkpt lat="47.21684" lon="4.94023">
        <ele>434</ele>
      </trkpt>
      <trkpt lat="47.21677" lon="4.94045">
        <ele>436</ele>
      </trkpt>
      <trkpt lat="47.21661" lon="4.94056">
        <ele>439</ele>
      </trkpt>
      <trkpt lat="47.21574" lon="4.94074">
        <ele>447</ele>
      </trkpt>
      <trkpt lat="47.21478" lon="4.94106">
        <ele>447</ele>
      </trkpt>
      <trkpt lat="47.21409" lon="4.94096">
        <ele>444</ele>
      </trkpt>
      <trkpt lat="47.21384" lon="4.94127">
        <ele>441</ele>
      </trkpt>
      <trkpt lat="47.21375" lon="4.94132">
        <ele>440</ele>
      </trkpt>
      <trkpt lat="47.21251" lon="4.94126">
        <ele>444</ele>
      </trkpt>
      <trkpt lat="47.21186" lon="4.94126">
        <ele>449</ele>
      </trkpt>
      <trkpt lat="47.21177" lon="4.94288">
        <ele>442</ele>
      </trkpt>
      <trkpt lat="47.21176" lon="4.94431">
        <ele>435</ele>
      </trkpt>
      <trkpt lat="47.21169" lon="4.94461">
        <ele>433</ele>
      </trkpt>
      <trkpt lat="47.21142" lon="4.94528">
        <ele>428</ele>
      </trkpt>
      <trkpt lat="47.21129" lon="4.94545">
        <ele>427</ele>
      </trkpt>
      <trkpt lat="47.21118" lon="4.94568">
        <ele>424</ele>
      </trkpt>
      <trkpt lat="47.21107" lon="4.94569">
        <ele>424</ele>
      </trkpt>
      <trkpt lat="47.21064" lon="4.94533">
        <ele>427</ele>
      </trkpt>
      <trkpt lat="47.20972" lon="4.94433">
        <ele>434</ele>
      </trkpt>
      <trkpt lat="47.20965" lon="4.94439">
        <ele>434</ele>
      </trkpt>
      <trkpt lat="47.20958" lon="4.94461">
        <ele>433</ele>
      </trkpt>
      <trkpt lat="47.20943" lon="4.94488">
        <ele>433</ele>
      </trkpt>
      <trkpt lat="47.20945" lon="4.94593">
        <ele>431</ele>
      </trkpt>
      <trkpt lat="47.20941" lon="4.94618">
        <ele>430</ele>
      </trkpt>
      <trkpt lat="47.20942" lon="4.94655">
        <ele>429</ele>
      </trkpt>
      <trkpt lat="47.20939" lon="4.94686">
        <ele>428</ele>
      </trkpt>
      <trkpt lat="47.20874" lon="4.94892">
        <ele>425</ele>
      </trkpt>
      <trkpt lat="47.20824" lon="4.95043">
        <ele>418</ele>
      </trkpt>
      <trkpt lat="47.20763" lon="4.95268">
        <ele>408</ele>
      </trkpt>
      <trkpt lat="47.20718" lon="4.9533">
        <ele>407</ele>
      </trkpt>
      <trkpt lat="47.20664" lon="4.95381">
        <ele>405</ele>
      </trkpt>
      <trkpt lat="47.20608" lon="4.95454">
        <ele>399</ele>
      </trkpt>
      <trkpt lat="47.20567" lon="4.95479">
        <ele>397</ele>
      </trkpt>
      <trkpt lat="47.20535" lon="4.95516">
        <ele>392</ele>
      </trkpt>
      <trkpt lat="47.20532" lon="4.95517">
        <ele>393</ele>
      </trkpt>
      <trkpt lat="47.20524" lon="4.955">
        <ele>394</ele>
      </trkpt>
      <trkpt lat="47.20448" lon="4.95419">
        <ele>397</ele>
      </trkpt>
      <trkpt lat="47.20427" lon="4.95419">
        <ele>396</ele>
      </trkpt>
      <trkpt lat="47.20394" lon="4.95386">
        <ele>396</ele>
      </trkpt>
      <trkpt lat="47.20372" lon="4.95343">
        <ele>399</ele>
      </trkpt>
      <trkpt lat="47.20324" lon="4.9526">
        <ele>402</ele>
      </trkpt>
      <trkpt lat="47.20302" lon="4.95192">
        <ele>406</ele>
      </trkpt>
      <trkpt lat="47.20227" lon="4.95028">
        <ele>409</ele>
      </trkpt>
      <trkpt lat="47.20173" lon="4.94873">
        <ele>411</ele>
      </trkpt>
      <trkpt lat="47.2017" lon="4.94838">
        <ele>411</ele>
      </trkpt>
      <trkpt lat="47.20175" lon="4.94723">
        <ele>410</ele>
      </trkpt>
      <trkpt lat="47.20165" lon="4.94587">
        <ele>412</ele>
      </trkpt>
      <trkpt lat="47.2019" lon="4.94464">
        <ele>415</ele>
      </trkpt>
      <trkpt lat="47.20192" lon="4.94414">
        <ele>417</ele>
      </trkpt>
      <trkpt lat="47.20188" lon="4.94364">
        <ele>419</ele>
      </trkpt>
      <trkpt lat="47.20181" lon="4.94333">
        <ele>421</ele>
      </trkpt>
      <trkpt lat="47.2016" lon="4.94293">
        <ele>424</ele>
      </trkpt>
      <trkpt lat="47.20157" lon="4.94274">
        <ele>425</ele>
      </trkpt>
      <trkpt lat="47.20165" lon="4.94227">
        <ele>427</ele>
      </trkpt>
      <trkpt lat="47.20165" lon="4.94193">
        <ele>429</ele>
      </trkpt>
      <trkpt lat="47.20118" lon="4.94017">
        <ele>434</ele>
      </trkpt>
      <trkpt lat="47.20113" lon="4.93967">
        <ele>434</ele>
      </trkpt>
      <trkpt lat="47.20112" lon="4.93843">
        <ele>436</ele>
      </trkpt>
      <trkpt lat="47.20116" lon="4.93756">
        <ele>439</ele>
      </trkpt>
      <trkpt lat="47.2013" lon="4.93656">
        <ele>444</ele>
      </trkpt>
      <trkpt lat="47.20142" lon="4.93603">
        <ele>448</ele>
      </trkpt>
      <trkpt lat="47.20147" lon="4.9352">
        <ele>452</ele>
      </trkpt>
      <trkpt lat="47.20123" lon="4.93415">
        <ele>455</ele>
      </trkpt>
      <trkpt lat="47.20128" lon="4.93363">
        <ele>456</ele>
      </trkpt>
      <trkpt lat="47.20137" lon="4.93341">
        <ele>457</ele>
      </trkpt>
      <trkpt lat="47.20186" lon="4.93269">
        <ele>459</ele>
      </trkpt>
      <trkpt lat="47.20191" lon="4.93241">
        <ele>459</ele>
      </trkpt>
      <trkpt lat="47.20179" lon="4.932">
        <ele>458</ele>
      </trkpt>
      <trkpt lat="47.20174" lon="4.93157">
        <ele>456</ele>
      </trkpt>
      <trkpt lat="47.20143" lon="4.93025">
        <ele>454</ele>
      </trkpt>
      <trkpt lat="47.20146" lon="4.92973">
        <ele>454</ele>
      </trkpt>
      <trkpt lat="47.2014" lon="4.9288">
        <ele>453</ele>
      </trkpt>
      <trkpt lat="47.20162" lon="4.92811">
        <ele>452</ele>
      </trkpt>
      <trkpt lat="47.20249" lon="4.92609">
        <ele>447</ele>
      </trkpt>
      <trkpt lat="47.2027" lon="4.92581">
        <ele>445</ele>
      </trkpt>
      <trkpt lat="47.20285" lon="4.92544">
        <ele>445</ele>
      </trkpt>
      <trkpt lat="47.20371" lon="4.92426">
        <ele>444.3</ele>
      </trkpt>
      <trkpt lat="47.20304" lon="4.92381">
        <ele>437</ele>
      </trkpt>
      <trkpt lat="47.20291" lon="4.92363">
        <ele>436</ele>
      </trkpt>
      <trkpt lat="47.2028" lon="4.92362">
        <ele>435</ele>
      </trkpt>
      <trkpt lat="47.2024" lon="4.92413">
        <ele>433</ele>
      </trkpt>
      <trkpt lat="47.2019" lon="4.92458">
        <ele>430</ele>
      </trkpt>
      <trkpt lat="47.20123" lon="4.92496">
        <ele>428</ele>
      </trkpt>
      <trkpt lat="47.20045" lon="4.92529">
        <ele>424</ele>
      </trkpt>
      <trkpt lat="47.19988" lon="4.92598">
        <ele>423</ele>
      </trkpt>
      <trkpt lat="47.19919" lon="4.92714">
        <ele>421</ele>
      </trkpt>
      <trkpt lat="47.19885" lon="4.92735">
        <ele>424</ele>
      </trkpt>
      <trkpt lat="47.19791" lon="4.9275">
        <ele>432</ele>
      </trkpt>
      <trkpt lat="47.19777" lon="4.9273">
        <ele>435</ele>
      </trkpt>
      <trkpt lat="47.19737" lon="4.92693">
        <ele>437</ele>
      </trkpt>
      <trkpt lat="47.19694" lon="4.9268">
        <ele>437</ele>
      </trkpt>
      <trkpt lat="47.19664" lon="4.92691">
        <ele>436</ele>
      </trkpt>
      <trkpt lat="47.19607" lon="4.9274">
        <ele>435</ele>
      </trkpt>
      <trkpt lat="47.1957" lon="4.9279">
        <ele>435</ele>
      </trkpt>
      <trkpt lat="47.19534" lon="4.92811">
        <ele>437</ele>
      </trkpt>
      <trkpt lat="47.19508" lon="4.92838">
        <ele>437</ele>
      </trkpt>
      <trkpt lat="47.19462" lon="4.92864">
        <ele>437</ele>
      </trkpt>
      <trkpt lat="47.19433" lon="4.92868">
        <ele>437</ele>
      </trkpt>
      <trkpt lat="47.19414" lon="4.9286">
        <ele>437</ele>
      </trkpt>
      <trkpt lat="47.1935" lon="4.92864">
        <ele>435</ele>
      </trkpt>
      <trkpt lat="47.19263" lon="4.92832">
        <ele>429</ele>
      </trkpt>
      <trkpt lat="47.19237" lon="4.92816">
        <ele>425</ele>
      </trkpt>
      <trkpt lat="47.19217" lon="4.92791">
        <ele>421</ele>
      </trkpt>
      <trkpt lat="47.1918" lon="4.92735">
        <ele>412</ele>
      </trkpt>
      <trkpt lat="47.19179" lon="4.92716">
        <ele>412</ele>
      </trkpt>
      <trkpt lat="47.19173" lon="4.92716">
        <ele>412</ele>
      </trkpt>
      <trkpt lat="47.19083" lon="4.92764">
        <ele>410</ele>
      </trkpt>
      <trkpt lat="47.18968" lon="4.92823">
        <ele>402</ele>
      </trkpt>
      <trkpt lat="47.18956" lon="4.92835">
        <ele>401</ele>
      </trkpt>
      <trkpt lat="47.1894" lon="4.92887">
        <ele>403</ele>
      </trkpt>
      <trkpt lat="47.18927" lon="4.92997">
        <ele>409</ele>
      </trkpt>
      <trkpt lat="47.18891" lon="4.93129">
        <ele>415</ele>
      </trkpt>
      <trkpt lat="47.1888" lon="4.93192">
        <ele>417</ele>
      </trkpt>
      <trkpt lat="47.18809" lon="4.93348">
        <ele>418</ele>
      </trkpt>
      <trkpt lat="47.18601" lon="4.93508">
        <ele>420</ele>
      </trkpt>
      <trkpt lat="47.1859" lon="4.93526">
        <ele>420</ele>
      </trkpt>
      <trkpt lat="47.18579" lon="4.93573">
        <ele>418</ele>
      </trkpt>
      <trkpt lat="47.18576" lon="4.93633">
        <ele>417</ele>
      </trkpt>
      <trkpt lat="47.18553" lon="4.93712">
        <ele>416</ele>
      </trkpt>
      <trkpt lat="47.18537" lon="4.93733">
        <ele>416</ele>
      </trkpt>
      <trkpt lat="47.18475" lon="4.93774">
        <ele>415</ele>
      </trkpt>
      <trkpt lat="47.18432" lon="4.9382">
        <ele>413</ele>
      </trkpt>
      <trkpt lat="47.18324" lon="4.93996">
        <ele>408</ele>
      </trkpt>
      <trkpt lat="47.1827" lon="4.94037">
        <ele>406</ele>
      </trkpt>
      <trkpt lat="47.18238" lon="4.94079">
        <ele>403</ele>
      </trkpt>
      <trkpt lat="47.18205" lon="4.94083">
        <ele>403</ele>
      </trkpt>
      <trkpt lat="47.18176" lon="4.94064">
        <ele>404</ele>
      </trkpt>
      <trkpt lat="47.18084" lon="4.94044">
        <ele>405</ele>
      </trkpt>
      <trkpt lat="47.18077" lon="4.94037">
        <ele>405</ele>
      </trkpt>
      <trkpt lat="47.18062" lon="4.94005">
        <ele>406</ele>
      </trkpt>
      <trkpt lat="47.18037" lon="4.94061">
        <ele>405</ele>
      </trkpt>
      <trkpt lat="47.18027" lon="4.94061">
        <ele>405</ele>
      </trkpt>
      <trkpt lat="47.17997" lon="4.94037">
        <ele>405</ele>
      </trkpt>
      <trkpt lat="47.17912" lon="4.93993">
        <ele>400.2</ele>
      </trkpt>
      <trkpt lat="47.17896" lon="4.9392">
        <ele>399.8</ele>
      </trkpt>
      <trkpt lat="47.17854" lon="4.93812">
        <ele>399.8</ele>
      </trkpt>
      <trkpt lat="47.17839" lon="4.93733">
        <ele>397.9</ele>
      </trkpt>
      <trkpt lat="47.17862" lon="4.93648">
        <ele>395.1</ele>
      </trkpt>
      <trkpt lat="47.17831" lon="4.93568">
        <ele>377</ele>
      </trkpt>
      <trkpt lat="47.17823" lon="4.93529">
        <ele>371.7</ele>
      </trkpt>
      <trkpt lat="47.17873" lon="4.93421">
        <ele>387.4</ele>
      </trkpt>
      <trkpt lat="47.179" lon="4.93279">
        <ele>391.6</ele>
      </trkpt>
      <trkpt lat="47.179" lon="4.93036">
        <ele>395.3</ele>
      </trkpt>
      <trkpt lat="47.17873" lon="4.92826">
        <ele>400.6</ele>
      </trkpt>
      <trkpt lat="47.1787" lon="4.92668">
        <ele>404.5</ele>
      </trkpt>
      <trkpt lat="47.17889" lon="4.92605">
        <ele>401.8</ele>
      </trkpt>
      <trkpt lat="47.17985" lon="4.92566">
        <ele>400.8</ele>
      </trkpt>
      <trkpt lat="47.18089" lon="4.92566">
        <ele>404.4</ele>
      </trkpt>
      <trkpt lat="47.181" lon="4.9256">
        <ele>404.5</ele>
      </trkpt>
      <trkpt lat="47.1807" lon="4.92418">
        <ele>404.8</ele>
      </trkpt>
      <trkpt lat="47.1807" lon="4.9218">
        <ele>407.2</ele>
      </trkpt>
      <trkpt lat="47.18124" lon="4.91988">
        <ele>419.4</ele>
      </trkpt>
      <trkpt lat="47.18131" lon="4.91897">
        <ele>433.7</ele>
      </trkpt>
      <trkpt lat="47.18043" lon="4.9188">
        <ele>436</ele>
      </trkpt>
      <trkpt lat="47.18012" lon="4.91886">
        <ele>436.1</ele>
      </trkpt>
      <trkpt lat="47.17904" lon="4.91892">
        <ele>446.9</ele>
      </trkpt>
      <trkpt lat="47.1772" lon="4.9196">
        <ele>444.6</ele>
      </trkpt>
      <trkpt lat="47.17669" lon="4.9196">
        <ele>443.5</ele>
      </trkpt>
      <trkpt lat="47.17627" lon="4.91937">
        <ele>444.2</ele>
      </trkpt>
      <trkpt lat="47.17585" lon="4.91943">
        <ele>444.7</ele>
      </trkpt>
      <trkpt lat="47.17527" lon="4.91994">
        <ele>445</ele>
      </trkpt>
      <trkpt lat="47.17469" lon="4.92045">
        <ele>440</ele>
      </trkpt>
      <trkpt lat="47.17423" lon="4.92039">
        <ele>441.5</ele>
      </trkpt>
      <trkpt lat="47.17492" lon="4.9196">
        <ele>453.1</ele>
      </trkpt>
      <trkpt lat="47.17539" lon="4.91858">
        <ele>463.4</ele>
      </trkpt>
      <trkpt lat="47.17604" lon="4.91778">
        <ele>473.2</ele>
      </trkpt>
      <trkpt lat="47.17518" lon="4.91773">
        <ele>476.3</ele>
      </trkpt>
      <trkpt lat="47.17402" lon="4.9171">
        <ele>482</ele>
      </trkpt>
      <trkpt lat="47.17079" lon="4.91506">
        <ele>478.6</ele>
      </trkpt>
      <trkpt lat="47.16933" lon="4.91512">
        <ele>475.6</ele>
      </trkpt>
      <trkpt lat="47.16787" lon="4.91574">
        <ele>470.3</ele>
      </trkpt>
      <trkpt lat="47.16732" lon="4.91558">
        <ele>470.4</ele>
      </trkpt>
      <trkpt lat="47.16669" lon="4.91588">
        <ele>465.8</ele>
      </trkpt>
      <trkpt lat="47.16612" lon="4.91593">
        <ele>465.3</ele>
      </trkpt>
      <trkpt lat="47.16585" lon="4.91637">
        <ele>463</ele>
      </trkpt>
      <trkpt lat="47.16541" lon="4.91765">
        <ele>443.4</ele>
      </trkpt>
      <trkpt lat="47.16518" lon="4.91834">
        <ele>430.7</ele>
      </trkpt>
      <trkpt lat="47.16558" lon="4.91894">
        <ele>424.4</ele>
      </trkpt>
      <trkpt lat="47.16571" lon="4.91904">
        <ele>422.4</ele>
      </trkpt>
      <trkpt lat="47.16558" lon="4.91933">
        <ele>412.9</ele>
      </trkpt>
      <trkpt lat="47.16518" lon="4.91948">
        <ele>411.2</ele>
      </trkpt>
      <trkpt lat="47.16461" lon="4.91933">
        <ele>406.7</ele>
      </trkpt>
      <trkpt lat="47.16437" lon="4.91958">
        <ele>404.1</ele>
      </trkpt>
      <trkpt lat="47.16397" lon="4.91958">
        <ele>397.8</ele>
      </trkpt>
      <trkpt lat="47.16424" lon="4.92027">
        <ele>397.3</ele>
      </trkpt>
      <trkpt lat="47.16414" lon="4.92061">
        <ele>393.1</ele>
      </trkpt>
      <trkpt lat="47.16304" lon="4.92441">
        <ele>387.3</ele>
      </trkpt>
      <trkpt lat="47.1626" lon="4.92544">
        <ele>387.9</ele>
      </trkpt>
      <trkpt lat="47.16193" lon="4.92618">
        <ele>389.9</ele>
      </trkpt>
      <trkpt lat="47.1617" lon="4.92771">
        <ele>393</ele>
      </trkpt>
      <trkpt lat="47.16106" lon="4.92988">
        <ele>394.5</ele>
      </trkpt>
      <trkpt lat="47.16036" lon="4.93082">
        <ele>395.9</ele>
      </trkpt>
      <trkpt lat="47.16012" lon="4.93166">
        <ele>397.6</ele>
      </trkpt>
      <trkpt lat="47.15955" lon="4.93259">
        <ele>402.2</ele>
      </trkpt>
      <trkpt lat="47.15935" lon="4.93575">
        <ele>405</ele>
      </trkpt>
      <trkpt lat="47.15905" lon="4.9358">
        <ele>404.7</ele>
      </trkpt>
      <trkpt lat="47.15768" lon="4.93511">
        <ele>403.2</ele>
      </trkpt>
      <trkpt lat="47.15604" lon="4.93377">
        <ele>402.1</ele>
      </trkpt>
      <trkpt lat="47.1549" lon="4.93289">
        <ele>398.1</ele>
      </trkpt>
      <trkpt lat="47.15289" lon="4.93437">
        <ele>382.2</ele>
      </trkpt>
      <trkpt lat="47.15239" lon="4.93491">
        <ele>373.8</ele>
      </trkpt>
      <trkpt lat="47.15213" lon="4.93492">
        <ele>371.7</ele>
      </trkpt>
      <trkpt lat="47.15169" lon="4.934">
        <ele>368.3</ele>
      </trkpt>
      <trkpt lat="47.15136" lon="4.93292">
        <ele>363.2</ele>
      </trkpt>
      <trkpt lat="47.15126" lon="4.93236">
        <ele>363.1</ele>
      </trkpt>
      <trkpt lat="47.15139" lon="4.93183">
        <ele>367.7</ele>
      </trkpt>
      <trkpt lat="47.15142" lon="4.93155">
        <ele>369.8</ele>
      </trkpt>
      <trkpt lat="47.15109" lon="4.93075">
        <ele>368.2</ele>
      </trkpt>
      <trkpt lat="47.15085" lon="4.93051">
        <ele>363.8</ele>
      </trkpt>
      <trkpt lat="47.15028" lon="4.92891">
        <ele>361.4</ele>
      </trkpt>
      <trkpt lat="47.1499" lon="4.92963">
        <ele>348.3</ele>
      </trkpt>
      <trkpt lat="47.14924" lon="4.93087">
        <ele>324.7</ele>
      </trkpt>
      <trkpt lat="47.14911" lon="4.93179">
        <ele>314.8</ele>
      </trkpt>
      <trkpt lat="47.14883" lon="4.9322">
        <ele>302.2</ele>
      </trkpt>
      <trkpt lat="47.14862" lon="4.93328">
        <ele>289.1</ele>
      </trkpt>
      <trkpt lat="47.1481" lon="4.93396">
        <ele>278.8</ele>
      </trkpt>
      <trkpt lat="47.14788" lon="4.93344">
        <ele>273.2</ele>
      </trkpt>
      <trkpt lat="47.14758" lon="4.9332">
        <ele>268.2</ele>
      </trkpt>
      <trkpt lat="47.14758" lon="4.93292">
        <ele>267.9</ele>
      </trkpt>
      <trkpt lat="47.14704" lon="4.93288">
        <ele>259.8</ele>
      </trkpt>
      <trkpt lat="47.14677" lon="4.9332">
        <ele>256.3</ele>
      </trkpt>
      <trkpt lat="47.14663" lon="4.93332">
        <ele>254.8</ele>
      </trkpt>
      <trkpt lat="47.146" lon="4.935">
        <ele>252</ele>
      </trkpt>
      <trkpt lat="47.14535" lon="4.93596">
        <ele>250.7</ele>
      </trkpt>
      <trkpt lat="47.14513" lon="4.93632">
        <ele>249.4</ele>
      </trkpt>
      <trkpt lat="47.14459" lon="4.93754">
        <ele>246.8</ele>
      </trkpt>
      <trkpt lat="47.14394" lon="4.93709">
        <ele>261.6</ele>
      </trkpt>
      <trkpt lat="47.14355" lon="4.93811">
        <ele>252.9</ele>
      </trkpt>
      <trkpt lat="47.1424" lon="4.93964">
        <ele>251.2</ele>
      </trkpt>
      <trkpt lat="47.14244" lon="4.93992">
        <ele>248.2</ele>
      </trkpt>
      <trkpt lat="47.14217" lon="4.94026">
        <ele>246.6</ele>
      </trkpt>
      <trkpt lat="47.14182" lon="4.94032">
        <ele>247.1</ele>
      </trkpt>
      <trkpt lat="47.1414" lon="4.94111">
        <ele>245.9</ele>
      </trkpt>
      <trkpt lat="47.14017" lon="4.94202">
        <ele>243.9</ele>
      </trkpt>
      <trkpt lat="47.14024" lon="4.94242">
        <ele>243.2</ele>
      </trkpt>
      <trkpt lat="47.1392" lon="4.94253">
        <ele>243.8</ele>
      </trkpt>
      <trkpt lat="47.13928" lon="4.94287">
        <ele>243.1</ele>
      </trkpt>
      <trkpt lat="47.13901" lon="4.94298">
        <ele>243.1</ele>
      </trkpt>
      <trkpt lat="47.13866" lon="4.94191">
        <ele>249.3</ele>
      </trkpt>
      <trkpt lat="47.13762" lon="4.94111">
        <ele>267.2</ele>
      </trkpt>
      <trkpt lat="47.13627" lon="4.94066">
        <ele>281.7</ele>
      </trkpt>
      <trkpt lat="47.1357" lon="4.93998">
        <ele>293.1</ele>
      </trkpt>
      <trkpt lat="47.13531" lon="4.93885">
        <ele>310.6</ele>
      </trkpt>
      <trkpt lat="47.13678" lon="4.93811">
        <ele>336.4</ele>
      </trkpt>
      <trkpt lat="47.13766" lon="4.93834">
        <ele>335</ele>
      </trkpt>
      <trkpt lat="47.13866" lon="4.93709">
        <ele>356.4</ele>
      </trkpt>
      <trkpt lat="47.13955" lon="4.93692">
        <ele>355.6</ele>
      </trkpt>
      <trkpt lat="47.14051" lon="4.93618">
        <ele>359.6</ele>
      </trkpt>
      <trkpt lat="47.14144" lon="4.93522">
        <ele>363.1</ele>
      </trkpt>
      <trkpt lat="47.1419" lon="4.93409">
        <ele>365.4</ele>
      </trkpt>
      <trkpt lat="47.14232" lon="4.93239">
        <ele>361.9</ele>
      </trkpt>
      <trkpt lat="47.14217" lon="4.93057">
        <ele>363.9</ele>
      </trkpt>
      <trkpt lat="47.14198" lon="4.92888">
        <ele>361.4</ele>
      </trkpt>
      <trkpt lat="47.14144" lon="4.92599">
        <ele>365.2</ele>
      </trkpt>
      <trkpt lat="47.1414" lon="4.9231">
        <ele>348.3</ele>
      </trkpt>
      <trkpt lat="47.14078" lon="4.92157">
        <ele>353</ele>
      </trkpt>
      <trkpt lat="47.14155" lon="4.92066">
        <ele>345.3</ele>
      </trkpt>
      <trkpt lat="47.14167" lon="4.91862">
        <ele>345.4</ele>
      </trkpt>
      <trkpt lat="47.1409" lon="4.91743">
        <ele>361</ele>
      </trkpt>
      <trkpt lat="47.1407" lon="4.91675">
        <ele>361.4</ele>
      </trkpt>
      <trkpt lat="47.13674" lon="4.91545">
        <ele>362.7</ele>
      </trkpt>
      <trkpt lat="47.13643" lon="4.9142">
        <ele>358.1</ele>
      </trkpt>
      <trkpt lat="47.13481" lon="4.91171">
        <ele>359.3</ele>
      </trkpt>
      <trkpt lat="47.13385" lon="4.91092">
        <ele>363.6</ele>
      </trkpt>
      <trkpt lat="47.13335" lon="4.90893">
        <ele>362.4</ele>
      </trkpt>
      <trkpt lat="47.13173" lon="4.90786">
        <ele>365.2</ele>
      </trkpt>
      <trkpt lat="47.13046" lon="4.90667">
        <ele>378.6</ele>
      </trkpt>
      <trkpt lat="47.12957" lon="4.90644">
        <ele>379.3</ele>
      </trkpt>
      <trkpt lat="47.13146" lon="4.90185">
        <ele>385.3</ele>
      </trkpt>
      <trkpt lat="47.13227" lon="4.90265">
        <ele>389</ele>
      </trkpt>
      <trkpt lat="47.13269" lon="4.90344">
        <ele>384.8</ele>
      </trkpt>
      <trkpt lat="47.13419" lon="4.9044">
        <ele>389.5</ele>
      </trkpt>
      <trkpt lat="47.13558" lon="4.9057">
        <ele>382.7</ele>
      </trkpt>
      <trkpt lat="47.13566" lon="4.90553">
        <ele>383.3</ele>
      </trkpt>
      <trkpt lat="47.13597" lon="4.90542">
        <ele>379.7</ele>
      </trkpt>
      <trkpt lat="47.13624" lon="4.90434">
        <ele>381</ele>
      </trkpt>
      <trkpt lat="47.13666" lon="4.90293">
        <ele>384.3</ele>
      </trkpt>
      <trkpt lat="47.13843" lon="4.90417">
        <ele>333.1</ele>
      </trkpt>
      <trkpt lat="47.13897" lon="4.89885">
        <ele>325.3</ele>
      </trkpt>
      <trkpt lat="47.13936" lon="4.89647">
        <ele>307.5</ele>
      </trkpt>
      <trkpt lat="47.1399" lon="4.89477">
        <ele>298.1</ele>
      </trkpt>
      <trkpt lat="47.13982" lon="4.89199">
        <ele>289.1</ele>
      </trkpt>
      <trkpt lat="47.13963" lon="4.88996">
        <ele>278.8</ele>
      </trkpt>
      <trkpt lat="47.13866" lon="4.88792">
        <ele>281.4</ele>
      </trkpt>
      <trkpt lat="47.13951" lon="4.8869">
        <ele>278.8</ele>
      </trkpt>
      <trkpt lat="47.14024" lon="4.8865">
        <ele>276.1</ele>
      </trkpt>
      <trkpt lat="47.14043" lon="4.88537">
        <ele>276</ele>
      </trkpt>
      <trkpt lat="47.14278" lon="4.88378">
        <ele>278.9</ele>
      </trkpt>
      <trkpt lat="47.1419" lon="4.87913">
        <ele>281.8</ele>
      </trkpt>
      <trkpt lat="47.14251" lon="4.87908">
        <ele>284.8</ele>
      </trkpt>
      <trkpt lat="47.14263" lon="4.8767">
        <ele>286.7</ele>
      </trkpt>
      <trkpt lat="47.14241" lon="4.87652">
        <ele>285.9</ele>
      </trkpt>
      <trkpt lat="47.14276" lon="4.87295">
        <ele>290.6</ele>
      </trkpt>
      <trkpt lat="47.14299" lon="4.87131">
        <ele>290.4</ele>
      </trkpt>
      <trkpt lat="47.14337" lon="4.87006">
        <ele>292.7</ele>
      </trkpt>
      <trkpt lat="47.14306" lon="4.86927">
        <ele>291.6</ele>
      </trkpt>
      <trkpt lat="47.14314" lon="4.8687">
        <ele>292.3</ele>
      </trkpt>
      <trkpt lat="47.14326" lon="4.86814">
        <ele>293.4</ele>
      </trkpt>
      <trkpt lat="47.14441" lon="4.86559">
        <ele>318.7</ele>
      </trkpt>
      <trkpt lat="47.1448" lon="4.86225">
        <ele>347.3</ele>
      </trkpt>
      <trkpt lat="47.14464" lon="4.86145">
        <ele>357.9</ele>
      </trkpt>
      <trkpt lat="47.14372" lon="4.86117">
        <ele>363.4</ele>
      </trkpt>
      <trkpt lat="47.14268" lon="4.85998">
        <ele>365.6</ele>
      </trkpt>
      <trkpt lat="47.14164" lon="4.85681">
        <ele>357.7</ele>
      </trkpt>
      <trkpt lat="47.14164" lon="4.8546">
        <ele>358.5</ele>
      </trkpt>
      <trkpt lat="47.14172" lon="4.85347">
        <ele>364.2</ele>
      </trkpt>
      <trkpt lat="47.14114" lon="4.85148">
        <ele>363.1</ele>
      </trkpt>
      <trkpt lat="47.14029" lon="4.85018">
        <ele>355.3</ele>
      </trkpt>
      <trkpt lat="47.1396" lon="4.8482">
        <ele>347.1</ele>
      </trkpt>
      <trkpt lat="47.13948" lon="4.84774">
        <ele>345.9</ele>
      </trkpt>
      <trkpt lat="47.13971" lon="4.84707">
        <ele>347.1</ele>
      </trkpt>
      <trkpt lat="47.14045" lon="4.84508">
        <ele>347.6</ele>
      </trkpt>
      <trkpt lat="47.14037" lon="4.8444">
        <ele>344.5</ele>
      </trkpt>
      <trkpt lat="47.13994" lon="4.84429">
        <ele>339</ele>
      </trkpt>
      <trkpt lat="47.13948" lon="4.8444">
        <ele>337.1</ele>
      </trkpt>
      <trkpt lat="47.13909" lon="4.84377">
        <ele>333.3</ele>
      </trkpt>
      <trkpt lat="47.13879" lon="4.84344">
        <ele>330</ele>
      </trkpt>
      <trkpt lat="47.13867" lon="4.84333">
        <ele>329</ele>
      </trkpt>
      <trkpt lat="47.13788" lon="4.84269">
        <ele>327</ele>
      </trkpt>
      <trkpt lat="47.1377" lon="4.84266">
        <ele>328</ele>
      </trkpt>
      <trkpt lat="47.13728" lon="4.84285">
        <ele>329</ele>
      </trkpt>
      <trkpt lat="47.13701" lon="4.84261">
        <ele>333</ele>
      </trkpt>
      <trkpt lat="47.13677" lon="4.84282">
        <ele>334</ele>
      </trkpt>
      <trkpt lat="47.13622" lon="4.84246">
        <ele>337</ele>
      </trkpt>
      <trkpt lat="47.13583" lon="4.84229">
        <ele>340</ele>
      </trkpt>
      <trkpt lat="47.1349" lon="4.84201">
        <ele>354</ele>
      </trkpt>
      <trkpt lat="47.13436" lon="4.84179">
        <ele>358</ele>
      </trkpt>
      <trkpt lat="47.13375" lon="4.84139">
        <ele>366</ele>
      </trkpt>
      <trkpt lat="47.13337" lon="4.84081">
        <ele>374</ele>
      </trkpt>
      <trkpt lat="47.13304" lon="4.84019">
        <ele>380</ele>
      </trkpt>
      <trkpt lat="47.13305" lon="4.84006">
        <ele>381</ele>
      </trkpt>
      <trkpt lat="47.13326" lon="4.8398">
        <ele>384</ele>
      </trkpt>
      <trkpt lat="47.13345" lon="4.8397">
        <ele>386</ele>
      </trkpt>
      <trkpt lat="47.13323" lon="4.83938">
        <ele>389</ele>
      </trkpt>
      <trkpt lat="47.13297" lon="4.83915">
        <ele>392</ele>
      </trkpt>
      <trkpt lat="47.13275" lon="4.83908">
        <ele>394</ele>
      </trkpt>
      <trkpt lat="47.13267" lon="4.83918">
        <ele>394</ele>
      </trkpt>
      <trkpt lat="47.13252" lon="4.83962">
        <ele>393</ele>
      </trkpt>
      <trkpt lat="47.13256" lon="4.83922">
        <ele>396</ele>
      </trkpt>
      <trkpt lat="47.13258" lon="4.83869">
        <ele>401</ele>
      </trkpt>
      <trkpt lat="47.13265" lon="4.83857">
        <ele>401</ele>
      </trkpt>
      <trkpt lat="47.13288" lon="4.83854">
        <ele>401</ele>
      </trkpt>
      <trkpt lat="47.13449" lon="4.83936">
        <ele>401</ele>
      </trkpt>
      <trkpt lat="47.13535" lon="4.8393">
        <ele>401</ele>
      </trkpt>
      <trkpt lat="47.13552" lon="4.83911">
        <ele>402</ele>
      </trkpt>
      <trkpt lat="47.13603" lon="4.83766">
        <ele>407</ele>
      </trkpt>
      <trkpt lat="47.13659" lon="4.8363">
        <ele>404</ele>
      </trkpt>
      <trkpt lat="47.13653" lon="4.83611">
        <ele>404</ele>
      </trkpt>
      <trkpt lat="47.13611" lon="4.83566">
        <ele>407</ele>
      </trkpt>
      <trkpt lat="47.13542" lon="4.83544">
        <ele>412</ele>
      </trkpt>
      <trkpt lat="47.13497" lon="4.83564">
        <ele>419</ele>
      </trkpt>
      <trkpt lat="47.1346" lon="4.83559">
        <ele>422</ele>
      </trkpt>
      <trkpt lat="47.13451" lon="4.83572">
        <ele>425</ele>
      </trkpt>
      <trkpt lat="47.1345" lon="4.83583">
        <ele>426</ele>
      </trkpt>
      <trkpt lat="47.13465" lon="4.83655">
        <ele>431</ele>
      </trkpt>
      <trkpt lat="47.13456" lon="4.83668">
        <ele>433</ele>
      </trkpt>
      <trkpt lat="47.13434" lon="4.83663">
        <ele>435</ele>
      </trkpt>
      <trkpt lat="47.1341" lon="4.83648">
        <ele>437</ele>
      </trkpt>
      <trkpt lat="47.13366" lon="4.8364">
        <ele>442</ele>
      </trkpt>
      <trkpt lat="47.13326" lon="4.83618">
        <ele>444</ele>
      </trkpt>
      <trkpt lat="47.13297" lon="4.83595">
        <ele>447</ele>
      </trkpt>
      <trkpt lat="47.13263" lon="4.83427">
        <ele>452.9</ele>
      </trkpt>
      <trkpt lat="47.13132" lon="4.83246">
        <ele>475.9</ele>
      </trkpt>
      <trkpt lat="47.13101" lon="4.83189">
        <ele>477.4</ele>
      </trkpt>
      <trkpt lat="47.13155" lon="4.83008">
        <ele>481.5</ele>
      </trkpt>
      <trkpt lat="47.13147" lon="4.8294">
        <ele>483.9</ele>
      </trkpt>
      <trkpt lat="47.13286" lon="4.82736">
        <ele>487.2</ele>
      </trkpt>
      <trkpt lat="47.13324" lon="4.82815">
        <ele>484.7</ele>
      </trkpt>
      <trkpt lat="47.13447" lon="4.82577">
        <ele>482.7</ele>
      </trkpt>
      <trkpt lat="47.13463" lon="4.82124">
        <ele>493</ele>
      </trkpt>
      <trkpt lat="47.13478" lon="4.82045">
        <ele>495.8</ele>
      </trkpt>
      <trkpt lat="47.13324" lon="4.81625">
        <ele>533.5</ele>
      </trkpt>
      <trkpt lat="47.13325" lon="4.81532">
        <ele>536</ele>
      </trkpt>
      <trkpt lat="47.13548" lon="4.81051">
        <ele>556</ele>
      </trkpt>
      <trkpt lat="47.13047" lon="4.80795">
        <ele>564.1</ele>
      </trkpt>
      <trkpt lat="47.13006" lon="4.80771">
        <ele>563</ele>
      </trkpt>
      <trkpt lat="47.12957" lon="4.80779">
        <ele>559</ele>
      </trkpt>
      <trkpt lat="47.12957" lon="4.80586">
        <ele>561.8</ele>
      </trkpt>
      <trkpt lat="47.12974" lon="4.80434">
        <ele>567.2</ele>
      </trkpt>
      <trkpt lat="47.12957" lon="4.80402">
        <ele>568.4</ele>
      </trkpt>
      <trkpt lat="47.13006" lon="4.80266">
        <ele>572.4</ele>
      </trkpt>
      <trkpt lat="47.13006" lon="4.80202">
        <ele>572.8</ele>
      </trkpt>
      <trkpt lat="47.13001" lon="4.80081">
        <ele>571.3</ele>
      </trkpt>
      <trkpt lat="47.12968" lon="4.79993">
        <ele>573.6</ele>
      </trkpt>
      <trkpt lat="47.12848" lon="4.79737">
        <ele>579.8</ele>
      </trkpt>
      <trkpt lat="47.12788" lon="4.79657">
        <ele>581.2</ele>
      </trkpt>
      <trkpt lat="47.12805" lon="4.79553">
        <ele>582.6</ele>
      </trkpt>
      <trkpt lat="47.1266" lon="4.79561">
        <ele>588.1</ele>
      </trkpt>
      <trkpt lat="47.12622" lon="4.79521">
        <ele>589.8</ele>
      </trkpt>
      <trkpt lat="47.12387" lon="4.79529">
        <ele>601.2</ele>
      </trkpt>
      <trkpt lat="47.1224" lon="4.79457">
        <ele>597.3</ele>
      </trkpt>
      <trkpt lat="47.12169" lon="4.79408">
        <ele>594.6</ele>
      </trkpt>
      <trkpt lat="47.12077" lon="4.79384">
        <ele>588.4</ele>
      </trkpt>
      <trkpt lat="47.11995" lon="4.79368">
        <ele>583.7</ele>
      </trkpt>
      <trkpt lat="47.11919" lon="4.79392">
        <ele>581.6</ele>
      </trkpt>
      <trkpt lat="47.11875" lon="4.79392">
        <ele>579.2</ele>
      </trkpt>
      <trkpt lat="47.11853" lon="4.79368">
        <ele>578.9</ele>
      </trkpt>
      <trkpt lat="47.11755" lon="4.79408">
        <ele>577.2</ele>
      </trkpt>
      <trkpt lat="47.11303" lon="4.80562">
        <ele>537.2</ele>
      </trkpt>
      <trkpt lat="47.11311" lon="4.80691">
        <ele>532.1</ele>
      </trkpt>
      <trkpt lat="47.11346" lon="4.80775">
        <ele>528.3</ele>
      </trkpt>
      <trkpt lat="47.11379" lon="4.80839">
        <ele>525.6</ele>
      </trkpt>
      <trkpt lat="47.11414" lon="4.80887">
        <ele>524.5</ele>
      </trkpt>
      <trkpt lat="47.11409" lon="4.80959">
        <ele>520.8</ele>
      </trkpt>
      <trkpt lat="47.11368" lon="4.81043">
        <ele>515</ele>
      </trkpt>
      <trkpt lat="47.11202" lon="4.81218">
        <ele>492.4</ele>
      </trkpt>
      <trkpt lat="47.11148" lon="4.81331">
        <ele>483.7</ele>
      </trkpt>
      <trkpt lat="47.11113" lon="4.81337">
        <ele>479.4</ele>
      </trkpt>
      <trkpt lat="47.11082" lon="4.81456">
        <ele>471.3</ele>
      </trkpt>
      <trkpt lat="47.11063" lon="4.8149">
        <ele>470.6</ele>
      </trkpt>
      <trkpt lat="47.10971" lon="4.81513">
        <ele>468.8</ele>
      </trkpt>
      <trkpt lat="47.10882" lon="4.81626">
        <ele>454.4</ele>
      </trkpt>
      <trkpt lat="47.10716" lon="4.81858">
        <ele>435.3</ele>
      </trkpt>
      <trkpt lat="47.10566" lon="4.81955">
        <ele>421.9</ele>
      </trkpt>
      <trkpt lat="47.10373" lon="4.82113">
        <ele>409.4</ele>
      </trkpt>
      <trkpt lat="47.103" lon="4.82221">
        <ele>401.3</ele>
      </trkpt>
      <trkpt lat="47.10277" lon="4.82487">
        <ele>397</ele>
      </trkpt>
      <trkpt lat="47.1055" lon="4.82776">
        <ele>407.3</ele>
      </trkpt>
      <trkpt lat="47.10547" lon="4.83048">
        <ele>419.9</ele>
      </trkpt>
      <trkpt lat="47.10547" lon="4.83252">
        <ele>425.2</ele>
      </trkpt>
      <trkpt lat="47.10512" lon="4.8349">
        <ele>430.9</ele>
      </trkpt>
      <trkpt lat="47.10466" lon="4.83478">
        <ele>431.3</ele>
      </trkpt>
      <trkpt lat="47.10412" lon="4.83478">
        <ele>436.1</ele>
      </trkpt>
      <trkpt lat="47.10319" lon="4.83535">
        <ele>447.8</ele>
      </trkpt>
      <trkpt lat="47.1018" lon="4.83518">
        <ele>449.3</ele>
      </trkpt>
      <trkpt lat="47.10092" lon="4.83501">
        <ele>448.1</ele>
      </trkpt>
      <trkpt lat="47.0998" lon="4.83473">
        <ele>443.5</ele>
      </trkpt>
      <trkpt lat="47.0993" lon="4.83433">
        <ele>440.8</ele>
      </trkpt>
      <trkpt lat="47.09849" lon="4.83393">
        <ele>436.4</ele>
      </trkpt>
      <trkpt lat="47.09695" lon="4.83416">
        <ele>441.6</ele>
      </trkpt>
      <trkpt lat="47.09575" lon="4.83359">
        <ele>441.7</ele>
      </trkpt>
      <trkpt lat="47.09564" lon="4.83269">
        <ele>445.7</ele>
      </trkpt>
      <trkpt lat="47.09382" lon="4.83269">
        <ele>442.2</ele>
      </trkpt>
      <trkpt lat="47.0919" lon="4.83342">
        <ele>433.7</ele>
      </trkpt>
      <trkpt lat="47.09028" lon="4.83223">
        <ele>435</ele>
      </trkpt>
      <trkpt lat="47.09012" lon="4.83172">
        <ele>435.8</ele>
      </trkpt>
      <trkpt lat="47.08688" lon="4.83071">
        <ele>424.6</ele>
      </trkpt>
      <trkpt lat="47.08596" lon="4.83059">
        <ele>423.6</ele>
      </trkpt>
      <trkpt lat="47.08426" lon="4.83065">
        <ele>422</ele>
      </trkpt>
      <trkpt lat="47.08354" lon="4.83041">
        <ele>418.3</ele>
      </trkpt>
      <trkpt lat="47.08027" lon="4.83152">
        <ele>390.5</ele>
      </trkpt>
      <trkpt lat="47.0793" lon="4.83142">
        <ele>385.6</ele>
      </trkpt>
      <trkpt lat="47.07962" lon="4.82523">
        <ele>409.7</ele>
      </trkpt>
      <trkpt lat="47.07894" lon="4.82444">
        <ele>407.8</ele>
      </trkpt>
      <trkpt lat="47.07825" lon="4.82449">
        <ele>405.3</ele>
      </trkpt>
      <trkpt lat="47.07696" lon="4.82476">
        <ele>399</ele>
      </trkpt>
      <trkpt lat="47.07545" lon="4.82518">
        <ele>391.9</ele>
      </trkpt>
      <trkpt lat="47.07361" lon="4.82518">
        <ele>382.8</ele>
      </trkpt>
      <trkpt lat="47.07282" lon="4.82518">
        <ele>378</ele>
      </trkpt>
      <trkpt lat="47.07074" lon="4.82555">
        <ele>367</ele>
      </trkpt>
      <trkpt lat="47.06976" lon="4.82603">
        <ele>366</ele>
      </trkpt>
      <trkpt lat="47.06868" lon="4.82513">
        <ele>358</ele>
      </trkpt>
      <trkpt lat="47.06793" lon="4.82487">
        <ele>349</ele>
      </trkpt>
      <trkpt lat="47.06714" lon="4.82386">
        <ele>331</ele>
      </trkpt>
      <trkpt lat="47.06732" lon="4.82148">
        <ele>304</ele>
      </trkpt>
      <trkpt lat="47.06341" lon="4.81959">
        <ele>267</ele>
      </trkpt>
      <trkpt lat="47.06314" lon="4.81899">
        <ele>265</ele>
      </trkpt>
      <trkpt lat="47.06291" lon="4.81879">
        <ele>265</ele>
      </trkpt>
      <trkpt lat="47.06345" lon="4.81705">
        <ele>266</ele>
      </trkpt>
      <trkpt lat="47.06128" lon="4.81532">
        <ele>269</ele>
      </trkpt>
      <trkpt lat="47.06111" lon="4.81361">
        <ele>280</ele>
      </trkpt>
      <trkpt lat="47.06068" lon="4.81192">
        <ele>301</ele>
      </trkpt>
      <trkpt lat="47.0603" lon="4.81207">
        <ele>304</ele>
      </trkpt>
      <trkpt lat="47.06002" lon="4.81247">
        <ele>308</ele>
      </trkpt>
      <trkpt lat="47.05977" lon="4.81332">
        <ele>309</ele>
      </trkpt>
      <trkpt lat="47.05904" lon="4.81388">
        <ele>312</ele>
      </trkpt>
      <trkpt lat="47.05776" lon="4.81404">
        <ele>323</ele>
      </trkpt>
      <trkpt lat="47.05515" lon="4.81472">
        <ele>311</ele>
      </trkpt>
      <trkpt lat="47.05338" lon="4.813">
        <ele>322</ele>
      </trkpt>
      <trkpt lat="47.05261" lon="4.81042">
        <ele>334</ele>
      </trkpt>
      <trkpt lat="47.05282" lon="4.80643">
        <ele>355</ele>
      </trkpt>
      <trkpt lat="47.05157" lon="4.79924">
        <ele>347</ele>
      </trkpt>
      <trkpt lat="47.05021" lon="4.79615">
        <ele>325</ele>
      </trkpt>
      <trkpt lat="47.04917" lon="4.79495">
        <ele>317</ele>
      </trkpt>
      <trkpt lat="47.04791" lon="4.79401">
        <ele>318</ele>
      </trkpt>
      <trkpt lat="47.04602" lon="4.79287">
        <ele>339</ele>
      </trkpt>
      <trkpt lat="47.0451" lon="4.79164">
        <ele>354</ele>
      </trkpt>
      <trkpt lat="47.04311" lon="4.79143">
        <ele>373</ele>
      </trkpt>
      <trkpt lat="47.04156" lon="4.79154">
        <ele>383</ele>
      </trkpt>
      <trkpt lat="47.03894" lon="4.79189">
        <ele>381</ele>
      </trkpt>
      <trkpt lat="47.03856" lon="4.79137">
        <ele>383</ele>
      </trkpt>
      <trkpt lat="47.03847" lon="4.79064">
        <ele>386</ele>
      </trkpt>
      <trkpt lat="47.03832" lon="4.79013">
        <ele>385</ele>
      </trkpt>
      <trkpt lat="47.03718" lon="4.78923">
        <ele>387</ele>
      </trkpt>
      <trkpt lat="47.03674" lon="4.78905">
        <ele>390</ele>
      </trkpt>
      <trkpt lat="47.03478" lon="4.78892">
        <ele>391</ele>
      </trkpt>
      <trkpt lat="47.03375" lon="4.78862">
        <ele>388</ele>
      </trkpt>
      <trkpt lat="47.03334" lon="4.7888">
        <ele>386</ele>
      </trkpt>
      <trkpt lat="47.03182" lon="4.78987">
        <ele>381</ele>
      </trkpt>
      <trkpt lat="47.031" lon="4.7906">
        <ele>380</ele>
      </trkpt>
      <trkpt lat="47.03033" lon="4.79094">
        <ele>381</ele>
      </trkpt>
      <trkpt lat="47.02986" lon="4.79116">
        <ele>385</ele>
      </trkpt>
      <trkpt lat="47.02939" lon="4.79159">
        <ele>385</ele>
      </trkpt>
      <trkpt lat="47.02869" lon="4.79193">
        <ele>383</ele>
      </trkpt>
      <trkpt lat="47.0284" lon="4.79223">
        <ele>383</ele>
      </trkpt>
      <trkpt lat="47.02813" lon="4.7927">
        <ele>380</ele>
      </trkpt>
      <trkpt lat="47.02787" lon="4.79287">
        <ele>379</ele>
      </trkpt>
      <trkpt lat="47.02737" lon="4.79279">
        <ele>374</ele>
      </trkpt>
      <trkpt lat="47.02725" lon="4.79282">
        <ele>373</ele>
      </trkpt>
      <trkpt lat="47.02703" lon="4.79269">
        <ele>372</ele>
      </trkpt>
      <trkpt lat="47.02639" lon="4.79329">
        <ele>367</ele>
      </trkpt>
      <trkpt lat="47.02606" lon="4.79337">
        <ele>365</ele>
      </trkpt>
      <trkpt lat="47.02554" lon="4.79326">
        <ele>361</ele>
      </trkpt>
      <trkpt lat="47.02515" lon="4.79324">
        <ele>358</ele>
      </trkpt>
      <trkpt lat="47.02509" lon="4.79292">
        <ele>360</ele>
        <time>2019-09-17T08:49:52Z</time>
      </trkpt>
      <trkpt lat="47.02468" lon="4.79207">
        <ele>362</ele>
        <time>2019-09-17T08:50:17Z</time>
      </trkpt>
      <trkpt lat="47.02459" lon="4.79177">
        <ele>361</ele>
        <time>2019-09-17T08:50:26Z</time>
      </trkpt>
      <trkpt lat="47.02459" lon="4.79136">
        <ele>362</ele>
        <time>2019-09-17T08:50:39Z</time>
      </trkpt>
      <trkpt lat="47.02445" lon="4.79091">
        <ele>362</ele>
        <time>2019-09-17T08:51:09Z</time>
      </trkpt>
      <trkpt lat="47.02434" lon="4.79086">
        <ele>362</ele>
        <time>2019-09-17T08:51:36Z</time>
      </trkpt>
      <trkpt lat="47.02418" lon="4.79086">
        <ele>363</ele>
        <time>2019-09-17T08:51:43Z</time>
      </trkpt>
      <trkpt lat="47.02396" lon="4.79096">
        <ele>363</ele>
        <time>2019-09-17T08:51:56Z</time>
      </trkpt>
      <trkpt lat="47.02375" lon="4.79095">
        <ele>365</ele>
        <time>2019-09-17T08:52:13Z</time>
      </trkpt>
      <trkpt lat="47.02359" lon="4.79081">
        <ele>369</ele>
        <time>2019-09-17T08:52:21Z</time>
      </trkpt>
      <trkpt lat="47.02348" lon="4.79086">
        <ele>370</ele>
        <time>2019-09-17T08:52:59Z</time>
      </trkpt>
      <trkpt lat="47.02338" lon="4.79103">
        <ele>370</ele>
        <time>2019-09-17T08:53:13Z</time>
      </trkpt>
      <trkpt lat="47.02297" lon="4.79138">
        <ele>372</ele>
        <time>2019-09-17T08:54:55Z</time>
      </trkpt>
      <trkpt lat="47.02203" lon="4.79215">
        <ele>370</ele>
        <time>2019-09-17T08:55:31Z</time>
      </trkpt>
      <trkpt lat="47.02187" lon="4.79222">
        <ele>370</ele>
        <time>2019-09-17T08:55:38Z</time>
      </trkpt>
      <trkpt lat="47.02171" lon="4.79214">
        <ele>371</ele>
        <time>2019-09-17T08:55:46Z</time>
      </trkpt>
      <trkpt lat="47.02148" lon="4.79189">
        <ele>371</ele>
        <time>2019-09-17T08:56:00Z</time>
      </trkpt>
      <trkpt lat="47.0214" lon="4.79175">
        <ele>372</ele>
        <time>2019-09-17T08:56:06Z</time>
      </trkpt>
      <trkpt lat="47.02141" lon="4.79162">
        <ele>372</ele>
        <time>2019-09-17T08:56:11Z</time>
      </trkpt>
      <trkpt lat="47.02156" lon="4.79128">
        <ele>374</ele>
        <time>2019-09-17T08:56:23Z</time>
      </trkpt>
      <trkpt lat="47.02133" lon="4.79086">
        <ele>376</ele>
        <time>2019-09-17T08:56:39Z</time>
      </trkpt>
      <trkpt lat="47.02107" lon="4.79057">
        <ele>376</ele>
        <time>2019-09-17T08:56:50Z</time>
      </trkpt>
      <trkpt lat="47.02098" lon="4.79055">
        <ele>376</ele>
        <time>2019-09-17T08:56:53Z</time>
      </trkpt>
      <trkpt lat="47.02076" lon="4.79063">
        <ele>374</ele>
        <time>2019-09-17T08:56:58Z</time>
      </trkpt>
      <trkpt lat="47.02065" lon="4.79072">
        <ele>372</ele>
        <time>2019-09-17T08:57:08Z</time>
      </trkpt>
      <trkpt lat="47.02077" lon="4.79038">
        <ele>375</ele>
        <time>2019-09-17T08:57:41Z</time>
      </trkpt>
      <trkpt lat="47.02078" lon="4.79026">
        <ele>376</ele>
        <time>2019-09-17T08:57:54Z</time>
      </trkpt>
      <trkpt lat="47.02065" lon="4.79032">
        <ele>374</ele>
        <time>2019-09-17T08:58:17Z</time>
      </trkpt>
      <trkpt lat="47.02048" lon="4.79045">
        <ele>371</ele>
        <time>2019-09-17T08:58:34Z</time>
      </trkpt>
      <trkpt lat="47.02031" lon="4.79052">
        <ele>369</ele>
        <time>2019-09-17T08:59:15Z</time>
      </trkpt>
      <trkpt lat="47.01997" lon="4.79056">
        <ele>365</ele>
        <time>2019-09-17T09:00:09Z</time>
      </trkpt>
      <trkpt lat="47.01976" lon="4.79078">
        <ele>364</ele>
        <time>2019-09-17T09:00:20Z</time>
      </trkpt>
      <trkpt lat="47.01939" lon="4.79214">
        <ele>362</ele>
        <time>2019-09-17T09:00:54Z</time>
      </trkpt>
      <trkpt lat="47.01918" lon="4.79324">
        <ele>360</ele>
        <time>2019-09-17T09:01:24Z</time>
      </trkpt>
      <trkpt lat="47.01913" lon="4.79354">
        <ele>359</ele>
        <time>2019-09-17T09:02:43Z</time>
      </trkpt>
      <trkpt lat="47.01912" lon="4.79385">
        <ele>358</ele>
        <time>2019-09-17T09:02:52Z</time>
      </trkpt>
      <trkpt lat="47.01928" lon="4.79432">
        <ele>359</ele>
        <time>2019-09-17T09:03:05Z</time>
      </trkpt>
      <trkpt lat="47.0198" lon="4.79508">
        <ele>358</ele>
        <time>2019-09-17T09:03:33Z</time>
      </trkpt>
      <trkpt lat="47.01968" lon="4.7952">
        <ele>357</ele>
        <time>2019-09-17T09:03:40Z</time>
      </trkpt>
      <trkpt lat="47.01915" lon="4.79518">
        <ele>353</ele>
        <time>2019-09-17T09:04:00Z</time>
      </trkpt>
      <trkpt lat="47.01902" lon="4.79527">
        <ele>350</ele>
        <time>2019-09-17T09:04:05Z</time>
      </trkpt>
      <trkpt lat="47.01897" lon="4.79535">
        <ele>349</ele>
        <time>2019-09-17T09:04:09Z</time>
      </trkpt>
      <trkpt lat="47.01888" lon="4.79536">
        <ele>348</ele>
        <time>2019-09-17T09:06:42Z</time>
      </trkpt>
      <trkpt lat="47.0189" lon="4.79556">
        <ele>346</ele>
        <time>2019-09-17T09:07:33Z</time>
      </trkpt>
      <trkpt lat="47.01884" lon="4.79571">
        <ele>344</ele>
        <time>2019-09-17T09:07:40Z</time>
      </trkpt>
      <trkpt lat="47.01869" lon="4.79594">
        <ele>340</ele>
        <time>2019-09-17T09:07:51Z</time>
      </trkpt>
      <trkpt lat="47.01847" lon="4.79619">
        <ele>334</ele>
        <time>2019-09-17T09:08:02Z</time>
      </trkpt>
      <trkpt lat="47.01822" lon="4.7964">
        <ele>330</ele>
        <time>2019-09-17T09:08:14Z</time>
      </trkpt>
      <trkpt lat="47.01761" lon="4.79701">
        <ele>321</ele>
        <time>2019-09-17T09:08:42Z</time>
      </trkpt>
      <trkpt lat="47.01725" lon="4.7974">
        <ele>316</ele>
        <time>2019-09-17T09:09:00Z</time>
      </trkpt>
      <trkpt lat="47.01695" lon="4.79765">
        <ele>313</ele>
        <time>2019-09-17T09:09:14Z</time>
      </trkpt>
      <trkpt lat="47.01671" lon="4.79776">
        <ele>310</ele>
        <time>2019-09-17T09:09:20Z</time>
      </trkpt>
      <trkpt lat="47.01651" lon="4.79783">
        <ele>308</ele>
        <time>2019-09-17T09:09:25Z</time>
      </trkpt>
      <trkpt lat="47.01642" lon="4.79782">
        <ele>307</ele>
        <time>2019-09-17T09:09:27Z</time>
      </trkpt>
      <trkpt lat="47.01566" lon="4.79736">
        <ele>301</ele>
        <time>2019-09-17T09:09:45Z</time>
      </trkpt>
      <trkpt lat="47.01511" lon="4.79707">
        <ele>297</ele>
        <time>2019-09-17T09:09:58Z</time>
      </trkpt>
      <trkpt lat="47.01483" lon="4.79702">
        <ele>294</ele>
        <time>2019-09-17T09:10:04Z</time>
      </trkpt>
      <trkpt lat="47.01456" lon="4.79701">
        <ele>291</ele>
        <time>2019-09-17T09:10:10Z</time>
      </trkpt>
      <trkpt lat="47.01445" lon="4.79693">
        <ele>290</ele>
        <time>2019-09-17T09:10:13Z</time>
      </trkpt>
      <trkpt lat="47.01426" lon="4.79687">
        <ele>288</ele>
        <time>2019-09-17T09:10:19Z</time>
      </trkpt>
      <trkpt lat="47.01409" lon="4.79689">
        <ele>285</ele>
        <time>2019-09-17T09:10:24Z</time>
      </trkpt>
      <trkpt lat="47.014" lon="4.79702">
        <ele>284</ele>
        <time>2019-09-17T09:10:27Z</time>
      </trkpt>
      <trkpt lat="47.01397" lon="4.79712">
        <ele>283</ele>
        <time>2019-09-17T09:10:29Z</time>
      </trkpt>
      <trkpt lat="47.01392" lon="4.79718">
        <ele>282</ele>
        <time>2019-09-17T09:10:31Z</time>
      </trkpt>
      <trkpt lat="47.01378" lon="4.79725">
        <ele>280</ele>
        <time>2019-09-17T09:10:35Z</time>
      </trkpt>
      <trkpt lat="47.01369" lon="4.79723">
        <ele>279</ele>
        <time>2019-09-17T09:10:38Z</time>
      </trkpt>
      <trkpt lat="47.01335" lon="4.79668">
        <ele>273</ele>
        <time>2019-09-17T09:10:51Z</time>
      </trkpt>
      <trkpt lat="47.01323" lon="4.79633">
        <ele>270</ele>
        <time>2019-09-17T09:10:58Z</time>
      </trkpt>
      <trkpt lat="47.01278" lon="4.79566">
        <ele>263</ele>
        <time>2019-09-17T09:11:15Z</time>
      </trkpt>
      <trkpt lat="47.0127" lon="4.79543">
        <ele>262</ele>
        <time>2019-09-17T09:11:19Z</time>
      </trkpt>
      <trkpt lat="47.0125" lon="4.79521">
        <ele>261</ele>
        <time>2019-09-17T09:11:25Z</time>
      </trkpt>
      <trkpt lat="47.01217" lon="4.79503">
        <ele>259</ele>
        <time>2019-09-17T09:11:32Z</time>
      </trkpt>
      <trkpt lat="47.01112" lon="4.79389">
        <ele>254</ele>
        <time>2019-09-17T09:12:02Z</time>
      </trkpt>
      <trkpt lat="47.01075" lon="4.79358">
        <ele>253</ele>
        <time>2019-09-17T09:12:17Z</time>
      </trkpt>
      <trkpt lat="47.01037" lon="4.79283">
        <ele>252</ele>
        <time>2019-09-17T09:12:37Z</time>
      </trkpt>
      <trkpt lat="47.01007" lon="4.79192">
        <ele>252</ele>
        <time>2019-09-17T09:12:59Z</time>
      </trkpt>
      <trkpt lat="47.00975" lon="4.79114">
        <ele>255</ele>
        <time>2019-09-17T09:13:20Z</time>
      </trkpt>
      <trkpt lat="47.0096" lon="4.79059">
        <ele>261</ele>
        <time>2019-09-17T09:13:36Z</time>
      </trkpt>
      <trkpt lat="47.00958" lon="4.78999">
        <ele>267</ele>
        <time>2019-09-17T09:14:01Z</time>
      </trkpt>
      <trkpt lat="47.00967" lon="4.78896">
        <ele>275</ele>
        <time>2019-09-17T09:14:49Z</time>
      </trkpt>
      <trkpt lat="47.00973" lon="4.78864">
        <ele>278</ele>
        <time>2019-09-17T09:15:04Z</time>
      </trkpt>
      <trkpt lat="47.00979" lon="4.78783">
        <ele>285</ele>
        <time>2019-09-17T09:15:44Z</time>
      </trkpt>
      <trkpt lat="47.0098" lon="4.78697">
        <ele>291</ele>
        <time>2019-09-17T09:16:21Z</time>
      </trkpt>
      <trkpt lat="47.00984" lon="4.78657">
        <ele>293</ele>
        <time>2019-09-17T09:16:38Z</time>
      </trkpt>
      <trkpt lat="47.00993" lon="4.78614">
        <ele>296</ele>
        <time>2019-09-17T09:16:55Z</time>
      </trkpt>
      <trkpt lat="47.01021" lon="4.78533">
        <ele>302</ele>
        <time>2019-09-17T09:17:28Z</time>
      </trkpt>
      <trkpt lat="47.0104" lon="4.78486">
        <ele>305</ele>
        <time>2019-09-17T09:17:48Z</time>
      </trkpt>
      <trkpt lat="47.01052" lon="4.78448">
        <ele>307</ele>
        <time>2019-09-17T09:18:04Z</time>
      </trkpt>
      <trkpt lat="47.01052" lon="4.78425">
        <ele>309</ele>
        <time>2019-09-17T09:18:13Z</time>
      </trkpt>
      <trkpt lat="47.01043" lon="4.78397">
        <ele>313</ele>
        <time>2019-09-17T09:18:26Z</time>
      </trkpt>
      <trkpt lat="47.01031" lon="4.78361">
        <ele>318</ele>
        <time>2019-09-17T09:18:43Z</time>
      </trkpt>
      <trkpt lat="47.01023" lon="4.78331">
        <ele>322</ele>
        <time>2019-09-17T09:18:59Z</time>
      </trkpt>
      <trkpt lat="47.01016" lon="4.78327">
        <ele>323</ele>
        <time>2019-09-17T09:19:28Z</time>
      </trkpt>
      <trkpt lat="47.01039" lon="4.78265">
        <ele>325</ele>
        <time>2019-09-17T09:22:23Z</time>
      </trkpt>
      <trkpt lat="47.01057" lon="4.78199">
        <ele>329</ele>
        <time>2019-09-17T09:22:55Z</time>
      </trkpt>
      <trkpt lat="47.01069" lon="4.78166">
        <ele>333</ele>
        <time>2019-09-17T09:23:10Z</time>
      </trkpt>
      <trkpt lat="47.0108" lon="4.78127">
        <ele>338</ele>
        <time>2019-09-17T09:23:28Z</time>
      </trkpt>
      <trkpt lat="47.01087" lon="4.78082">
        <ele>344</ele>
        <time>2019-09-17T09:23:47Z</time>
      </trkpt>
      <trkpt lat="47.01089" lon="4.78048">
        <ele>348</ele>
        <time>2019-09-17T09:24:04Z</time>
      </trkpt>
      <trkpt lat="47.01088" lon="4.77995">
        <ele>353</ele>
        <time>2019-09-17T09:24:31Z</time>
      </trkpt>
      <trkpt lat="47.0109" lon="4.77975">
        <ele>355</ele>
        <time>2019-09-17T09:24:41Z</time>
      </trkpt>
      <trkpt lat="47.01087" lon="4.77919">
        <ele>361</ele>
        <time>2019-09-17T09:25:11Z</time>
      </trkpt>
      <trkpt lat="47.01087" lon="4.77885">
        <ele>364</ele>
        <time>2019-09-17T09:25:30Z</time>
      </trkpt>
      <trkpt lat="47.01065" lon="4.77808">
        <ele>368</ele>
        <time>2019-09-17T09:26:06Z</time>
      </trkpt>
      <trkpt lat="47.01047" lon="4.7778">
        <ele>370</ele>
        <time>2019-09-17T09:26:24Z</time>
      </trkpt>
      <trkpt lat="47.01025" lon="4.77767">
        <ele>372</ele>
        <time>2019-09-17T09:26:38Z</time>
      </trkpt>
      <trkpt lat="47.0099" lon="4.77727">
        <ele>377</ele>
        <time>2019-09-17T09:27:04Z</time>
      </trkpt>
      <trkpt lat="47.00968" lon="4.77723">
        <ele>380</ele>
        <time>2019-09-17T09:27:18Z</time>
      </trkpt>
      <trkpt lat="47.00965" lon="4.77658">
        <ele>383</ele>
        <time>2019-09-17T09:27:40Z</time>
      </trkpt>
      <trkpt lat="47.0092" lon="4.77557">
        <ele>384</ele>
        <time>2019-09-17T09:28:12Z</time>
      </trkpt>
      <trkpt lat="47.00895" lon="4.77412">
        <ele>385</ele>
        <time>2019-09-17T09:28:44Z</time>
      </trkpt>
      <trkpt lat="47.00903" lon="4.7721">
        <ele>387</ele>
        <time>2019-09-17T09:29:22Z</time>
      </trkpt>
      <trkpt lat="47.00934" lon="4.77093">
        <ele>387</ele>
        <time>2019-09-17T09:29:47Z</time>
      </trkpt>
      <trkpt lat="47.00937" lon="4.77043">
        <ele>388</ele>
        <time>2019-09-17T09:30:00Z</time>
      </trkpt>
      <trkpt lat="47.00959" lon="4.76939">
        <ele>383</ele>
        <time>2019-09-17T09:30:29Z</time>
      </trkpt>
      <trkpt lat="47.00946" lon="4.76909">
        <ele>383</ele>
        <time>2019-09-17T09:30:40Z</time>
      </trkpt>
      <trkpt lat="47.00875" lon="4.76896">
        <ele>387</ele>
        <time>2019-09-17T09:31:09Z</time>
      </trkpt>
      <trkpt lat="47.00756" lon="4.7691">
        <ele>389</ele>
        <time>2019-09-17T09:31:52Z</time>
      </trkpt>
      <trkpt lat="47.00737" lon="4.76925">
        <ele>389</ele>
        <time>2019-09-17T09:32:05Z</time>
      </trkpt>
      <trkpt lat="47.00709" lon="4.77046">
        <ele>389</ele>
        <time>2019-09-17T09:32:43Z</time>
      </trkpt>
      <trkpt lat="47.00683" lon="4.77222">
        <ele>388</ele>
        <time>2019-09-17T09:33:23Z</time>
      </trkpt>
      <trkpt lat="47.00654" lon="4.77298">
        <ele>386</ele>
        <time>2019-09-17T09:33:38Z</time>
      </trkpt>
      <trkpt lat="47.00624" lon="4.77426">
        <ele>386</ele>
        <time>2019-09-17T09:34:01Z</time>
      </trkpt>
      <trkpt lat="47.00614" lon="4.77446">
        <ele>386</ele>
        <time>2019-09-17T09:34:05Z</time>
      </trkpt>
      <trkpt lat="47.00549" lon="4.77556">
        <ele>380</ele>
        <time>2019-09-17T09:34:30Z</time>
      </trkpt>
      <trkpt lat="47.00541" lon="4.77538">
        <ele>380</ele>
        <time>2019-09-17T09:35:24Z</time>
      </trkpt>
      <trkpt lat="47.0052" lon="4.77483">
        <ele>379</ele>
        <time>2019-09-17T09:35:37Z</time>
      </trkpt>
      <trkpt lat="47.00454" lon="4.77471">
        <ele>374</ele>
        <time>2019-09-17T09:35:51Z</time>
      </trkpt>
      <trkpt lat="47.00447" lon="4.77467">
        <ele>374</ele>
        <time>2019-09-17T09:35:54Z</time>
      </trkpt>
      <trkpt lat="47.0045" lon="4.77444">
        <ele>374</ele>
        <time>2019-09-17T09:36:00Z</time>
      </trkpt>
      <trkpt lat="47.00475" lon="4.774">
        <ele>375</ele>
        <time>2019-09-17T09:36:14Z</time>
      </trkpt>
      <trkpt lat="47.00488" lon="4.77342">
        <ele>375</ele>
        <time>2019-09-17T09:36:27Z</time>
      </trkpt>
      <trkpt lat="47.00499" lon="4.77201">
        <ele>374</ele>
        <time>2019-09-17T09:36:55Z</time>
      </trkpt>
      <trkpt lat="47.00506" lon="4.7716">
        <ele>374</ele>
        <time>2019-09-17T09:37:06Z</time>
      </trkpt>
      <trkpt lat="47.00505" lon="4.77057">
        <ele>374</ele>
        <time>2019-09-17T09:37:35Z</time>
      </trkpt>
      <trkpt lat="47.00489" lon="4.77021">
        <ele>373</ele>
        <time>2019-09-17T09:37:45Z</time>
      </trkpt>
      <trkpt lat="47.00451" lon="4.76965">
        <ele>373</ele>
        <time>2019-09-17T09:38:07Z</time>
      </trkpt>
      <trkpt lat="47.00427" lon="4.76908">
        <ele>373</ele>
        <time>2019-09-17T09:38:23Z</time>
      </trkpt>
      <trkpt lat="47.00405" lon="4.76893">
        <ele>371</ele>
        <time>2019-09-17T09:38:35Z</time>
      </trkpt>
      <trkpt lat="47.00383" lon="4.76894">
        <ele>369</ele>
        <time>2019-09-17T09:38:43Z</time>
      </trkpt>
      <trkpt lat="47.00355" lon="4.76871">
        <ele>367</ele>
        <time>2019-09-17T09:39:17Z</time>
      </trkpt>
      <trkpt lat="47.00353" lon="4.76859">
        <ele>367</ele>
        <time>2019-09-17T09:39:22Z</time>
      </trkpt>
      <trkpt lat="47.00358" lon="4.76807">
        <ele>363</ele>
        <time>2019-09-17T09:39:36Z</time>
      </trkpt>
      <trkpt lat="47.00364" lon="4.76757">
        <ele>358</ele>
        <time>2019-09-17T09:39:47Z</time>
      </trkpt>
      <trkpt lat="47.00372" lon="4.76736">
        <ele>356</ele>
        <time>2019-09-17T09:39:55Z</time>
      </trkpt>
      <trkpt lat="47.00381" lon="4.76726">
        <ele>356</ele>
        <time>2019-09-17T09:40:00Z</time>
      </trkpt>
      <trkpt lat="47.0039" lon="4.76698">
        <ele>353</ele>
        <time>2019-09-17T09:40:10Z</time>
      </trkpt>
      <trkpt lat="47.00404" lon="4.76648">
        <ele>346</ele>
        <time>2019-09-17T09:40:34Z</time>
      </trkpt>
      <trkpt lat="47.00419" lon="4.76603">
        <ele>342</ele>
        <time>2019-09-17T09:41:42Z</time>
      </trkpt>
      <trkpt lat="47.00435" lon="4.76564">
        <ele>337</ele>
        <time>2019-09-17T09:41:56Z</time>
      </trkpt>
      <trkpt lat="47.00441" lon="4.76545">
        <ele>335</ele>
        <time>2019-09-17T09:42:03Z</time>
      </trkpt>
      <trkpt lat="47.00458" lon="4.7651">
        <ele>332</ele>
        <time>2019-09-17T09:42:20Z</time>
      </trkpt>
      <trkpt lat="47.00466" lon="4.76508">
        <ele>332</ele>
        <time>2019-09-17T09:42:31Z</time>
      </trkpt>
      <trkpt lat="47.00471" lon="4.76472">
        <ele>328</ele>
        <time>2019-09-17T09:43:32Z</time>
      </trkpt>
      <trkpt lat="47.00475" lon="4.7646">
        <ele>326</ele>
        <time>2019-09-17T09:43:37Z</time>
      </trkpt>
      <trkpt lat="47.00467" lon="4.76368">
        <ele>325</ele>
        <time>2019-09-17T09:45:13Z</time>
      </trkpt>
      <trkpt lat="47.0048" lon="4.76316">
        <ele>329</ele>
        <time>2019-09-17T09:45:28Z</time>
      </trkpt>
      <trkpt lat="47.00464" lon="4.76296">
        <ele>330</ele>
        <time>2019-09-17T09:45:37Z</time>
      </trkpt>
      <trkpt lat="47.00456" lon="4.76275">
        <ele>330</ele>
        <time>2019-09-17T09:45:49Z</time>
      </trkpt>
      <trkpt lat="47.00471" lon="4.76229">
        <ele>334</ele>
        <time>2019-09-17T09:47:17Z</time>
      </trkpt>
      <trkpt lat="47.00486" lon="4.76167">
        <ele>337</ele>
        <time>2019-09-17T09:47:33Z</time>
      </trkpt>
      <trkpt lat="47.00498" lon="4.76021">
        <ele>341</ele>
        <time>2019-09-17T09:48:06Z</time>
      </trkpt>
      <trkpt lat="47.0051" lon="4.75842">
        <ele>342</ele>
        <time>2019-09-17T09:48:36Z</time>
      </trkpt>
      <trkpt lat="47.00499" lon="4.75622">
        <ele>343</ele>
        <time>2019-09-17T09:49:11Z</time>
      </trkpt>
      <trkpt lat="47.00459" lon="4.75351">
        <ele>345</ele>
        <time>2019-09-17T09:49:56Z</time>
      </trkpt>
      <trkpt lat="47.00458" lon="4.75313">
        <ele>348</ele>
        <time>2019-09-17T09:50:02Z</time>
      </trkpt>
      <trkpt lat="47.00442" lon="4.75239">
        <ele>352</ele>
        <time>2019-09-17T09:50:16Z</time>
      </trkpt>
      <trkpt lat="47.00425" lon="4.75115">
        <ele>357</ele>
        <time>2019-09-17T09:50:41Z</time>
      </trkpt>
      <trkpt lat="47.00417" lon="4.75095">
        <ele>356</ele>
        <time>2019-09-17T09:50:47Z</time>
      </trkpt>
      <trkpt lat="47.00413" lon="4.74833">
        <ele>357.2</ele>
      </trkpt>
      <trkpt lat="47.00424" lon="4.74665">
        <ele>366.6</ele>
      </trkpt>
      <trkpt lat="47.00364" lon="4.74464">
        <ele>371.9</ele>
      </trkpt>
      <trkpt lat="47.00386" lon="4.7432">
        <ele>382.9</ele>
      </trkpt>
      <trkpt lat="47.00386" lon="4.74264">
        <ele>384.5</ele>
      </trkpt>
      <trkpt lat="47.00342" lon="4.74112">
        <ele>391.3</ele>
      </trkpt>
      <trkpt lat="47.00359" lon="4.7404">
        <ele>393.2</ele>
      </trkpt>
      <trkpt lat="47.00342" lon="4.73967">
        <ele>393.2</ele>
      </trkpt>
      <trkpt lat="47.00293" lon="4.73855">
        <ele>396.8</ele>
      </trkpt>
      <trkpt lat="47.00217" lon="4.73863">
        <ele>405</ele>
      </trkpt>
      <trkpt lat="47.00173" lon="4.73871">
        <ele>406.7</ele>
      </trkpt>
      <trkpt lat="47.0008" lon="4.73831">
        <ele>415.5</ele>
      </trkpt>
      <trkpt lat="46.99993" lon="4.73823">
        <ele>421.6</ele>
      </trkpt>
      <trkpt lat="46.999" lon="4.73879">
        <ele>417.3</ele>
      </trkpt>
      <trkpt lat="46.99862" lon="4.74184">
        <ele>416.3</ele>
      </trkpt>
      <trkpt lat="46.99506" lon="4.74384">
        <ele>388</ele>
      </trkpt>
      <trkpt lat="46.99392" lon="4.7448">
        <ele>377.9</ele>
      </trkpt>
      <trkpt lat="46.99293" lon="4.74488">
        <ele>359.7</ele>
      </trkpt>
      <trkpt lat="46.99233" lon="4.74608">
        <ele>346.3</ele>
      </trkpt>
      <trkpt lat="46.99102" lon="4.75033">
        <ele>334.3</ele>
      </trkpt>
      <trkpt lat="46.99042" lon="4.75089">
        <ele>321.3</ele>
      </trkpt>
      <trkpt lat="46.98948" lon="4.75095">
        <ele>294</ele>
        <time>2019-09-17T09:57:45Z</time>
      </trkpt>
      <trkpt lat="46.98845" lon="4.75067">
        <ele>275</ele>
      </trkpt>
      <trkpt lat="46.9875" lon="4.75061">
        <ele>264</ele>
      </trkpt>
      <trkpt lat="46.98693" lon="4.75041">
        <ele>263</ele>
        <time>2019-04-14T08:57:23Z</time>
      </trkpt>
      <trkpt lat="46.98674" lon="4.74959">
        <ele>262</ele>
        <time>2019-04-14T08:57:33Z</time>
      </trkpt>
      <trkpt lat="46.98632" lon="4.74915">
        <ele>260</ele>
        <time>2019-04-14T08:57:35Z</time>
      </trkpt>
      <trkpt lat="46.98624" lon="4.74899">
        <ele>260</ele>
        <time>2019-04-14T08:57:40Z</time>
      </trkpt>
      <trkpt lat="46.98622" lon="4.7488">
        <ele>261</ele>
        <time>2019-04-14T08:58:13Z</time>
      </trkpt>
      <trkpt lat="46.98632" lon="4.74761">
        <ele>262</ele>
        <time>2019-04-14T08:58:55Z</time>
      </trkpt>
      <trkpt lat="46.98626" lon="4.74632">
        <ele>262</ele>
        <time>2019-04-14T08:59:01Z</time>
      </trkpt>
      <trkpt lat="46.9861" lon="4.74437">
        <ele>262</ele>
        <time>2019-04-14T08:59:16Z</time>
      </trkpt>
      <trkpt lat="46.98625" lon="4.74328">
        <ele>263</ele>
        <time>2019-04-14T08:59:36Z</time>
      </trkpt>
      <trkpt lat="46.98607" lon="4.74224">
        <ele>263</ele>
        <time>2019-04-14T08:59:42Z</time>
      </trkpt>
      <trkpt lat="46.98602" lon="4.74211">
        <ele>263</ele>
        <time>2019-04-14T08:59:54Z</time>
      </trkpt>
      <trkpt lat="46.98532" lon="4.74144">
        <ele>264</ele>
        <time>2019-04-14T09:00:02Z</time>
      </trkpt>
      <trkpt lat="46.98493" lon="4.74134">
        <ele>264</ele>
        <time>2019-04-14T09:00:06Z</time>
      </trkpt>
      <trkpt lat="46.9848" lon="4.74104">
        <ele>264</ele>
        <time>2019-04-14T09:00:18Z</time>
      </trkpt>
      <trkpt lat="46.98463" lon="4.74024">
        <ele>265</ele>
        <time>2019-04-14T09:00:26Z</time>
      </trkpt>
      <trkpt lat="46.98442" lon="4.73986">
        <ele>265</ele>
        <time>2019-04-14T09:00:43Z</time>
      </trkpt>
      <trkpt lat="46.98376" lon="4.7399">
        <ele>269</ele>
        <time>2019-04-14T09:01:05Z</time>
      </trkpt>
      <trkpt lat="46.98333" lon="4.73914">
        <ele>271</ele>
        <time>2019-04-14T09:01:36Z</time>
      </trkpt>
      <trkpt lat="46.98254" lon="4.73799">
        <ele>276</ele>
        <time>2019-04-14T09:02:11Z</time>
      </trkpt>
      <trkpt lat="46.98247" lon="4.73781">
        <ele>276</ele>
        <time>2019-04-14T09:08:20Z</time>
      </trkpt>
      <trkpt lat="46.98236" lon="4.73715">
        <ele>276</ele>
        <time>2019-04-14T09:08:31Z</time>
      </trkpt>
      <trkpt lat="46.98223" lon="4.73699">
        <ele>279</ele>
        <time>2019-04-14T09:08:55Z</time>
      </trkpt>
      <trkpt lat="46.98204" lon="4.73682">
        <ele>281</ele>
        <time>2019-04-14T09:09:22Z</time>
      </trkpt>
      <trkpt lat="46.98192" lon="4.73675">
        <ele>281</ele>
        <time>2019-04-14T09:09:34Z</time>
      </trkpt>
      <trkpt lat="46.98131" lon="4.73679">
        <ele>285</ele>
        <time>2019-04-14T09:10:26Z</time>
      </trkpt>
      <trkpt lat="46.98105" lon="4.73686">
        <ele>286</ele>
        <time>2019-04-14T09:10:46Z</time>
      </trkpt>
      <trkpt lat="46.97971" lon="4.7367">
        <ele>292</ele>
        <time>2019-04-14T09:11:25Z</time>
      </trkpt>
      <trkpt lat="46.97928" lon="4.73662">
        <ele>293</ele>
        <time>2019-04-14T09:11:29Z</time>
      </trkpt>
      <trkpt lat="46.97856" lon="4.73642">
        <ele>296</ele>
        <time>2019-04-14T09:11:42Z</time>
      </trkpt>
      <trkpt lat="46.97849" lon="4.73637">
        <ele>297</ele>
        <time>2019-04-14T09:12:02Z</time>
      </trkpt>
      <trkpt lat="46.97837" lon="4.7362">
        <ele>299</ele>
        <time>2019-04-14T09:12:18Z</time>
      </trkpt>
      <trkpt lat="46.97814" lon="4.73616">
        <ele>302</ele>
        <time>2019-04-14T09:12:46Z</time>
      </trkpt>
      <trkpt lat="46.97799" lon="4.73609">
        <ele>304</ele>
        <time>2019-04-14T09:13:23Z</time>
      </trkpt>
      <trkpt lat="46.97775" lon="4.73632">
        <ele>306</ele>
        <time>2019-04-14T09:13:40Z</time>
      </trkpt>
      <trkpt lat="46.97733" lon="4.73647">
        <ele>311</ele>
        <time>2019-04-14T09:14:08Z</time>
      </trkpt>
      <trkpt lat="46.97714" lon="4.73658">
        <ele>313</ele>
        <time>2019-04-14T09:14:33Z</time>
      </trkpt>
      <trkpt lat="46.97684" lon="4.7367">
        <ele>317</ele>
        <time>2019-04-14T09:15:04Z</time>
      </trkpt>
      <trkpt lat="46.9766" lon="4.73692">
        <ele>319</ele>
        <time>2019-04-14T09:15:20Z</time>
      </trkpt>
      <trkpt lat="46.97629" lon="4.73715">
        <ele>323</ele>
        <time>2019-04-14T09:15:26Z</time>
      </trkpt>
      <trkpt lat="46.97607" lon="4.73721">
        <ele>326</ele>
        <time>2019-04-14T09:15:45Z</time>
      </trkpt>
      <trkpt lat="46.97567" lon="4.73692">
        <ele>333</ele>
        <time>2019-04-14T09:16:45Z</time>
      </trkpt>
      <trkpt lat="46.97574" lon="4.7365">
        <ele>335</ele>
        <time>2019-04-14T09:16:57Z</time>
      </trkpt>
      <trkpt lat="46.97574" lon="4.73595">
        <ele>339</ele>
        <time>2019-04-14T09:17:02Z</time>
      </trkpt>
      <trkpt lat="46.97582" lon="4.73574">
        <ele>339</ele>
        <time>2019-04-14T09:17:09Z</time>
      </trkpt>
      <trkpt lat="46.97575" lon="4.73556">
        <ele>341</ele>
        <time>2019-04-14T09:17:29Z</time>
      </trkpt>
      <trkpt lat="46.9756" lon="4.7357">
        <ele>343</ele>
        <time>2019-04-14T09:18:29Z</time>
      </trkpt>
      <trkpt lat="46.97508" lon="4.73594">
        <ele>350</ele>
        <time>2019-04-14T09:19:48Z</time>
      </trkpt>
      <trkpt lat="46.97493" lon="4.73595">
        <ele>352</ele>
        <time>2019-04-14T09:20:00Z</time>
      </trkpt>
      <trkpt lat="46.97403" lon="4.73561">
        <ele>363</ele>
        <time>2019-04-14T09:20:31Z</time>
      </trkpt>
      <trkpt lat="46.97389" lon="4.7355">
        <ele>364</ele>
        <time>2019-04-14T09:20:51Z</time>
      </trkpt>
      <trkpt lat="46.97359" lon="4.73505">
        <ele>369</ele>
        <time>2019-04-14T09:21:08Z</time>
      </trkpt>
      <trkpt lat="46.97356" lon="4.73471">
        <ele>372</ele>
        <time>2019-04-14T09:21:17Z</time>
      </trkpt>
      <trkpt lat="46.97366" lon="4.73446">
        <ele>374</ele>
        <time>2019-04-14T09:21:37Z</time>
      </trkpt>
      <trkpt lat="46.97369" lon="4.73431">
        <ele>375</ele>
        <time>2019-04-14T09:21:50Z</time>
      </trkpt>
      <trkpt lat="46.97367" lon="4.73395">
        <ele>378</ele>
        <time>2019-04-14T09:22:22Z</time>
      </trkpt>
      <trkpt lat="46.97362" lon="4.73372">
        <ele>380</ele>
        <time>2019-04-14T09:22:31Z</time>
      </trkpt>
      <trkpt lat="46.97343" lon="4.73329">
        <ele>384</ele>
        <time>2019-04-14T09:22:55Z</time>
      </trkpt>
      <trkpt lat="46.97341" lon="4.73314">
        <ele>386</ele>
        <time>2019-04-14T09:23:09Z</time>
      </trkpt>
      <trkpt lat="46.97345" lon="4.73276">
        <ele>388</ele>
        <time>2019-04-14T09:23:20Z</time>
      </trkpt>
      <trkpt lat="46.9735" lon="4.73255">
        <ele>389</ele>
        <time>2019-04-14T09:23:29Z</time>
      </trkpt>
      <trkpt lat="46.97351" lon="4.73237">
        <ele>391</ele>
        <time>2019-04-14T09:23:53Z</time>
      </trkpt>
      <trkpt lat="46.97347" lon="4.73224">
        <ele>391</ele>
        <time>2019-04-14T09:23:59Z</time>
      </trkpt>
      <trkpt lat="46.97331" lon="4.7319">
        <ele>395</ele>
        <time>2019-04-14T09:24:22Z</time>
      </trkpt>
      <trkpt lat="46.97329" lon="4.73178">
        <ele>396</ele>
        <time>2019-04-14T09:24:41Z</time>
      </trkpt>
      <trkpt lat="46.97339" lon="4.73133">
        <ele>398</ele>
        <time>2019-04-14T09:24:58Z</time>
      </trkpt>
      <trkpt lat="46.97342" lon="4.73087">
        <ele>401</ele>
        <time>2019-04-14T09:25:30Z</time>
      </trkpt>
      <trkpt lat="46.97348" lon="4.73049">
        <ele>402</ele>
        <time>2019-04-14T09:25:37Z</time>
      </trkpt>
      <trkpt lat="46.9735" lon="4.72923">
        <ele>403</ele>
        <time>2019-04-14T09:26:14Z</time>
      </trkpt>
      <trkpt lat="46.97329" lon="4.72812">
        <ele>404</ele>
        <time>2019-04-14T09:26:38Z</time>
      </trkpt>
      <trkpt lat="46.97303" lon="4.72736">
        <ele>406</ele>
        <time>2019-04-14T09:27:04Z</time>
      </trkpt>
      <trkpt lat="46.97251" lon="4.72669">
        <ele>409</ele>
        <time>2019-04-14T09:27:29Z</time>
      </trkpt>
      <trkpt lat="46.97218" lon="4.72619">
        <ele>411</ele>
        <time>2019-04-14T09:27:32Z</time>
      </trkpt>
      <trkpt lat="46.97216" lon="4.72602">
        <ele>411</ele>
        <time>2019-04-14T09:27:39Z</time>
      </trkpt>
      <trkpt lat="46.97218" lon="4.72588">
        <ele>411</ele>
        <time>2019-04-14T09:27:46Z</time>
      </trkpt>
      <trkpt lat="46.97241" lon="4.72512">
        <ele>408</ele>
        <time>2019-04-14T09:28:05Z</time>
      </trkpt>
      <trkpt lat="46.97285" lon="4.72292">
        <ele>406</ele>
        <time>2019-04-14T09:28:35Z</time>
      </trkpt>
      <trkpt lat="46.97294" lon="4.7226">
        <ele>407</ele>
        <time>2019-04-14T09:28:48Z</time>
      </trkpt>
      <trkpt lat="46.97312" lon="4.72229">
        <ele>408</ele>
        <time>2019-04-14T09:29:01Z</time>
      </trkpt>
      <trkpt lat="46.97315" lon="4.72205">
        <ele>410</ele>
        <time>2019-04-14T09:29:08Z</time>
      </trkpt>
      <trkpt lat="46.97313" lon="4.72182">
        <ele>413</ele>
        <time>2019-04-14T09:29:19Z</time>
      </trkpt>
      <trkpt lat="46.97309" lon="4.72169">
        <ele>414</ele>
        <time>2019-04-14T09:29:40Z</time>
      </trkpt>
      <trkpt lat="46.97312" lon="4.72153">
        <ele>416</ele>
        <time>2019-04-14T09:29:47Z</time>
      </trkpt>
      <trkpt lat="46.97331" lon="4.72129">
        <ele>418</ele>
        <time>2019-04-14T09:30:14Z</time>
      </trkpt>
      <trkpt lat="46.97339" lon="4.72122">
        <ele>419</ele>
        <time>2019-04-14T09:30:20Z</time>
      </trkpt>
      <trkpt lat="46.97365" lon="4.7208">
        <ele>422</ele>
        <time>2019-04-14T09:30:44Z</time>
      </trkpt>
      <trkpt lat="46.97368" lon="4.7207">
        <ele>423</ele>
        <time>2019-04-14T09:31:42Z</time>
      </trkpt>
      <trkpt lat="46.97389" lon="4.72034">
        <ele>425</ele>
        <time>2019-04-14T09:31:57Z</time>
      </trkpt>
      <trkpt lat="46.97429" lon="4.71924">
        <ele>429</ele>
        <time>2019-04-14T09:32:00Z</time>
      </trkpt>
      <trkpt lat="46.97454" lon="4.71899">
        <ele>430</ele>
        <time>2019-04-14T09:32:14Z</time>
      </trkpt>
      <trkpt lat="46.97458" lon="4.71858">
        <ele>432</ele>
        <time>2019-04-14T09:33:06Z</time>
      </trkpt>
      <trkpt lat="46.97467" lon="4.7179">
        <ele>435</ele>
        <time>2019-04-14T09:33:16Z</time>
      </trkpt>
      <trkpt lat="46.97463" lon="4.71767">
        <ele>436</ele>
        <time>2019-04-14T09:33:30Z</time>
      </trkpt>
      <trkpt lat="46.97462" lon="4.71747">
        <ele>437</ele>
        <time>2019-04-14T09:33:40Z</time>
      </trkpt>
      <trkpt lat="46.97471" lon="4.71718">
        <ele>439</ele>
        <time>2019-04-14T09:33:56Z</time>
      </trkpt>
      <trkpt lat="46.97473" lon="4.71694">
        <ele>440</ele>
        <time>2019-04-14T09:34:22Z</time>
      </trkpt>
      <trkpt lat="46.97495" lon="4.71661">
        <ele>441</ele>
        <time>2019-04-14T09:34:31Z</time>
      </trkpt>
      <trkpt lat="46.97554" lon="4.71618">
        <ele>441</ele>
        <time>2019-04-14T09:34:39Z</time>
      </trkpt>
      <trkpt lat="46.97581" lon="4.71608">
        <ele>440</ele>
        <time>2019-04-14T09:34:44Z</time>
      </trkpt>
      <trkpt lat="46.976" lon="4.71586">
        <ele>440</ele>
        <time>2019-04-14T09:34:46Z</time>
      </trkpt>
      <trkpt lat="46.97608" lon="4.71566">
        <ele>440</ele>
        <time>2019-04-14T09:34:48Z</time>
      </trkpt>
      <trkpt lat="46.97606" lon="4.71556">
        <ele>440</ele>
        <time>2019-04-14T09:35:04Z</time>
      </trkpt>
      <trkpt lat="46.97591" lon="4.7155">
        <ele>441</ele>
        <time>2019-04-14T09:35:10Z</time>
      </trkpt>
      <trkpt lat="46.97583" lon="4.7154">
        <ele>441</ele>
        <time>2019-04-14T09:35:24Z</time>
      </trkpt>
      <trkpt lat="46.97574" lon="4.7154">
        <ele>442</ele>
        <time>2019-04-14T09:35:39Z</time>
      </trkpt>
      <trkpt lat="46.97545" lon="4.71557">
        <ele>443</ele>
        <time>2019-04-14T09:35:56Z</time>
      </trkpt>
      <trkpt lat="46.97515" lon="4.71556">
        <ele>444</ele>
        <time>2019-04-14T09:36:17Z</time>
      </trkpt>
      <trkpt lat="46.97484" lon="4.71567">
        <ele>446</ele>
        <time>2019-04-14T09:36:44Z</time>
      </trkpt>
      <trkpt lat="46.97448" lon="4.71569">
        <ele>449</ele>
        <time>2019-04-14T09:37:31Z</time>
      </trkpt>
      <trkpt lat="46.97411" lon="4.71576">
        <ele>452</ele>
        <time>2019-04-14T09:37:55Z</time>
      </trkpt>
      <trkpt lat="46.97355" lon="4.71567">
        <ele>457</ele>
        <time>2019-04-14T09:37:59Z</time>
      </trkpt>
      <trkpt lat="46.97328" lon="4.71536">
        <ele>459</ele>
        <time>2019-04-14T09:38:03Z</time>
      </trkpt>
      <trkpt lat="46.9732" lon="4.71542">
        <ele>460</ele>
        <time>2019-04-14T09:38:33Z</time>
      </trkpt>
      <trkpt lat="46.97309" lon="4.71581">
        <ele>460</ele>
        <time>2019-04-14T09:38:37Z</time>
      </trkpt>
      <trkpt lat="46.97272" lon="4.71623">
        <ele>461</ele>
        <time>2019-04-14T09:38:50Z</time>
      </trkpt>
      <trkpt lat="46.9726" lon="4.7163">
        <ele>462</ele>
        <time>2019-04-14T09:38:57Z</time>
      </trkpt>
      <trkpt lat="46.972" lon="4.71649">
        <ele>463</ele>
        <time>2019-04-14T09:39:22Z</time>
      </trkpt>
      <trkpt lat="46.97182" lon="4.71635">
        <ele>464</ele>
        <time>2019-04-14T09:39:36Z</time>
      </trkpt>
      <trkpt lat="46.97133" lon="4.71635">
        <ele>465</ele>
        <time>2019-04-14T09:39:43Z</time>
      </trkpt>
      <trkpt lat="46.97078" lon="4.71606">
        <ele>465</ele>
        <time>2019-04-14T09:39:51Z</time>
      </trkpt>
      <trkpt lat="46.97068" lon="4.71611">
        <ele>465</ele>
        <time>2019-04-14T09:39:57Z</time>
      </trkpt>
      <trkpt lat="46.97049" lon="4.71633">
        <ele>464</ele>
        <time>2019-04-14T09:39:59Z</time>
      </trkpt>
      <trkpt lat="46.9702" lon="4.71649">
        <ele>462</ele>
        <time>2019-04-14T09:40:02Z</time>
      </trkpt>
      <trkpt lat="46.97013" lon="4.7166">
        <ele>461</ele>
        <time>2019-04-14T09:40:04Z</time>
      </trkpt>
      <trkpt lat="46.96933" lon="4.7106">
        <ele>467.2</ele>
      </trkpt>
      <trkpt lat="46.96873" lon="4.70956">
        <ele>467</ele>
      </trkpt>
      <trkpt lat="46.96747" lon="4.70836">
        <ele>468.1</ele>
      </trkpt>
      <trkpt lat="46.96671" lon="4.70852">
        <ele>462.6</ele>
      </trkpt>
      <trkpt lat="46.96611" lon="4.70908">
        <ele>462.6</ele>
      </trkpt>
      <trkpt lat="46.96764" lon="4.7102">
        <ele>450.5</ele>
      </trkpt>
      <trkpt lat="46.96769" lon="4.71196">
        <ele>435.5</ele>
      </trkpt>
      <trkpt lat="46.96654" lon="4.71453">
        <ele>397.2</ele>
      </trkpt>
      <trkpt lat="46.966" lon="4.71477">
        <ele>393.4</ele>
      </trkpt>
      <trkpt lat="46.96523" lon="4.71613">
        <ele>383</ele>
      </trkpt>
      <trkpt lat="46.96398" lon="4.71701">
        <ele>369.2</ele>
      </trkpt>
      <trkpt lat="46.96277" lon="4.71805">
        <ele>361.6</ele>
      </trkpt>
      <trkpt lat="46.96221" lon="4.71898">
        <ele>346</ele>
        <time>2019-04-14T09:42:49Z</time>
      </trkpt>
      <trkpt lat="46.9621" lon="4.71896">
        <ele>345</ele>
        <time>2019-04-14T09:42:53Z</time>
      </trkpt>
      <trkpt lat="46.96188" lon="4.71917">
        <ele>342</ele>
        <time>2019-04-14T09:43:04Z</time>
      </trkpt>
      <trkpt lat="46.96163" lon="4.71932">
        <ele>338</ele>
        <time>2019-04-14T09:43:06Z</time>
      </trkpt>
      <trkpt lat="46.96058" lon="4.71974">
        <ele>323</ele>
        <time>2019-04-14T09:43:11Z</time>
      </trkpt>
      <trkpt lat="46.96034" lon="4.71992">
        <ele>322</ele>
        <time>2019-04-14T09:43:27Z</time>
      </trkpt>
      <trkpt lat="46.95986" lon="4.72042">
        <ele>317</ele>
        <time>2019-04-14T09:43:33Z</time>
      </trkpt>
      <trkpt lat="46.95842" lon="4.72125">
        <ele>296</ele>
        <time>2019-04-14T09:43:35Z</time>
      </trkpt>
      <trkpt lat="46.95763" lon="4.7217">
        <ele>284</ele>
        <time>2019-04-14T09:43:43Z</time>
      </trkpt>
      <trkpt lat="46.95731" lon="4.72205">
        <ele>282</ele>
        <time>2019-04-14T09:43:46Z</time>
      </trkpt>
      <trkpt lat="46.95701" lon="4.72209">
        <ele>281</ele>
        <time>2019-04-14T09:43:48Z</time>
      </trkpt>
      <trkpt lat="46.95686" lon="4.7223">
        <ele>282</ele>
        <time>2019-04-14T09:43:51Z</time>
      </trkpt>
      <trkpt lat="46.95676" lon="4.72237">
        <ele>283</ele>
        <time>2019-04-14T09:43:56Z</time>
      </trkpt>
      <trkpt lat="46.95661" lon="4.72233">
        <ele>283</ele>
        <time>2019-04-14T09:44:03Z</time>
      </trkpt>
      <trkpt lat="46.95629" lon="4.72214">
        <ele>282</ele>
        <time>2019-04-14T09:44:06Z</time>
      </trkpt>
      <trkpt lat="46.95575" lon="4.72165">
        <ele>277</ele>
        <time>2019-04-14T09:44:08Z</time>
      </trkpt>
      <trkpt lat="46.95534" lon="4.72126">
        <ele>273</ele>
        <time>2019-04-14T09:44:12Z</time>
      </trkpt>
      <trkpt lat="46.95517" lon="4.72118">
        <ele>272</ele>
        <time>2019-04-14T09:44:14Z</time>
      </trkpt>
      <trkpt lat="46.955" lon="4.72119">
        <ele>271</ele>
        <time>2019-04-14T09:44:16Z</time>
      </trkpt>
      <trkpt lat="46.95484" lon="4.72126">
        <ele>271</ele>
        <time>2019-04-14T09:44:19Z</time>
      </trkpt>
      <trkpt lat="46.9547" lon="4.72139">
        <ele>270</ele>
        <time>2019-04-14T09:44:22Z</time>
      </trkpt>
      <trkpt lat="46.95442" lon="4.7219">
        <ele>270</ele>
        <time>2019-04-14T09:44:33Z</time>
      </trkpt>
      <trkpt lat="46.95407" lon="4.72167">
        <ele>267</ele>
        <time>2019-04-14T09:44:57Z</time>
      </trkpt>
      <trkpt lat="46.95375" lon="4.72116">
        <ele>269</ele>
        <time>2019-04-14T09:45:12Z</time>
      </trkpt>
      <trkpt lat="46.95359" lon="4.72073">
        <ele>273</ele>
        <time>2019-04-14T09:45:28Z</time>
      </trkpt>
      <trkpt lat="46.95341" lon="4.71987">
        <ele>275</ele>
        <time>2019-04-14T09:46:01Z</time>
      </trkpt>
      <trkpt lat="46.95244" lon="4.71904">
        <ele>294.6</ele>
      </trkpt>
      <trkpt lat="46.9495" lon="4.71689">
        <ele>326.1</ele>
      </trkpt>
      <trkpt lat="46.94888" lon="4.71643">
        <ele>331.2</ele>
      </trkpt>
      <trkpt lat="46.94733" lon="4.71507">
        <ele>339.1</ele>
      </trkpt>
      <trkpt lat="46.93997" lon="4.71983">
        <ele>352.8</ele>
      </trkpt>
      <trkpt lat="46.93633" lon="4.71813">
        <ele>365.7</ele>
      </trkpt>
      <trkpt lat="46.93262" lon="4.71609">
        <ele>379.7</ele>
      </trkpt>
      <trkpt lat="46.93189" lon="4.71496">
        <ele>385.6</ele>
      </trkpt>
      <trkpt lat="46.93097" lon="4.71417">
        <ele>386.3</ele>
      </trkpt>
      <trkpt lat="46.93048" lon="4.71349">
        <ele>385</ele>
      </trkpt>
      <trkpt lat="46.93048" lon="4.71349">
        <ele>385</ele>
      </trkpt>
      <trkpt lat="46.93009" lon="4.71192">
        <ele>395</ele>
      </trkpt>
      <trkpt lat="46.92929" lon="4.71061">
        <ele>394</ele>
      </trkpt>
      <trkpt lat="46.92895" lon="4.70881">
        <ele>397</ele>
      </trkpt>
      <trkpt lat="46.92891" lon="4.70774">
        <ele>399</ele>
      </trkpt>
      <trkpt lat="46.9275" lon="4.70489">
        <ele>399</ele>
      </trkpt>
      <trkpt lat="46.92653" lon="4.70506">
        <ele>388</ele>
      </trkpt>
      <trkpt lat="46.92556" lon="4.70482">
        <ele>393</ele>
      </trkpt>
      <trkpt lat="46.92421" lon="4.70375">
        <ele>396</ele>
      </trkpt>
      <trkpt lat="46.92478" lon="4.70349">
        <ele>398.3</ele>
      </trkpt>
      <trkpt lat="46.92521" lon="4.70277">
        <ele>409.4</ele>
      </trkpt>
      <trkpt lat="46.92505" lon="4.70085">
        <ele>423.5</ele>
      </trkpt>
      <trkpt lat="46.92428" lon="4.69948">
        <ele>431.3</ele>
      </trkpt>
      <trkpt lat="46.92385" lon="4.69772">
        <ele>443.6</ele>
      </trkpt>
      <trkpt lat="46.92417" lon="4.69668">
        <ele>451.8</ele>
      </trkpt>
      <trkpt lat="46.92396" lon="4.6954">
        <ele>455.9</ele>
      </trkpt>
      <trkpt lat="46.92385" lon="4.69492">
        <ele>458.7</ele>
      </trkpt>
      <trkpt lat="46.92396" lon="4.69452">
        <ele>459.8</ele>
      </trkpt>
      <trkpt lat="46.92319" lon="4.69187">
        <ele>468.2</ele>
      </trkpt>
      <trkpt lat="46.92248" lon="4.69147">
        <ele>464.2</ele>
      </trkpt>
      <trkpt lat="46.92204" lon="4.69011">
        <ele>466.5</ele>
      </trkpt>
      <trkpt lat="46.92248" lon="4.68779">
        <ele>476.2</ele>
      </trkpt>
      <trkpt lat="46.92204" lon="4.68578">
        <ele>472.5</ele>
      </trkpt>
      <trkpt lat="46.92221" lon="4.68306">
        <ele>476.6</ele>
      </trkpt>
      <trkpt lat="46.92248" lon="4.68194">
        <ele>470.3</ele>
      </trkpt>
      <trkpt lat="46.92231" lon="4.68082">
        <ele>447.6</ele>
      </trkpt>
      <trkpt lat="46.92297" lon="4.67969">
        <ele>448</ele>
      </trkpt>
      <trkpt lat="46.92357" lon="4.67857">
        <ele>466.6</ele>
      </trkpt>
      <trkpt lat="46.92352" lon="4.67761">
        <ele>468.7</ele>
      </trkpt>
      <trkpt lat="46.9233" lon="4.67673">
        <ele>460.8</ele>
      </trkpt>
      <trkpt lat="46.92363" lon="4.67569">
        <ele>463.1</ele>
      </trkpt>
      <trkpt lat="46.92352" lon="4.67505">
        <ele>461.2</ele>
      </trkpt>
      <trkpt lat="46.92286" lon="4.67641">
        <ele>443.8</ele>
      </trkpt>
      <trkpt lat="46.9227" lon="4.67753">
        <ele>435.6</ele>
      </trkpt>
      <trkpt lat="46.92281" lon="4.67905">
        <ele>437.3</ele>
      </trkpt>
      <trkpt lat="46.92166" lon="4.68009">
        <ele>405</ele>
      </trkpt>
      <trkpt lat="46.92067" lon="4.68082">
        <ele>377.5</ele>
      </trkpt>
      <trkpt lat="46.92051" lon="4.6813">
        <ele>384.5</ele>
      </trkpt>
      <trkpt lat="46.91969" lon="4.6817">
        <ele>371.4</ele>
      </trkpt>
      <trkpt lat="46.91892" lon="4.68223">
        <ele>357</ele>
      </trkpt>
      <trkpt lat="46.91861" lon="4.6827">
        <ele>352</ele>
      </trkpt>
      <trkpt lat="46.91824" lon="4.68348">
        <ele>346</ele>
      </trkpt>
      <trkpt lat="46.91807" lon="4.68373">
        <ele>342</ele>
      </trkpt>
      <trkpt lat="46.91777" lon="4.6843">
        <ele>339</ele>
      </trkpt>
      <trkpt lat="46.91742" lon="4.68448">
        <ele>333</ele>
      </trkpt>
      <trkpt lat="46.91727" lon="4.68448">
        <ele>330</ele>
      </trkpt>
      <trkpt lat="46.91704" lon="4.68423">
        <ele>323</ele>
      </trkpt>
      <trkpt lat="46.91692" lon="4.68419">
        <ele>321</ele>
      </trkpt>
      <trkpt lat="46.91686" lon="4.68425">
        <ele>320</ele>
      </trkpt>
      <trkpt lat="46.91678" lon="4.68446">
        <ele>319</ele>
      </trkpt>
      <trkpt lat="46.91668" lon="4.6844">
        <ele>317</ele>
      </trkpt>
      <trkpt lat="46.91658" lon="4.68423">
        <ele>315</ele>
      </trkpt>
      <trkpt lat="46.9165" lon="4.68403">
        <ele>312</ele>
      </trkpt>
      <trkpt lat="46.91642" lon="4.68404">
        <ele>311</ele>
      </trkpt>
      <trkpt lat="46.91628" lon="4.6842">
        <ele>309</ele>
      </trkpt>
      <trkpt lat="46.91618" lon="4.68424">
        <ele>308</ele>
      </trkpt>
      <trkpt lat="46.91597" lon="4.68421">
        <ele>304</ele>
      </trkpt>
      <trkpt lat="46.91584" lon="4.68412">
        <ele>301</ele>
      </trkpt>
      <trkpt lat="46.91576" lon="4.68393">
        <ele>300</ele>
      </trkpt>
      <trkpt lat="46.91567" lon="4.68382">
        <ele>299</ele>
      </trkpt>
      <trkpt lat="46.91552" lon="4.68379">
        <ele>297</ele>
      </trkpt>
      <trkpt lat="46.91546" lon="4.68395">
        <ele>296</ele>
      </trkpt>
      <trkpt lat="46.91522" lon="4.68487">
        <ele>288</ele>
      </trkpt>
      <trkpt lat="46.91523" lon="4.68513">
        <ele>288</ele>
      </trkpt>
      <trkpt lat="46.91539" lon="4.68602">
        <ele>288</ele>
      </trkpt>
      <trkpt lat="46.91532" lon="4.68622">
        <ele>287</ele>
      </trkpt>
      <trkpt lat="46.91464" lon="4.68706">
        <ele>278</ele>
      </trkpt>
      <trkpt lat="46.91459" lon="4.6872">
        <ele>277</ele>
      </trkpt>
      <trkpt lat="46.91459" lon="4.68807">
        <ele>275</ele>
      </trkpt>
      <trkpt lat="46.91442" lon="4.68903">
        <ele>270</ele>
      </trkpt>
      <trkpt lat="46.91436" lon="4.69012">
        <ele>263</ele>
      </trkpt>
      <trkpt lat="46.91433" lon="4.69143">
        <ele>256</ele>
      </trkpt>
      <trkpt lat="46.91421" lon="4.69224">
        <ele>251</ele>
      </trkpt>
      <trkpt lat="46.9142" lon="4.69261">
        <ele>248</ele>
      </trkpt>
      <trkpt lat="46.91427" lon="4.69285">
        <ele>247</ele>
      </trkpt>
      <trkpt lat="46.91449" lon="4.69333">
        <ele>247</ele>
      </trkpt>
      <trkpt lat="46.91463" lon="4.69341">
        <ele>248</ele>
      </trkpt>
      <trkpt lat="46.91461" lon="4.69355">
        <ele>247</ele>
      </trkpt>
      <trkpt lat="46.91448" lon="4.69354">
        <ele>245</ele>
      </trkpt>
      <trkpt lat="46.91423" lon="4.69406">
        <ele>241</ele>
      </trkpt>
      <trkpt lat="46.91415" lon="4.69454">
        <ele>238</ele>
      </trkpt>
      <trkpt lat="46.91385" lon="4.69533">
        <ele>234</ele>
      </trkpt>
      <trkpt lat="46.9136" lon="4.69553">
        <ele>232</ele>
      </trkpt>
      <trkpt lat="46.91298" lon="4.69634">
        <ele>228</ele>
      </trkpt>
      <trkpt lat="46.9127" lon="4.69684">
        <ele>226</ele>
      </trkpt>
      <trkpt lat="46.91163" lon="4.69856">
        <ele>221</ele>
      </trkpt>
      <trkpt lat="46.91143" lon="4.69901">
        <ele>220</ele>
      </trkpt>
      <trkpt lat="46.91143" lon="4.69931">
        <ele>220</ele>
      </trkpt>
      <trkpt lat="46.91137" lon="4.69953">
        <ele>220</ele>
      </trkpt>
      <trkpt lat="46.91144" lon="4.69973">
        <ele>220</ele>
      </trkpt>
      <trkpt lat="46.91144" lon="4.69987">
        <ele>220</ele>
      </trkpt>
      <trkpt lat="46.91131" lon="4.6999">
        <ele>220</ele>
      </trkpt>
      <trkpt lat="46.91129" lon="4.69975">
        <ele>220</ele>
      </trkpt>
      <trkpt lat="46.91127" lon="4.69982">
        <ele>220</ele>
      </trkpt>
      <trkpt lat="46.91071" lon="4.69889">
        <ele>218</ele>
      </trkpt>
      <trkpt lat="46.91026" lon="4.69755">
        <ele>219</ele>
      </trkpt>
      <trkpt lat="46.90995" lon="4.69709">
        <ele>219</ele>
      </trkpt>
      <trkpt lat="46.90807" lon="4.69511">
        <ele>217</ele>
      </trkpt>
      <trkpt lat="46.90781" lon="4.69467">
        <ele>217</ele>
      </trkpt>
      <trkpt lat="46.90774" lon="4.69461">
        <ele>217</ele>
      </trkpt>
      <trkpt lat="46.90767" lon="4.69461">
        <ele>217</ele>
      </trkpt>
      <trkpt lat="46.90745" lon="4.69467">
        <ele>217</ele>
      </trkpt>
      <trkpt lat="46.90662" lon="4.69534">
        <ele>215</ele>
      </trkpt>
      <trkpt lat="46.90512" lon="4.69575">
        <ele>215</ele>
      </trkpt>
      <trkpt lat="46.90475" lon="4.69548">
        <ele>216</ele>
      </trkpt>
      <trkpt lat="46.90408" lon="4.69474">
        <ele>218</ele>
      </trkpt>
      <trkpt lat="46.90366" lon="4.69462">
        <ele>220</ele>
      </trkpt>
      <trkpt lat="46.90278" lon="4.69389">
        <ele>221</ele>
      </trkpt>
      <trkpt lat="46.90242" lon="4.6934">
        <ele>221</ele>
      </trkpt>
      <trkpt lat="46.90178" lon="4.69223">
        <ele>221</ele>
      </trkpt>
      <trkpt lat="46.90167" lon="4.69212">
        <ele>222</ele>
      </trkpt>
      <trkpt lat="46.90151" lon="4.69229">
        <ele>224</ele>
      </trkpt>
      <trkpt lat="46.90149" lon="4.69239">
        <ele>225</ele>
      </trkpt>
      <trkpt lat="46.90244" lon="4.6941">
        <ele>225</ele>
      </trkpt>
      <trkpt lat="46.90387" lon="4.69708">
        <ele>231</ele>
      </trkpt>
      <trkpt lat="46.90419" lon="4.69889">
        <ele>231</ele>
      </trkpt>
      <trkpt lat="46.90421" lon="4.69927">
        <ele>230</ele>
      </trkpt>
      <trkpt lat="46.90405" lon="4.70149">
        <ele>228</ele>
      </trkpt>
      <trkpt lat="46.9039" lon="4.70211">
        <ele>232</ele>
      </trkpt>
      <trkpt lat="46.90382" lon="4.70207">
        <ele>233</ele>
      </trkpt>
      <trkpt lat="46.90381" lon="4.70183">
        <ele>232</ele>
      </trkpt>
      <trkpt lat="46.90361" lon="4.70129">
        <ele>232</ele>
      </trkpt>
      <trkpt lat="46.90329" lon="4.70012">
        <ele>236</ele>
      </trkpt>
      <trkpt lat="46.90313" lon="4.69964">
        <ele>242</ele>
      </trkpt>
      <trkpt lat="46.90293" lon="4.69922">
        <ele>249</ele>
      </trkpt>
      <trkpt lat="46.90252" lon="4.6988">
        <ele>256</ele>
      </trkpt>
      <trkpt lat="46.90236" lon="4.69873">
        <ele>258</ele>
      </trkpt>
      <trkpt lat="46.90225" lon="4.6988">
        <ele>260</ele>
      </trkpt>
      <trkpt lat="46.90183" lon="4.69944">
        <ele>266</ele>
      </trkpt>
      <trkpt lat="46.90135" lon="4.70058">
        <ele>271</ele>
      </trkpt>
      <trkpt lat="46.90101" lon="4.70178">
        <ele>275</ele>
      </trkpt>
      <trkpt lat="46.90026" lon="4.70431">
        <ele>279</ele>
      </trkpt>
      <trkpt lat="46.90024" lon="4.70454">
        <ele>279</ele>
      </trkpt>
      <trkpt lat="46.90009" lon="4.70501">
        <ele>278</ele>
      </trkpt>
      <trkpt lat="46.89977" lon="4.70586">
        <ele>271</ele>
      </trkpt>
      <trkpt lat="46.89964" lon="4.70643">
        <ele>267</ele>
      </trkpt>
      <trkpt lat="46.89898" lon="4.70628">
        <ele>261</ele>
      </trkpt>
      <trkpt lat="46.89861" lon="4.70624">
        <ele>257</ele>
      </trkpt>
      <trkpt lat="46.89817" lon="4.70609">
        <ele>253</ele>
      </trkpt>
      <trkpt lat="46.89794" lon="4.70607">
        <ele>250</ele>
      </trkpt>
      <trkpt lat="46.89797" lon="4.7062">
        <ele>250</ele>
      </trkpt>
      <trkpt lat="46.8979" lon="4.70616">
        <ele>250</ele>
      </trkpt>
      <trkpt lat="46.89785" lon="4.7067">
        <ele>248</ele>
      </trkpt>
      <trkpt lat="46.89776" lon="4.70698">
        <ele>247</ele>
      </trkpt>
      <trkpt lat="46.89737" lon="4.70768">
        <ele>242</ele>
      </trkpt>
      <trkpt lat="46.89695" lon="4.70828">
        <ele>238</ele>
      </trkpt>
      <trkpt lat="46.89645" lon="4.71048">
        <ele>231</ele>
      </trkpt>
      <trkpt lat="46.89628" lon="4.71098">
        <ele>235</ele>
      </trkpt>
      <trkpt lat="46.89625" lon="4.71114">
        <ele>236</ele>
      </trkpt>
      <trkpt lat="46.8958" lon="4.7111">
        <ele>240</ele>
      </trkpt>
      <trkpt lat="46.89555" lon="4.71112">
        <ele>242</ele>
      </trkpt>
      <trkpt lat="46.89533" lon="4.71115">
        <ele>244</ele>
      </trkpt>
      <trkpt lat="46.89521" lon="4.71111">
        <ele>245</ele>
      </trkpt>
      <trkpt lat="46.89511" lon="4.71113">
        <ele>246</ele>
      </trkpt>
      <trkpt lat="46.89496" lon="4.71097">
        <ele>246</ele>
      </trkpt>
      <trkpt lat="46.89483" lon="4.71096">
        <ele>247</ele>
      </trkpt>
      <trkpt lat="46.89404" lon="4.71103">
        <ele>260</ele>
      </trkpt>
      <trkpt lat="46.89351" lon="4.71092">
        <ele>264</ele>
      </trkpt>
      <trkpt lat="46.89188" lon="4.71003">
        <ele>269</ele>
      </trkpt>
      <trkpt lat="46.89123" lon="4.70955">
        <ele>271</ele>
      </trkpt>
      <trkpt lat="46.89006" lon="4.70867">
        <ele>275</ele>
      </trkpt>
      <trkpt lat="46.88982" lon="4.70837">
        <ele>277</ele>
      </trkpt>
      <trkpt lat="46.88914" lon="4.70735">
        <ele>280</ele>
      </trkpt>
      <trkpt lat="46.88907" lon="4.707">
        <ele>279</ele>
      </trkpt>
      <trkpt lat="46.88884" lon="4.70642">
        <ele>281</ele>
      </trkpt>
      <trkpt lat="46.88794" lon="4.70531">
        <ele>280</ele>
      </trkpt>
      <trkpt lat="46.88735" lon="4.70422">
        <ele>277</ele>
      </trkpt>
      <trkpt lat="46.88713" lon="4.704">
        <ele>279</ele>
      </trkpt>
      <trkpt lat="46.88596" lon="4.70291">
        <ele>288</ele>
      </trkpt>
      <trkpt lat="46.88475" lon="4.70183">
        <ele>296</ele>
      </trkpt>
      <trkpt lat="46.88397" lon="4.7012">
        <ele>300</ele>
      </trkpt>
      <trkpt lat="46.88308" lon="4.70067">
        <ele>303</ele>
      </trkpt>
      <trkpt lat="46.88222" lon="4.69989">
        <ele>301</ele>
      </trkpt>
      <trkpt lat="46.8822" lon="4.7">
        <ele>304</ele>
      </trkpt>
      <trkpt lat="46.88204" lon="4.70013">
        <ele>309</ele>
      </trkpt>
      <trkpt lat="46.88182" lon="4.70019">
        <ele>313</ele>
      </trkpt>
      <trkpt lat="46.88163" lon="4.70029">
        <ele>317</ele>
      </trkpt>
      <trkpt lat="46.88146" lon="4.70035">
        <ele>321</ele>
      </trkpt>
      <trkpt lat="46.88087" lon="4.70058">
        <ele>333</ele>
      </trkpt>
      <trkpt lat="46.88042" lon="4.70057">
        <ele>339</ele>
      </trkpt>
      <trkpt lat="46.88006" lon="4.70067">
        <ele>344</ele>
      </trkpt>
      <trkpt lat="46.87974" lon="4.70088">
        <ele>349</ele>
      </trkpt>
      <trkpt lat="46.87968" lon="4.70112">
        <ele>353</ele>
      </trkpt>
      <trkpt lat="46.88014" lon="4.70253">
        <ele>361</ele>
      </trkpt>
      <trkpt lat="46.88056" lon="4.70471">
        <ele>352</ele>
      </trkpt>
      <trkpt lat="46.88071" lon="4.70565">
        <ele>348</ele>
      </trkpt>
      <trkpt lat="46.87844" lon="4.7036">
        <ele>355.6</ele>
      </trkpt>
      <trkpt lat="46.87773" lon="4.70214">
        <ele>365.2</ele>
      </trkpt>
      <trkpt lat="46.8762" lon="4.69966">
        <ele>380.2</ele>
      </trkpt>
      <trkpt lat="46.87574" lon="4.69844">
        <ele>380.9</ele>
      </trkpt>
      <trkpt lat="46.87366" lon="4.69723">
        <ele>392.4</ele>
      </trkpt>
      <trkpt lat="46.87242" lon="4.69632">
        <ele>403.6</ele>
      </trkpt>
      <trkpt lat="46.87055" lon="4.69492">
        <ele>408.9</ele>
      </trkpt>
      <trkpt lat="46.87009" lon="4.69535">
        <ele>414</ele>
      </trkpt>
      <trkpt lat="46.86955" lon="4.69723">
        <ele>415.7</ele>
      </trkpt>
      <trkpt lat="46.86876" lon="4.69796">
        <ele>413.9</ele>
      </trkpt>
      <trkpt lat="46.86777" lon="4.69826">
        <ele>414.8</ele>
      </trkpt>
      <trkpt lat="46.86569" lon="4.69802">
        <ele>406</ele>
      </trkpt>
      <trkpt lat="46.86477" lon="4.69759">
        <ele>399.6</ele>
      </trkpt>
      <trkpt lat="46.86336" lon="4.69583">
        <ele>404.4</ele>
      </trkpt>
      <trkpt lat="46.86334" lon="4.69565">
        <ele>403.875</ele>
        <time>2015-11-07T09:46:11Z</time>
      </trkpt>
      <trkpt lat="46.86211" lon="4.69541">
        <ele>402.59375</ele>
        <time>2015-11-07T09:47:00Z</time>
      </trkpt>
      <trkpt lat="46.8612" lon="4.69479">
        <ele>398.801849</ele>
        <time>2015-11-07T09:47:24Z</time>
      </trkpt>
      <trkpt lat="46.86089" lon="4.69443">
        <ele>395.237122</ele>
        <time>2015-11-07T09:47:31Z</time>
      </trkpt>
      <trkpt lat="46.86065" lon="4.69407">
        <ele>390.925812</ele>
        <time>2015-11-07T09:47:36Z</time>
      </trkpt>
      <trkpt lat="46.85868" lon="4.69241">
        <ele>389.412354</ele>
        <time>2015-11-07T09:48:23Z</time>
      </trkpt>
      <trkpt lat="46.85637" lon="4.69103">
        <ele>397.607483</ele>
        <time>2015-11-07T09:49:37Z</time>
      </trkpt>
      <trkpt lat="46.85526" lon="4.69073">
        <ele>400.36026</ele>
        <time>2015-11-07T09:50:09Z</time>
      </trkpt>
      <trkpt lat="46.85498" lon="4.69064">
        <ele>400.757538</ele>
        <time>2015-11-07T09:50:17Z</time>
      </trkpt>
      <trkpt lat="46.85364" lon="4.69001">
        <ele>400.863739</ele>
        <time>2015-11-07T09:50:55Z</time>
      </trkpt>
      <trkpt lat="46.8533" lon="4.68984">
        <ele>399.063873</ele>
        <time>2015-11-07T09:51:03Z</time>
      </trkpt>
      <trkpt lat="46.85158" lon="4.68889">
        <ele>394.855011</ele>
        <time>2015-11-07T09:51:45Z</time>
      </trkpt>
      <trkpt lat="46.85127" lon="4.68851">
        <ele>394.56369</ele>
        <time>2015-11-07T09:51:56Z</time>
      </trkpt>
      <trkpt lat="46.8512" lon="4.68795">
        <ele>394.023743</ele>
        <time>2015-11-07T09:52:05Z</time>
      </trkpt>
      <trkpt lat="46.85119" lon="4.68691">
        <ele>388.666565</ele>
        <time>2015-11-07T09:52:16Z</time>
      </trkpt>
      <trkpt lat="46.85105" lon="4.68677">
        <ele>387.540802</ele>
        <time>2015-11-07T09:52:19Z</time>
      </trkpt>
      <trkpt lat="46.84925" lon="4.68679">
        <ele>385.794189</ele>
        <time>2015-11-07T09:52:49Z</time>
      </trkpt>
      <trkpt lat="46.849" lon="4.68651">
        <ele>384.956512</ele>
        <time>2015-11-07T09:52:55Z</time>
      </trkpt>
      <trkpt lat="46.84835" lon="4.68617">
        <ele>384.031036</ele>
        <time>2015-11-07T09:53:11Z</time>
      </trkpt>
      <trkpt lat="46.84817" lon="4.68667">
        <ele>383.502411</ele>
        <time>2015-11-07T09:53:19Z</time>
      </trkpt>
      <trkpt lat="46.84809" lon="4.68743">
        <ele>378.972504</ele>
        <time>2015-11-07T09:53:26Z</time>
      </trkpt>
      <trkpt lat="46.84773" lon="4.68783">
        <ele>374.649658</ele>
        <time>2015-11-07T09:53:35Z</time>
      </trkpt>
      <trkpt lat="46.84768" lon="4.6879">
        <ele>373.717346</ele>
        <time>2015-11-07T09:53:39Z</time>
      </trkpt>
      <trkpt lat="46.84767" lon="4.68789">
        <ele>373.768097</ele>
        <time>2015-11-07T09:53:58Z</time>
      </trkpt>
      <trkpt lat="46.84739" lon="4.68781">
        <ele>372.616669</ele>
        <time>2015-11-07T09:54:07Z</time>
      </trkpt>
      <trkpt lat="46.84687" lon="4.68774">
        <ele>369.415009</ele>
        <time>2015-11-07T09:54:15Z</time>
      </trkpt>
      <trkpt lat="46.84662" lon="4.6879">
        <ele>364.859955</ele>
        <time>2015-11-07T09:54:20Z</time>
      </trkpt>
      <trkpt lat="46.84649" lon="4.68814">
        <ele>360.310822</ele>
        <time>2015-11-07T09:54:23Z</time>
      </trkpt>
      <trkpt lat="46.846" lon="4.68925">
        <ele>344.24707</ele>
        <time>2015-11-07T09:54:33Z</time>
      </trkpt>
      <trkpt lat="46.84615" lon="4.68988">
        <ele>335.19165</ele>
        <time>2015-11-07T09:54:40Z</time>
      </trkpt>
      <trkpt lat="46.84623" lon="4.69048">
        <ele>330.071411</ele>
        <time>2015-11-07T09:54:45Z</time>
      </trkpt>
      <trkpt lat="46.84601" lon="4.6908">
        <ele>328.584198</ele>
        <time>2015-11-07T09:54:49Z</time>
      </trkpt>
      <trkpt lat="46.8455" lon="4.69115">
        <ele>320.996246</ele>
        <time>2015-11-07T09:54:55Z</time>
      </trkpt>
      <trkpt lat="46.8452" lon="4.69115">
        <ele>316.932495</ele>
        <time>2015-11-07T09:54:58Z</time>
      </trkpt>
      <trkpt lat="46.84448" lon="4.69093">
        <ele>311.737915</ele>
        <time>2015-11-07T09:55:05Z</time>
      </trkpt>
      <trkpt lat="46.84426" lon="4.69096">
        <ele>309.153809</ele>
        <time>2015-11-07T09:55:07Z</time>
      </trkpt>
      <trkpt lat="46.84406" lon="4.69102">
        <ele>306.645477</ele>
        <time>2015-11-07T09:55:09Z</time>
      </trkpt>
      <trkpt lat="46.84344" lon="4.69153">
        <ele>297.640106</ele>
        <time>2015-11-07T09:55:17Z</time>
      </trkpt>
      <trkpt lat="46.84291" lon="4.69262">
        <ele>287.948425</ele>
        <time>2015-11-07T09:55:32Z</time>
      </trkpt>
      <trkpt lat="46.84265" lon="4.69272">
        <ele>289.032837</ele>
        <time>2015-11-07T09:55:49Z</time>
      </trkpt>
      <trkpt lat="46.84189" lon="4.69256">
        <ele>295.763336</ele>
        <time>2015-11-07T09:56:22Z</time>
      </trkpt>
      <trkpt lat="46.84146" lon="4.69244">
        <ele>298.599365</ele>
        <time>2015-11-07T09:56:41Z</time>
      </trkpt>
      <trkpt lat="46.83994" lon="4.69271">
        <ele>314.935364</ele>
        <time>2015-11-07T09:57:49Z</time>
      </trkpt>
      <trkpt lat="46.83915" lon="4.6932">
        <ele>321.836243</ele>
        <time>2015-11-07T09:58:25Z</time>
      </trkpt>
      <trkpt lat="46.83848" lon="4.69383">
        <ele>323.234253</ele>
        <time>2015-11-07T09:59:03Z</time>
      </trkpt>
      <trkpt lat="46.83766" lon="4.69481">
        <ele>314.227112</ele>
        <time>2015-11-07T09:59:23Z</time>
      </trkpt>
      <trkpt lat="46.8373" lon="4.69535">
        <ele>307.391815</ele>
        <time>2015-11-07T09:59:31Z</time>
      </trkpt>
      <trkpt lat="46.83703" lon="4.69611">
        <ele>299.542236</ele>
        <time>2015-11-07T09:59:37Z</time>
      </trkpt>
      <trkpt lat="46.83599" lon="4.69755">
        <ele>278.546021</ele>
        <time>2015-11-07T09:59:48Z</time>
      </trkpt>
      <trkpt lat="46.83495" lon="4.69811">
        <ele>271.529907</ele>
        <time>2015-11-07T09:59:57Z</time>
      </trkpt>
      <trkpt lat="46.8346" lon="4.69837">
        <ele>273.297913</ele>
        <time>2015-11-07T10:00:02Z</time>
      </trkpt>
      <trkpt lat="46.83464" lon="4.69917">
        <ele>273.959991</ele>
        <time>2015-11-07T10:00:15Z</time>
      </trkpt>
      <trkpt lat="46.83441" lon="4.69859">
        <ele>275.529602</ele>
        <time>2015-11-07T10:00:27Z</time>
      </trkpt>
      <trkpt lat="46.83421" lon="4.69814">
        <ele>276.251648</ele>
        <time>2015-11-07T10:00:37Z</time>
      </trkpt>
      <trkpt lat="46.83411" lon="4.69798">
        <ele>276.466339</ele>
        <time>2015-11-07T10:00:41Z</time>
      </trkpt>
      <trkpt lat="46.83315" lon="4.69702">
        <ele>277.170197</ele>
        <time>2015-11-07T10:01:13Z</time>
      </trkpt>
      <trkpt lat="46.83309" lon="4.69705">
        <ele>277.694092</ele>
        <time>2015-11-07T10:01:15Z</time>
      </trkpt>
      <trkpt lat="46.83285" lon="4.6976">
        <ele>281.435028</ele>
        <time>2015-11-07T10:01:33Z</time>
      </trkpt>
      <trkpt lat="46.83258" lon="4.6988">
        <ele>291.949524</ele>
        <time>2015-11-07T10:02:16Z</time>
      </trkpt>
      <trkpt lat="46.83225" lon="4.69952">
        <ele>298.674927</ele>
        <time>2015-11-07T10:02:51Z</time>
      </trkpt>
      <trkpt lat="46.83036" lon="4.7042">
        <ele>320.932404</ele>
        <time>2015-11-07T10:06:17Z</time>
      </trkpt>
      <trkpt lat="46.82916" lon="4.70405">
        <ele>328.142487</ele>
        <time>2015-11-07T10:07:10Z</time>
      </trkpt>
      <trkpt lat="46.82897" lon="4.70389">
        <ele>328.798737</ele>
        <time>2015-11-07T10:07:20Z</time>
      </trkpt>
      <trkpt lat="46.82894" lon="4.70393">
        <ele>329</ele>
        <time>2015-11-07T10:07:23Z</time>
      </trkpt>
      <trkpt lat="46.8291" lon="4.7049">
        <ele>328.504425</ele>
        <time>2015-11-07T10:07:47Z</time>
      </trkpt>
      <trkpt lat="46.82912" lon="4.70502">
        <ele>328.303131</ele>
        <time>2015-11-07T10:07:50Z</time>
      </trkpt>
      <trkpt lat="46.82901" lon="4.70531">
        <ele>328.256531</ele>
        <time>2015-11-07T10:07:57Z</time>
      </trkpt>
      <trkpt lat="46.8286" lon="4.70563">
        <ele>329.493744</ele>
        <time>2015-11-07T10:08:12Z</time>
      </trkpt>
      <trkpt lat="46.82824" lon="4.70631">
        <ele>329.443756</ele>
        <time>2015-11-07T10:08:30Z</time>
      </trkpt>
      <trkpt lat="46.82776" lon="4.70668">
        <ele>330.922943</ele>
        <time>2015-11-07T10:08:44Z</time>
      </trkpt>
      <trkpt lat="46.82747" lon="4.70702">
        <ele>331.217316</ele>
        <time>2015-11-07T10:08:53Z</time>
      </trkpt>
      <trkpt lat="46.82691" lon="4.70805">
        <ele>328.395477</ele>
        <time>2015-11-07T10:09:15Z</time>
      </trkpt>
      <trkpt lat="46.82654" lon="4.70862">
        <ele>324.999847</ele>
        <time>2015-11-07T10:09:25Z</time>
      </trkpt>
      <trkpt lat="46.82594" lon="4.70907">
        <ele>321.720245</ele>
        <time>2015-11-07T10:09:35Z</time>
      </trkpt>
      <trkpt lat="46.82559" lon="4.70929">
        <ele>318.797028</ele>
        <time>2015-11-07T10:09:41Z</time>
      </trkpt>
      <trkpt lat="46.82543" lon="4.70946">
        <ele>317.038788</ele>
        <time>2015-11-07T10:09:44Z</time>
      </trkpt>
      <trkpt lat="46.8248" lon="4.71023">
        <ele>308.656555</ele>
        <time>2015-11-07T10:09:57Z</time>
      </trkpt>
      <trkpt lat="46.82427" lon="4.71121">
        <ele>314.705536</ele>
        <time>2015-11-07T10:10:12Z</time>
      </trkpt>
      <trkpt lat="46.82409" lon="4.71179">
        <ele>319.557404</ele>
        <time>2015-11-07T10:10:25Z</time>
      </trkpt>
      <trkpt lat="46.82397" lon="4.71199">
        <ele>317.74881</ele>
        <time>2015-11-07T10:10:33Z</time>
      </trkpt>
      <trkpt lat="46.8239" lon="4.71229">
        <ele>313.514557</ele>
        <time>2015-11-07T10:10:40Z</time>
      </trkpt>
      <trkpt lat="46.82385" lon="4.71272">
        <ele>306.442505</ele>
        <time>2015-11-07T10:10:50Z</time>
      </trkpt>
      <trkpt lat="46.82383" lon="4.71279">
        <ele>304.820007</ele>
        <time>2015-11-07T10:10:52Z</time>
      </trkpt>
      <trkpt lat="46.82332" lon="4.71282">
        <ele>295.712494</ele>
        <time>2015-11-07T10:11:01Z</time>
      </trkpt>
      <trkpt lat="46.82096" lon="4.71208">
        <ele>285.24588</ele>
        <time>2015-11-07T10:11:33Z</time>
      </trkpt>
      <trkpt lat="46.8209" lon="4.71212">
        <ele>284.572601</ele>
        <time>2015-11-07T10:11:35Z</time>
      </trkpt>
      <trkpt lat="46.82081" lon="4.71266">
        <ele>280.76001</ele>
        <time>2015-11-07T10:11:41Z</time>
      </trkpt>
      <trkpt lat="46.82048" lon="4.71313">
        <ele>278.492645</ele>
        <time>2015-11-07T10:11:48Z</time>
      </trkpt>
      <trkpt lat="46.81979" lon="4.71278">
        <ele>279.862488</ele>
        <time>2015-11-07T10:12:10Z</time>
      </trkpt>
      <trkpt lat="46.81957" lon="4.71325">
        <ele>278.092499</ele>
        <time>2015-11-07T10:12:21Z</time>
      </trkpt>
      <trkpt lat="46.81904" lon="4.71336">
        <ele>276.453583</ele>
        <time>2015-11-07T10:12:31Z</time>
      </trkpt>
      <trkpt lat="46.81869" lon="4.7138">
        <ele>271.852905</ele>
        <time>2015-11-07T10:12:40Z</time>
      </trkpt>
      <trkpt lat="46.81841" lon="4.71406">
        <ele>266.598206</ele>
        <time>2015-11-07T10:12:55Z</time>
      </trkpt>
      <trkpt lat="46.81796" lon="4.71397">
        <ele>260.653137</ele>
        <time>2015-11-07T10:13:05Z</time>
      </trkpt>
      <trkpt lat="46.81774" lon="4.71425">
        <ele>255.50798</ele>
        <time>2015-11-07T10:13:08Z</time>
      </trkpt>
      <trkpt lat="46.81735" lon="4.7152">
        <ele>247.857498</ele>
        <time>2015-11-07T10:13:16Z</time>
      </trkpt>
      <trkpt lat="46.81652" lon="4.71662">
        <ele>238.551025</ele>
        <time>2015-11-07T10:13:43Z</time>
      </trkpt>
      <trkpt lat="46.81407" lon="4.71997">
        <ele>230.38562</ele>
        <time>2015-11-07T10:14:34Z</time>
      </trkpt>
      <trkpt lat="46.81271" lon="4.72191">
        <ele>215.169998</ele>
        <time>2015-11-07T10:14:57Z</time>
      </trkpt>
      <trkpt lat="46.81228" lon="4.72283">
        <ele>212.771255</ele>
        <time>2015-11-07T10:15:09Z</time>
      </trkpt>
      <trkpt lat="46.81195" lon="4.72334">
        <ele>211.028976</ele>
        <time>2015-11-07T10:15:20Z</time>
      </trkpt>
      <trkpt lat="46.81169" lon="4.72348">
        <ele>211.255432</ele>
        <time>2015-11-07T10:15:28Z</time>
      </trkpt>
      <trkpt lat="46.81079" lon="4.72349">
        <ele>216.63208</ele>
        <time>2015-11-07T10:16:07Z</time>
      </trkpt>
      <trkpt lat="46.81096" lon="4.72278">
        <ele>217.875</ele>
        <time>2015-11-07T10:16:19Z</time>
      </trkpt>
      <trkpt lat="46.81106" lon="4.72181">
        <ele>219.759995</ele>
        <time>2015-11-07T10:16:31Z</time>
      </trkpt>
      <trkpt lat="46.81098" lon="4.72078">
        <ele>220.099197</ele>
        <time>2015-11-07T10:16:43Z</time>
      </trkpt>
      <trkpt lat="46.81058" lon="4.72027">
        <ele>224.227417</ele>
        <time>2015-11-07T10:17:03Z</time>
      </trkpt>
      <trkpt lat="46.8105" lon="4.7202">
        <ele>225.276047</ele>
        <time>2015-11-07T10:17:08Z</time>
      </trkpt>
      <trkpt lat="46.81029" lon="4.72012">
        <ele>228.002701</ele>
        <time>2015-11-07T10:17:20Z</time>
      </trkpt>
      <trkpt lat="46.80977" lon="4.72009">
        <ele>234.078995</ele>
        <time>2015-11-07T10:17:50Z</time>
      </trkpt>
      <trkpt lat="46.80519" lon="4.71769">
        <ele>271.577545</ele>
        <time>2015-11-07T10:22:18Z</time>
      </trkpt>
      <trkpt lat="46.80483" lon="4.71766">
        <ele>276.217743</ele>
        <time>2015-11-07T10:22:46Z</time>
      </trkpt>
      <trkpt lat="46.80441" lon="4.71714">
        <ele>279.983307</ele>
        <time>2015-11-07T10:23:24Z</time>
      </trkpt>
      <trkpt lat="46.80371" lon="4.71676">
        <ele>287.581238</ele>
        <time>2015-11-07T10:24:28Z</time>
      </trkpt>
      <trkpt lat="46.80362" lon="4.71666">
        <ele>287.900024</ele>
        <time>2015-11-07T10:24:29Z</time>
      </trkpt>
      <trkpt lat="46.80337" lon="4.71667">
        <ele>290.789093</ele>
        <time>2015-11-07T10:24:45Z</time>
      </trkpt>
      <trkpt lat="46.80113" lon="4.71637">
        <ele>310.187103</ele>
        <time>2015-11-07T10:27:33Z</time>
      </trkpt>
      <trkpt lat="46.80051" lon="4.71631">
        <ele>316.93103</ele>
        <time>2015-11-07T10:28:33Z</time>
      </trkpt>
      <trkpt lat="46.79946" lon="4.71586">
        <ele>331.797485</ele>
        <time>2015-11-07T10:30:01Z</time>
      </trkpt>
      <trkpt lat="46.79881" lon="4.71566">
        <ele>340.22641</ele>
        <time>2015-11-07T10:30:47Z</time>
      </trkpt>
      <trkpt lat="46.79827" lon="4.71556">
        <ele>347.575012</ele>
        <time>2015-11-07T10:31:21Z</time>
      </trkpt>
      <trkpt lat="46.7981" lon="4.71561">
        <ele>349.800873</ele>
        <time>2015-11-07T10:31:33Z</time>
      </trkpt>
      <trkpt lat="46.79753" lon="4.71563">
        <ele>354.827728</ele>
        <time>2015-11-07T10:32:16Z</time>
      </trkpt>
      <trkpt lat="46.79692" lon="4.71554">
        <ele>354.764984</ele>
        <time>2015-11-07T10:32:47Z</time>
      </trkpt>
      <trkpt lat="46.79678" lon="4.71528">
        <ele>354.663391</ele>
        <time>2015-11-07T10:32:56Z</time>
      </trkpt>
      <trkpt lat="46.79685" lon="4.71468">
        <ele>356.771332</ele>
        <time>2015-11-07T10:33:15Z</time>
      </trkpt>
      <trkpt lat="46.79694" lon="4.71414">
        <ele>359.365387</ele>
        <time>2015-11-07T10:33:34Z</time>
      </trkpt>
      <trkpt lat="46.79695" lon="4.71382">
        <ele>361.122864</ele>
        <time>2015-11-07T10:33:44Z</time>
      </trkpt>
      <trkpt lat="46.79659" lon="4.7134">
        <ele>363.342773</ele>
        <time>2015-11-07T10:34:07Z</time>
      </trkpt>
      <trkpt lat="46.79637" lon="4.71324">
        <ele>363.350006</ele>
        <time>2015-11-07T10:34:18Z</time>
      </trkpt>
      <trkpt lat="46.79574" lon="4.71238">
        <ele>367.254211</ele>
        <time>2015-11-07T10:34:54Z</time>
      </trkpt>
      <trkpt lat="46.79564" lon="4.71199">
        <ele>370.246979</ele>
        <time>2015-11-07T10:35:07Z</time>
      </trkpt>
      <trkpt lat="46.7952" lon="4.71097">
        <ele>375.698608</ele>
        <time>2015-11-07T10:35:54Z</time>
      </trkpt>
      <trkpt lat="46.79524" lon="4.71035">
        <ele>377.334991</ele>
        <time>2015-11-07T10:36:15Z</time>
      </trkpt>
      <trkpt lat="46.79542" lon="4.70993">
        <ele>377.98999</ele>
        <time>2015-11-07T10:36:26Z</time>
      </trkpt>
      <trkpt lat="46.79599" lon="4.70917">
        <ele>375.090424</ele>
      </trkpt>
      <trkpt lat="46.79225" lon="4.7073">
        <ele>403.586334</ele>
      </trkpt>
      <trkpt lat="46.79065" lon="4.70644">
        <ele>414.75885</ele>
      </trkpt>
      <trkpt lat="46.78912" lon="4.70637">
        <ele>426.095001</ele>
      </trkpt>
      <trkpt lat="46.78757" lon="4.70736">
        <ele>428.97226</ele>
      </trkpt>
      <trkpt lat="46.78565" lon="4.71127">
        <ele>427.498779</ele>
      </trkpt>
      <trkpt lat="46.7855" lon="4.71382">
        <ele>415.779785</ele>
      </trkpt>
      <trkpt lat="46.78552" lon="4.71539">
        <ele>404.671844</ele>
      </trkpt>
      <trkpt lat="46.78531" lon="4.71616">
        <ele>398.821259</ele>
      </trkpt>
      <trkpt lat="46.78418" lon="4.71648">
        <ele>386.850098</ele>
      </trkpt>
      <trkpt lat="46.78391" lon="4.71728">
        <ele>380.496246</ele>
      </trkpt>
      <trkpt lat="46.78406" lon="4.71794">
        <ele>378.895355</ele>
      </trkpt>
      <trkpt lat="46.784" lon="4.71847">
        <ele>375.595459</ele>
      </trkpt>
      <trkpt lat="46.78397" lon="4.71905">
        <ele>372.323212</ele>
      </trkpt>
      <trkpt lat="46.78446" lon="4.72134">
        <ele>360.568756</ele>
      </trkpt>
      <trkpt lat="46.78432" lon="4.72146">
        <ele>358.668762</ele>
      </trkpt>
      <trkpt lat="46.78429" lon="4.72195">
        <ele>354.710541</ele>
      </trkpt>
      <trkpt lat="46.78477" lon="4.72253">
        <ele>353.818756</ele>
      </trkpt>
      <trkpt lat="46.78535" lon="4.72373">
        <ele>346.366241</ele>
      </trkpt>
      <trkpt lat="46.78576" lon="4.72457">
        <ele>341.589569</ele>
      </trkpt>
      <trkpt lat="46.78553" lon="4.72607">
        <ele>326.665771</ele>
      </trkpt>
      <trkpt lat="46.78529" lon="4.72681">
        <ele>323.01532</ele>
      </trkpt>
      <trkpt lat="46.78498" lon="4.7267">
        <ele>311.899567</ele>
      </trkpt>
      <trkpt lat="46.78436" lon="4.7271">
        <ele>299.35553</ele>
      </trkpt>
      <trkpt lat="46.78382" lon="4.72809">
        <ele>293.401764</ele>
      </trkpt>
      <trkpt lat="46.7837" lon="4.72838">
        <ele>291.129242</ele>
      </trkpt>
      <trkpt lat="46.78341" lon="4.72843">
        <ele>286.998169</ele>
      </trkpt>
      <trkpt lat="46.78264" lon="4.7299">
        <ele>274.957031</ele>
      </trkpt>
      <trkpt lat="46.78276" lon="4.73132">
        <ele>258.705597</ele>
      </trkpt>
      <trkpt lat="46.7826" lon="4.73282">
        <ele>247.631027</ele>
      </trkpt>
      <trkpt lat="46.7823" lon="4.73415">
        <ele>242.383026</ele>
      </trkpt>
      <trkpt lat="46.78332" lon="4.73511">
        <ele>234.5</ele>
      </trkpt>
      <trkpt lat="46.78412" lon="4.73655">
        <ele>229.92</ele>
      </trkpt>
      <trkpt lat="46.7847" lon="4.73792">
        <ele>228.7</ele>
      </trkpt>
      <trkpt lat="46.78359" lon="4.74154">
        <ele>222.76</ele>
      </trkpt>
      <trkpt lat="46.78312" lon="4.74324">
        <ele>224.5</ele>
      </trkpt>
      <trkpt lat="46.78264" lon="4.74463">
        <ele>222.2</ele>
      </trkpt>
      <trkpt lat="46.78212" lon="4.74438">
        <ele>221.8</ele>
      </trkpt>
      <trkpt lat="46.78164" lon="4.744">
        <ele>221.1</ele>
      </trkpt>
      <trkpt lat="46.78133" lon="4.74355">
        <ele>220.4</ele>
      </trkpt>
      <trkpt lat="46.78166" lon="4.74247">
        <ele>223</ele>
      </trkpt>
      <trkpt lat="46.78166" lon="4.74219">
        <ele>222.8</ele>
      </trkpt>
      <trkpt lat="46.78207" lon="4.74143">
        <ele>223.3</ele>
      </trkpt>
      <trkpt lat="46.78016" lon="4.73906">
        <ele>225.8</ele>
      </trkpt>
      <trkpt lat="46.77758" lon="4.73376">
        <ele>227</ele>
      </trkpt>
      <trkpt lat="46.77548" lon="4.72986">
        <ele>236</ele>
      </trkpt>
      <trkpt lat="46.77405" lon="4.72749">
        <ele>242.3</ele>
      </trkpt>
      <trkpt lat="46.77189" lon="4.72641">
        <ele>241</ele>
      </trkpt>
      <trkpt lat="46.77144" lon="4.72743">
        <ele>238</ele>
      </trkpt>
      <trkpt lat="46.7707" lon="4.72882">
        <ele>235</ele>
      </trkpt>
      <trkpt lat="46.7702" lon="4.72967">
        <ele>233</ele>
      </trkpt>
      <trkpt lat="46.77012" lon="4.72965">
        <ele>232</ele>
      </trkpt>
      <trkpt lat="46.76946" lon="4.72907">
        <ele>231</ele>
      </trkpt>
      <trkpt lat="46.76939" lon="4.72911">
        <ele>230</ele>
      </trkpt>
      <trkpt lat="46.76829" lon="4.72818">
        <ele>232</ele>
      </trkpt>
      <trkpt lat="46.76821" lon="4.72826">
        <ele>232</ele>
      </trkpt>
      <trkpt lat="46.76752" lon="4.72984">
        <ele>228</ele>
      </trkpt>
      <trkpt lat="46.7665" lon="4.73157">
        <ele>225</ele>
      </trkpt>
      <trkpt lat="46.76458" lon="4.73741">
        <ele>224</ele>
      </trkpt>
      <trkpt lat="46.76423" lon="4.73786">
        <ele>225</ele>
      </trkpt>
      <trkpt lat="46.76359" lon="4.73822">
        <ele>226</ele>
      </trkpt>
      <trkpt lat="46.76309" lon="4.73827">
        <ele>226</ele>
      </trkpt>
      <trkpt lat="46.76283" lon="4.7382">
        <ele>226</ele>
      </trkpt>
      <trkpt lat="46.76234" lon="4.73785">
        <ele>225</ele>
      </trkpt>
      <trkpt lat="46.76196" lon="4.73772">
        <ele>224</ele>
      </trkpt>
      <trkpt lat="46.75938" lon="4.73447">
        <ele>223</ele>
      </trkpt>
      <trkpt lat="46.7589" lon="4.73436">
        <ele>222</ele>
      </trkpt>
      <trkpt lat="46.75881" lon="4.7343">
        <ele>222</ele>
      </trkpt>
      <trkpt lat="46.75874" lon="4.7342">
        <ele>222</ele>
      </trkpt>
      <trkpt lat="46.75869" lon="4.73406">
        <ele>222</ele>
      </trkpt>
      <trkpt lat="46.7585" lon="4.73334">
        <ele>222</ele>
      </trkpt>
      <trkpt lat="46.75843" lon="4.73322">
        <ele>222</ele>
      </trkpt>
      <trkpt lat="46.75262" lon="4.72601">
        <ele>218</ele>
      </trkpt>
      <trkpt lat="46.75238" lon="4.72586">
        <ele>218</ele>
      </trkpt>
      <trkpt lat="46.75225" lon="4.72566">
        <ele>217</ele>
      </trkpt>
      <trkpt lat="46.74927" lon="4.72389">
        <ele>213</ele>
      </trkpt>
      <trkpt lat="46.74831" lon="4.72358">
        <ele>213</ele>
      </trkpt>
      <trkpt lat="46.74707" lon="4.72333">
        <ele>215</ele>
      </trkpt>
      <trkpt lat="46.7334" lon="4.72081">
        <ele>217</ele>
      </trkpt>
      <trkpt lat="46.73172" lon="4.7199">
        <ele>219</ele>
      </trkpt>
      <trkpt lat="46.73124" lon="4.71953">
        <ele>221</ele>
      </trkpt>
      <trkpt lat="46.73057" lon="4.71913">
        <ele>223</ele>
      </trkpt>
      <trkpt lat="46.72899" lon="4.71824">
        <ele>227</ele>
      </trkpt>
      <trkpt lat="46.72887" lon="4.71804">
        <ele>227</ele>
      </trkpt>
      <trkpt lat="46.72865" lon="4.71803">
        <ele>227</ele>
      </trkpt>
      <trkpt lat="46.72854" lon="4.718">
        <ele>227</ele>
      </trkpt>
      <trkpt lat="46.72768" lon="4.71742">
        <ele>223</ele>
      </trkpt>
      <trkpt lat="46.72519" lon="4.7156">
        <ele>215</ele>
      </trkpt>
      <trkpt lat="46.72131" lon="4.71159">
        <ele>232</ele>
      </trkpt>
      <trkpt lat="46.71872" lon="4.70889">
        <ele>238</ele>
      </trkpt>
      <trkpt lat="46.71379" lon="4.70376">
        <ele>238</ele>
      </trkpt>
      <trkpt lat="46.71343" lon="4.70261">
        <ele>239</ele>
      </trkpt>
      <trkpt lat="46.71337" lon="4.70254">
        <ele>239</ele>
      </trkpt>
      <trkpt lat="46.71335" lon="4.70188">
        <ele>240</ele>
      </trkpt>
      <trkpt lat="46.71341" lon="4.70178">
        <ele>241</ele>
      </trkpt>
      <trkpt lat="46.71349" lon="4.70155">
        <ele>242</ele>
      </trkpt>
      <trkpt lat="46.71351" lon="4.70139">
        <ele>242</ele>
      </trkpt>
      <trkpt lat="46.71384" lon="4.70016">
        <ele>246</ele>
      </trkpt>
      <trkpt lat="46.7143" lon="4.6986">
        <ele>251</ele>
      </trkpt>
      <trkpt lat="46.71431" lon="4.69783">
        <ele>255</ele>
      </trkpt>
      <trkpt lat="46.71404" lon="4.69652">
        <ele>258</ele>
      </trkpt>
      <trkpt lat="46.71417" lon="4.69543">
        <ele>261</ele>
      </trkpt>
      <trkpt lat="46.71411" lon="4.69483">
        <ele>260</ele>
      </trkpt>
      <trkpt lat="46.71372" lon="4.6944">
        <ele>258</ele>
      </trkpt>
      <trkpt lat="46.71332" lon="4.69415">
        <ele>256</ele>
      </trkpt>
      <trkpt lat="46.71262" lon="4.69408">
        <ele>252</ele>
      </trkpt>
      <trkpt lat="46.71201" lon="4.69341">
        <ele>254</ele>
      </trkpt>
      <trkpt lat="46.71207" lon="4.69331">
        <ele>254</ele>
      </trkpt>
      <trkpt lat="46.71232" lon="4.69226">
        <ele>257</ele>
      </trkpt>
      <trkpt lat="46.71235" lon="4.69171">
        <ele>259</ele>
      </trkpt>
      <trkpt lat="46.71225" lon="4.69119">
        <ele>262</ele>
      </trkpt>
      <trkpt lat="46.71202" lon="4.69073">
        <ele>265</ele>
      </trkpt>
      <trkpt lat="46.71167" lon="4.69024">
        <ele>268</ele>
      </trkpt>
      <trkpt lat="46.71103" lon="4.6895">
        <ele>273</ele>
      </trkpt>
      <trkpt lat="46.71045" lon="4.68908">
        <ele>273</ele>
      </trkpt>
      <trkpt lat="46.70987" lon="4.68897">
        <ele>272</ele>
      </trkpt>
      <trkpt lat="46.70919" lon="4.68917">
        <ele>274</ele>
      </trkpt>
      <trkpt lat="46.70877" lon="4.68913">
        <ele>276</ele>
      </trkpt>
      <trkpt lat="46.70835" lon="4.68881">
        <ele>279</ele>
      </trkpt>
      <trkpt lat="46.7081" lon="4.68838">
        <ele>282</ele>
      </trkpt>
      <trkpt lat="46.70734" lon="4.68675">
        <ele>287</ele>
      </trkpt>
      <trkpt lat="46.70609" lon="4.68488">
        <ele>288</ele>
      </trkpt>
      <trkpt lat="46.7058" lon="4.68424">
        <ele>289</ele>
      </trkpt>
      <trkpt lat="46.70569" lon="4.68347">
        <ele>293</ele>
      </trkpt>
      <trkpt lat="46.7057" lon="4.68333">
        <ele>294</ele>
      </trkpt>
      <trkpt lat="46.70591" lon="4.68268">
        <ele>298</ele>
      </trkpt>
      <trkpt lat="46.70716" lon="4.67996">
        <ele>312</ele>
      </trkpt>
      <trkpt lat="46.70711" lon="4.67976">
        <ele>311</ele>
      </trkpt>
      <trkpt lat="46.70707" lon="4.6789">
        <ele>308</ele>
      </trkpt>
      <trkpt lat="46.70704" lon="4.67752">
        <ele>305</ele>
      </trkpt>
      <trkpt lat="46.70711" lon="4.67419">
        <ele>296</ele>
      </trkpt>
      <trkpt lat="46.70703" lon="4.67393">
        <ele>297</ele>
      </trkpt>
      <trkpt lat="46.70697" lon="4.67386">
        <ele>298</ele>
      </trkpt>
      <trkpt lat="46.70631" lon="4.67329">
        <ele>302</ele>
      </trkpt>
      <trkpt lat="46.70567" lon="4.67252">
        <ele>310</ele>
      </trkpt>
      <trkpt lat="46.70565" lon="4.67228">
        <ele>312</ele>
      </trkpt>
      <trkpt lat="46.70525" lon="4.67196">
        <ele>316</ele>
      </trkpt>
      <trkpt lat="46.70488" lon="4.67177">
        <ele>321</ele>
      </trkpt>
      <trkpt lat="46.70482" lon="4.67196">
        <ele>320</ele>
      </trkpt>
      <trkpt lat="46.70478" lon="4.67119">
        <ele>327</ele>
      </trkpt>
      <trkpt lat="46.70468" lon="4.67094">
        <ele>330</ele>
      </trkpt>
      <trkpt lat="46.70453" lon="4.67071">
        <ele>333</ele>
      </trkpt>
      <trkpt lat="46.70439" lon="4.67061">
        <ele>336</ele>
      </trkpt>
      <trkpt lat="46.70423" lon="4.67065">
        <ele>338</ele>
      </trkpt>
      <trkpt lat="46.70444" lon="4.67023">
        <ele>340</ele>
      </trkpt>
      <trkpt lat="46.70449" lon="4.67004">
        <ele>341</ele>
      </trkpt>
      <trkpt lat="46.70477" lon="4.66953">
        <ele>346</ele>
      </trkpt>
      <trkpt lat="46.70531" lon="4.66886">
        <ele>349</ele>
      </trkpt>
      <trkpt lat="46.70487" lon="4.6665">
        <ele>369.224731</ele>
      </trkpt>
      <trkpt lat="46.70477" lon="4.66561">
        <ele>375.381378</ele>
      </trkpt>
      <trkpt lat="46.70458" lon="4.66475">
        <ele>377</ele>
      </trkpt>
      <trkpt lat="46.70458" lon="4.66442">
        <ele>376.848297</ele>
      </trkpt>
      <trkpt lat="46.70481" lon="4.66353">
        <ele>377.387543</ele>
      </trkpt>
      <trkpt lat="46.70491" lon="4.66183">
        <ele>380.030121</ele>
      </trkpt>
      <trkpt lat="46.70518" lon="4.66035">
        <ele>379.016785</ele>
      </trkpt>
      <trkpt lat="46.70509" lon="4.65914">
        <ele>378.598053</ele>
      </trkpt>
      <trkpt lat="46.70466" lon="4.65636">
        <ele>380.974457</ele>
      </trkpt>
      <trkpt lat="46.70467" lon="4.65519">
        <ele>380.950256</ele>
      </trkpt>
      <trkpt lat="46.70441" lon="4.65338">
        <ele>390.382141</ele>
      </trkpt>
      <trkpt lat="46.70454" lon="4.65247">
        <ele>392.393829</ele>
      </trkpt>
      <trkpt lat="46.70492" lon="4.65142">
        <ele>393.022247</ele>
      </trkpt>
      <trkpt lat="46.70479" lon="4.65128">
        <ele>392.220093</ele>
      </trkpt>
      <trkpt lat="46.6992" lon="4.64844">
        <ele>362.445282</ele>
      </trkpt>
      <trkpt lat="46.69897" lon="4.6481">
        <ele>357.75354</ele>
      </trkpt>
      <trkpt lat="46.69885" lon="4.64754">
        <ele>355.849915</ele>
      </trkpt>
      <trkpt lat="46.69711" lon="4.6467">
        <ele>358.770294</ele>
      </trkpt>
      <trkpt lat="46.69707" lon="4.64652">
        <ele>360.16922</ele>
      </trkpt>
      <trkpt lat="46.69719" lon="4.6461">
        <ele>364.083008</ele>
      </trkpt>
      <trkpt lat="46.69722" lon="4.64556">
        <ele>368.950836</ele>
      </trkpt>
      <trkpt lat="46.69704" lon="4.64489">
        <ele>377.541138</ele>
      </trkpt>
      <trkpt lat="46.69683" lon="4.64321">
        <ele>391.233398</ele>
      </trkpt>
      <trkpt lat="46.69651" lon="4.64189">
        <ele>407.606781</ele>
      </trkpt>
      <trkpt lat="46.69656" lon="4.64148">
        <ele>415.31076</ele>
      </trkpt>
      <trkpt lat="46.6965" lon="4.64114">
        <ele>420.189148</ele>
      </trkpt>
      <trkpt lat="46.69603" lon="4.63978">
        <ele>426.810547</ele>
      </trkpt>
      <trkpt lat="46.69577" lon="4.63861">
        <ele>430.549164</ele>
      </trkpt>
      <trkpt lat="46.69551" lon="4.63719">
        <ele>426.821899</ele>
      </trkpt>
      <trkpt lat="46.69565" lon="4.63694">
        <ele>427.865784</ele>
      </trkpt>
      <trkpt lat="46.69559" lon="4.63638">
        <ele>427.0784</ele>
      </trkpt>
      <trkpt lat="46.69506" lon="4.63475">
        <ele>427.153534</ele>
      </trkpt>
      <trkpt lat="46.69496" lon="4.63355">
        <ele>422.007507</ele>
      </trkpt>
      <trkpt lat="46.6948" lon="4.63303">
        <ele>418.437073</ele>
      </trkpt>
      <trkpt lat="46.69422" lon="4.63209">
        <ele>413.945557</ele>
      </trkpt>
      <trkpt lat="46.6938" lon="4.6311">
        <ele>408.121857</ele>
      </trkpt>
      <trkpt lat="46.69386" lon="4.63017">
        <ele>400.275848</ele>
      </trkpt>
      <trkpt lat="46.69377" lon="4.6298">
        <ele>396.465027</ele>
      </trkpt>
      <trkpt lat="46.69323" lon="4.62885">
        <ele>389.115723</ele>
      </trkpt>
      <trkpt lat="46.69291" lon="4.62867">
        <ele>386.320953</ele>
      </trkpt>
      <trkpt lat="46.69264" lon="4.6287">
        <ele>384.192657</ele>
      </trkpt>
      <trkpt lat="46.69238" lon="4.62858">
        <ele>379.661743</ele>
      </trkpt>
      <trkpt lat="46.69187" lon="4.62799">
        <ele>369.675171</ele>
      </trkpt>
      <trkpt lat="46.69162" lon="4.62802">
        <ele>369.075073</ele>
      </trkpt>
      <trkpt lat="46.69098" lon="4.62793">
        <ele>363.024719</ele>
      </trkpt>
      <trkpt lat="46.69028" lon="4.6283">
        <ele>345.229156</ele>
      </trkpt>
      <trkpt lat="46.68923" lon="4.62826">
        <ele>329.162964</ele>
      </trkpt>
      <trkpt lat="46.68841" lon="4.62833">
        <ele>322.465973</ele>
      </trkpt>
      <trkpt lat="46.68801" lon="4.62823">
        <ele>324.840118</ele>
      </trkpt>
      <trkpt lat="46.68769" lon="4.6285">
        <ele>325.106384</ele>
      </trkpt>
      <trkpt lat="46.68766" lon="4.62868">
        <ele>325.060699</ele>
      </trkpt>
      <trkpt lat="46.68751" lon="4.62886">
        <ele>324.256622</ele>
      </trkpt>
      <trkpt lat="46.6867" lon="4.62921">
        <ele>325.372437</ele>
      </trkpt>
      <trkpt lat="46.68652" lon="4.62921">
        <ele>325.995361</ele>
      </trkpt>
      <trkpt lat="46.68629" lon="4.62876">
        <ele>325.548523</ele>
      </trkpt>
      <trkpt lat="46.68571" lon="4.62809">
        <ele>322.357025</ele>
      </trkpt>
      <trkpt lat="46.68555" lon="4.62773">
        <ele>320.440002</ele>
      </trkpt>
      <trkpt lat="46.68501" lon="4.62696">
        <ele>313.131927</ele>
      </trkpt>
      <trkpt lat="46.68471" lon="4.62606">
        <ele>306.41983</ele>
      </trkpt>
      <trkpt lat="46.68472" lon="4.62525">
        <ele>303.163361</ele>
      </trkpt>
      <trkpt lat="46.68503" lon="4.62438">
        <ele>300.973694</ele>
      </trkpt>
      <trkpt lat="46.68509" lon="4.62393">
        <ele>299.943451</ele>
      </trkpt>
      <trkpt lat="46.68486" lon="4.62313">
        <ele>297.857849</ele>
      </trkpt>
      <trkpt lat="46.68447" lon="4.62261">
        <ele>296.152527</ele>
      </trkpt>
      <trkpt lat="46.6843" lon="4.62217">
        <ele>296.772369</ele>
      </trkpt>
      <trkpt lat="46.68407" lon="4.62012">
        <ele>296.670776</ele>
      </trkpt>
      <trkpt lat="46.68368" lon="4.61857">
        <ele>291.84549</ele>
      </trkpt>
      <trkpt lat="46.68346" lon="4.61685">
        <ele>289.763947</ele>
      </trkpt>
      <trkpt lat="46.68279" lon="4.61531">
        <ele>282.769379</ele>
      </trkpt>
      <trkpt lat="46.68222" lon="4.61413">
        <ele>271.263214</ele>
      </trkpt>
      <trkpt lat="46.68202" lon="4.61386">
        <ele>267.826263</ele>
      </trkpt>
      <trkpt lat="46.6814" lon="4.61359">
        <ele>263.547699</ele>
      </trkpt>
      <trkpt lat="46.68088" lon="4.61347">
        <ele>266.215027</ele>
      </trkpt>
      <trkpt lat="46.68079" lon="4.61378">
        <ele>267.187378</ele>
      </trkpt>
      <trkpt lat="46.68061" lon="4.61402">
        <ele>268.565887</ele>
      </trkpt>
      <trkpt lat="46.67958" lon="4.61478">
        <ele>279.065002</ele>
      </trkpt>
      <trkpt lat="46.67914" lon="4.6152">
        <ele>286.055206</ele>
      </trkpt>
      <trkpt lat="46.67811" lon="4.61574">
        <ele>297.166229</ele>
      </trkpt>
      <trkpt lat="46.67747" lon="4.61599">
        <ele>305.369965</ele>
      </trkpt>
      <trkpt lat="46.6771" lon="4.61627">
        <ele>311.551025</ele>
      </trkpt>
      <trkpt lat="46.67795" lon="4.61883">
        <ele>313.261017</ele>
      </trkpt>
      <trkpt lat="46.67821" lon="4.61982">
        <ele>315.767517</ele>
      </trkpt>
      <trkpt lat="46.67824" lon="4.62146">
        <ele>325.708618</ele>
      </trkpt>
      <trkpt lat="46.67758" lon="4.62174">
        <ele>334.316071</ele>
      </trkpt>
      <trkpt lat="46.67713" lon="4.6218">
        <ele>339.974213</ele>
      </trkpt>
      <trkpt lat="46.67672" lon="4.62201">
        <ele>345.016663</ele>
      </trkpt>
      <trkpt lat="46.6761" lon="4.62214">
        <ele>354.286743</ele>
      </trkpt>
      <trkpt lat="46.67575" lon="4.62232">
        <ele>357.957184</ele>
      </trkpt>
      <trkpt lat="46.67393" lon="4.62188">
        <ele>368.315094</ele>
      </trkpt>
      <trkpt lat="46.67286" lon="4.6218">
        <ele>369.456665</ele>
      </trkpt>
      <trkpt lat="46.67145" lon="4.62125">
        <ele>367.334106</ele>
      </trkpt>
      <trkpt lat="46.67076" lon="4.62089">
        <ele>366.315125</ele>
      </trkpt>
      <trkpt lat="46.66836" lon="4.62051">
        <ele>361.491455</ele>
      </trkpt>
      <trkpt lat="46.66827" lon="4.62051">
        <ele>360.603088</ele>
      </trkpt>
      <trkpt lat="46.66806" lon="4.62069">
        <ele>358.498566</ele>
      </trkpt>
      <trkpt lat="46.66766" lon="4.62116">
        <ele>358.581177</ele>
      </trkpt>
      <trkpt lat="46.66669" lon="4.62114">
        <ele>364.049377</ele>
      </trkpt>
      <trkpt lat="46.66591" lon="4.62096">
        <ele>367.394897</ele>
      </trkpt>
      <trkpt lat="46.66544" lon="4.62098">
        <ele>369.27594</ele>
      </trkpt>
      <trkpt lat="46.66542" lon="4.62115">
        <ele>370.56073</ele>
      </trkpt>
      <trkpt lat="46.66554" lon="4.62134">
        <ele>372.213135</ele>
      </trkpt>
      <trkpt lat="46.66672" lon="4.62305">
        <ele>381.564362</ele>
      </trkpt>
      <trkpt lat="46.66675" lon="4.62317">
        <ele>382.318542</ele>
      </trkpt>
      <trkpt lat="46.66682" lon="4.62344">
        <ele>384.160797</ele>
      </trkpt>
      <trkpt lat="46.6669" lon="4.62374">
        <ele>386.477325</ele>
      </trkpt>
      <trkpt lat="46.66704" lon="4.6239">
        <ele>387.245605</ele>
      </trkpt>
      <trkpt lat="46.66818" lon="4.62478">
        <ele>386.5625</ele>
      </trkpt>
      <trkpt lat="46.66833" lon="4.6251">
        <ele>386.279449</ele>
      </trkpt>
      <trkpt lat="46.66836" lon="4.6255">
        <ele>384.187714</ele>
      </trkpt>
      <trkpt lat="46.66797" lon="4.62568">
        <ele>387.78418</ele>
      </trkpt>
      <trkpt lat="46.66736" lon="4.62614">
        <ele>392.19519</ele>
      </trkpt>
      <trkpt lat="46.66628" lon="4.62657">
        <ele>395.976624</ele>
      </trkpt>
      <trkpt lat="46.66574" lon="4.62668">
        <ele>395.99408</ele>
      </trkpt>
      <trkpt lat="46.66393" lon="4.62659">
        <ele>402.992218</ele>
      </trkpt>
      <trkpt lat="46.66356" lon="4.62665">
        <ele>402.509735</ele>
      </trkpt>
      <trkpt lat="46.66322" lon="4.62649">
        <ele>400.837494</ele>
      </trkpt>
      <trkpt lat="46.66309" lon="4.62601">
        <ele>397.927979</ele>
      </trkpt>
      <trkpt lat="46.6632" lon="4.62573">
        <ele>398.17923</ele>
      </trkpt>
      <trkpt lat="46.66283" lon="4.62548">
        <ele>390.003967</ele>
      </trkpt>
      <trkpt lat="46.66264" lon="4.62548">
        <ele>386.863739</ele>
      </trkpt>
      <trkpt lat="46.66247" lon="4.62487">
        <ele>378.697113</ele>
      </trkpt>
      <trkpt lat="46.66219" lon="4.62433">
        <ele>370.354431</ele>
      </trkpt>
      <trkpt lat="46.66145" lon="4.62496">
        <ele>367.340363</ele>
      </trkpt>
      <trkpt lat="46.66136" lon="4.62527">
        <ele>368.873505</ele>
      </trkpt>
      <trkpt lat="46.66161" lon="4.6261">
        <ele>375.35553</ele>
      </trkpt>
      <trkpt lat="46.66176" lon="4.62651">
        <ele>377.640839</ele>
      </trkpt>
      <trkpt lat="46.66211" lon="4.62707">
        <ele>381.567047</ele>
      </trkpt>
      <trkpt lat="46.6629" lon="4.62761">
        <ele>387.946899</ele>
      </trkpt>
      <trkpt lat="46.66356" lon="4.62846">
        <ele>380.755768</ele>
      </trkpt>
      <trkpt lat="46.6647" lon="4.62901">
        <ele>366.681244</ele>
      </trkpt>
      <trkpt lat="46.66526" lon="4.62906">
        <ele>363.27121</ele>
      </trkpt>
      <trkpt lat="46.66542" lon="4.62922">
        <ele>360.221771</ele>
      </trkpt>
      <trkpt lat="46.66601" lon="4.63213">
        <ele>326.259399</ele>
      </trkpt>
      <trkpt lat="46.6664" lon="4.63389">
        <ele>315.768097</ele>
      </trkpt>
      <trkpt lat="46.66653" lon="4.63422">
        <ele>316.153564</ele>
      </trkpt>
      <trkpt lat="46.66674" lon="4.63529">
        <ele>311.232819</ele>
      </trkpt>
      <trkpt lat="46.66681" lon="4.63617">
        <ele>308.347168</ele>
      </trkpt>
      <trkpt lat="46.66712" lon="4.63699">
        <ele>308.913757</ele>
      </trkpt>
      <trkpt lat="46.66742" lon="4.63719">
        <ele>308.819366</ele>
      </trkpt>
      <trkpt lat="46.66751" lon="4.63742">
        <ele>309.317871</ele>
      </trkpt>
      <trkpt lat="46.66742" lon="4.63832">
        <ele>314.292053</ele>
      </trkpt>
      <trkpt lat="46.66786" lon="4.63855">
        <ele>314.600952</ele>
      </trkpt>
      <trkpt lat="46.66805" lon="4.63877">
        <ele>315.568359</ele>
      </trkpt>
      <trkpt lat="46.66813" lon="4.63912">
        <ele>317.392822</ele>
      </trkpt>
      <trkpt lat="46.66823" lon="4.63927">
        <ele>318.055664</ele>
      </trkpt>
      <trkpt lat="46.6689" lon="4.63956">
        <ele>321.147217</ele>
      </trkpt>
      <trkpt lat="46.66905" lon="4.63991">
        <ele>323.619415</ele>
      </trkpt>
      <trkpt lat="46.66958" lon="4.64048">
        <ele>329.394257</ele>
      </trkpt>
      <trkpt lat="46.6698" lon="4.64087">
        <ele>332.687592</ele>
      </trkpt>
      <trkpt lat="46.6699" lon="4.64164">
        <ele>338.509155</ele>
      </trkpt>
      <trkpt lat="46.66984" lon="4.64203">
        <ele>340.84024</ele>
      </trkpt>
      <trkpt lat="46.66955" lon="4.64231">
        <ele>344.530121</ele>
      </trkpt>
      <trkpt lat="46.66882" lon="4.64383">
        <ele>358.363281</ele>
      </trkpt>
      <trkpt lat="46.66837" lon="4.64434">
        <ele>365.114899</ele>
      </trkpt>
      <trkpt lat="46.6679" lon="4.64457">
        <ele>370.201538</ele>
      </trkpt>
      <trkpt lat="46.66745" lon="4.64466">
        <ele>375.443176</ele>
      </trkpt>
      <trkpt lat="46.66665" lon="4.64434">
        <ele>379.079529</ele>
      </trkpt>
      <trkpt lat="46.66631" lon="4.64437">
        <ele>380.179901</ele>
      </trkpt>
      <trkpt lat="46.66564" lon="4.64465">
        <ele>382.693115</ele>
      </trkpt>
      <trkpt lat="46.66507" lon="4.64514">
        <ele>392.33905</ele>
      </trkpt>
      <trkpt lat="46.66409" lon="4.64576">
        <ele>398.447601</ele>
      </trkpt>
      <trkpt lat="46.66329" lon="4.64594">
        <ele>400.833435</ele>
      </trkpt>
      <trkpt lat="46.66303" lon="4.64608">
        <ele>402.275848</ele>
      </trkpt>
      <trkpt lat="46.66196" lon="4.64687">
        <ele>409.542419</ele>
      </trkpt>
      <trkpt lat="46.66106" lon="4.6478">
        <ele>419.994385</ele>
      </trkpt>
      <trkpt lat="46.66066" lon="4.64875">
        <ele>424.196198</ele>
      </trkpt>
      <trkpt lat="46.66034" lon="4.64959">
        <ele>417.876312</ele>
      </trkpt>
      <trkpt lat="46.66017" lon="4.6503">
        <ele>416.803558</ele>
      </trkpt>
      <trkpt lat="46.65978" lon="4.65126">
        <ele>413.183624</ele>
      </trkpt>
      <trkpt lat="46.65924" lon="4.65114">
        <ele>406.354431</ele>
      </trkpt>
      <trkpt lat="46.65908" lon="4.6515">
        <ele>403.352203</ele>
      </trkpt>
      <trkpt lat="46.65892" lon="4.65142">
        <ele>400.381622</ele>
      </trkpt>
      <trkpt lat="46.65849" lon="4.65191">
        <ele>395.216522</ele>
      </trkpt>
      <trkpt lat="46.65777" lon="4.65211">
        <ele>389.043182</ele>
      </trkpt>
      <trkpt lat="46.65765" lon="4.65226">
        <ele>389.232483</ele>
      </trkpt>
      <trkpt lat="46.65712" lon="4.6543">
        <ele>390.578766</ele>
      </trkpt>
      <trkpt lat="46.65742" lon="4.65469">
        <ele>393.953552</ele>
      </trkpt>
      <trkpt lat="46.65747" lon="4.6549">
        <ele>395.982239</ele>
      </trkpt>
      <trkpt lat="46.65731" lon="4.65498">
        <ele>396.427612</ele>
      </trkpt>
      <trkpt lat="46.65686" lon="4.65498">
        <ele>398.581329</ele>
      </trkpt>
      <trkpt lat="46.65644" lon="4.65453">
        <ele>397.550049</ele>
      </trkpt>
      <trkpt lat="46.65616" lon="4.65444">
        <ele>398.249939</ele>
      </trkpt>
      <trkpt lat="46.65587" lon="4.6542">
        <ele>396.704987</ele>
      </trkpt>
      <trkpt lat="46.65562" lon="4.65418">
        <ele>396.098602</ele>
      </trkpt>
      <trkpt lat="46.65519" lon="4.65466">
        <ele>397.999908</ele>
      </trkpt>
      <trkpt lat="46.65515" lon="4.65473">
        <ele>397.980133</ele>
      </trkpt>
      <trkpt lat="46.65509" lon="4.65411">
        <ele>392.036224</ele>
      </trkpt>
      <trkpt lat="46.65479" lon="4.65332">
        <ele>381.835052</ele>
      </trkpt>
      <trkpt lat="46.65411" lon="4.65238">
        <ele>365.408691</ele>
      </trkpt>
      <trkpt lat="46.65371" lon="4.65219">
        <ele>360.906586</ele>
      </trkpt>
      <trkpt lat="46.65338" lon="4.65179">
        <ele>354.530121</ele>
      </trkpt>
      <trkpt lat="46.6532" lon="4.65171">
        <ele>352.499298</ele>
      </trkpt>
      <trkpt lat="46.65299" lon="4.65181">
        <ele>351.345856</ele>
      </trkpt>
      <trkpt lat="46.65233" lon="4.65127">
        <ele>340.536926</ele>
      </trkpt>
      <trkpt lat="46.65238" lon="4.65056">
        <ele>331.294525</ele>
      </trkpt>
      <trkpt lat="46.65215" lon="4.65006">
        <ele>323.186035</ele>
      </trkpt>
      <trkpt lat="46.65194" lon="4.64997">
        <ele>321.035278</ele>
      </trkpt>
      <trkpt lat="46.65158" lon="4.65037">
        <ele>316.876617</ele>
      </trkpt>
      <trkpt lat="46.6514" lon="4.65024">
        <ele>313.862061</ele>
      </trkpt>
      <trkpt lat="46.65123" lon="4.65023">
        <ele>313.485657</ele>
      </trkpt>
      <trkpt lat="46.65108" lon="4.65042">
        <ele>312.404327</ele>
      </trkpt>
      <trkpt lat="46.65103" lon="4.65059">
        <ele>311.489563</ele>
      </trkpt>
      <trkpt lat="46.65098" lon="4.65063">
        <ele>311.523315</ele>
      </trkpt>
      <trkpt lat="46.65071" lon="4.65094">
        <ele>309.383698</ele>
      </trkpt>
      <trkpt lat="46.65054" lon="4.651">
        <ele>310.460938</ele>
      </trkpt>
      <trkpt lat="46.65034" lon="4.65062">
        <ele>323.280731</ele>
      </trkpt>
      <trkpt lat="46.65045" lon="4.65027">
        <ele>325.32373</ele>
      </trkpt>
      <trkpt lat="46.65048" lon="4.6492">
        <ele>331.912354</ele>
      </trkpt>
      <trkpt lat="46.65039" lon="4.64888">
        <ele>334.444183</ele>
      </trkpt>
      <trkpt lat="46.65015" lon="4.64858">
        <ele>340.879852</ele>
      </trkpt>
      <trkpt lat="46.65003" lon="4.64853">
        <ele>342.300964</ele>
      </trkpt>
      <trkpt lat="46.64942" lon="4.64871">
        <ele>351.409485</ele>
      </trkpt>
      <trkpt lat="46.64906" lon="4.64808">
        <ele>354.80899</ele>
      </trkpt>
      <trkpt lat="46.64816" lon="4.64805">
        <ele>361.412445</ele>
      </trkpt>
      <trkpt lat="46.64793" lon="4.64792">
        <ele>362.847809</ele>
      </trkpt>
      <trkpt lat="46.64753" lon="4.64746">
        <ele>365.956451</ele>
      </trkpt>
      <trkpt lat="46.64725" lon="4.64725">
        <ele>368.394196</ele>
      </trkpt>
      <trkpt lat="46.64717" lon="4.64762">
        <ele>367.355835</ele>
      </trkpt>
      <trkpt lat="46.64696" lon="4.64802">
        <ele>367.584412</ele>
      </trkpt>
      <trkpt lat="46.64637" lon="4.64907">
        <ele>379.399292</ele>
      </trkpt>
      <trkpt lat="46.64552" lon="4.65038">
        <ele>392.212769</ele>
      </trkpt>
      <trkpt lat="46.64535" lon="4.65157">
        <ele>394.27121</ele>
      </trkpt>
      <trkpt lat="46.64524" lon="4.65183">
        <ele>393.159515</ele>
      </trkpt>
      <trkpt lat="46.64385" lon="4.65182">
        <ele>401.698395</ele>
      </trkpt>
      <trkpt lat="46.64324" lon="4.65217">
        <ele>403.350372</ele>
      </trkpt>
      <trkpt lat="46.64316" lon="4.6524">
        <ele>401.615631</ele>
      </trkpt>
      <trkpt lat="46.64274" lon="4.6527">
        <ele>399.925262</ele>
      </trkpt>
      <trkpt lat="46.6423" lon="4.65265">
        <ele>400.835205</ele>
      </trkpt>
      <trkpt lat="46.64211" lon="4.65254">
        <ele>401.722076</ele>
      </trkpt>
      <trkpt lat="46.64188" lon="4.65256">
        <ele>401.614838</ele>
      </trkpt>
      <trkpt lat="46.64146" lon="4.65241">
        <ele>402.93335</ele>
      </trkpt>
      <trkpt lat="46.64069" lon="4.65178">
        <ele>402.743347</ele>
      </trkpt>
      <trkpt lat="46.64072" lon="4.65154">
        <ele>404.283752</ele>
      </trkpt>
      <trkpt lat="46.64054" lon="4.65103">
        <ele>401.683899</ele>
      </trkpt>
      <trkpt lat="46.64055" lon="4.65076">
        <ele>401.526825</ele>
      </trkpt>
      <trkpt lat="46.6403" lon="4.64954">
        <ele>399.634125</ele>
      </trkpt>
      <trkpt lat="46.63988" lon="4.64893">
        <ele>395.93454</ele>
      </trkpt>
      <trkpt lat="46.6397" lon="4.64843">
        <ele>391.982635</ele>
      </trkpt>
      <trkpt lat="46.63972" lon="4.648">
        <ele>389.372131</ele>
      </trkpt>
      <trkpt lat="46.63986" lon="4.64754">
        <ele>385.94339</ele>
      </trkpt>
      <trkpt lat="46.6397" lon="4.64658">
        <ele>377.910156</ele>
      </trkpt>
      <trkpt lat="46.63984" lon="4.64588">
        <ele>376.170227</ele>
      </trkpt>
      <trkpt lat="46.63978" lon="4.64572">
        <ele>374.943695</ele>
      </trkpt>
      <trkpt lat="46.63962" lon="4.64577">
        <ele>373.712158</ele>
      </trkpt>
      <trkpt lat="46.63858" lon="4.64652">
        <ele>365.29248</ele>
      </trkpt>
      <trkpt lat="46.63882" lon="4.64691">
        <ele>365.219269</ele>
      </trkpt>
      <trkpt lat="46.63871" lon="4.6488">
        <ele>363.513824</ele>
      </trkpt>
      <trkpt lat="46.63891" lon="4.65231">
        <ele>348.742401</ele>
      </trkpt>
      <trkpt lat="46.63882" lon="4.65291">
        <ele>343.193176</ele>
      </trkpt>
      <trkpt lat="46.63925" lon="4.65437">
        <ele>341.89859</ele>
      </trkpt>
      <trkpt lat="46.6398" lon="4.65533">
        <ele>340.496124</ele>
      </trkpt>
      <trkpt lat="46.64009" lon="4.65603">
        <ele>338.279755</ele>
      </trkpt>
      <trkpt lat="46.6405" lon="4.65645">
        <ele>340.995636</ele>
      </trkpt>
      <trkpt lat="46.64054" lon="4.65674">
        <ele>340.114197</ele>
      </trkpt>
      <trkpt lat="46.64074" lon="4.657">
        <ele>340.601105</ele>
      </trkpt>
      <trkpt lat="46.64076" lon="4.65718">
        <ele>339.822479</ele>
      </trkpt>
      <trkpt lat="46.64023" lon="4.65835">
        <ele>331.227753</ele>
      </trkpt>
      <trkpt lat="46.64021" lon="4.65846">
        <ele>331.122131</ele>
      </trkpt>
      <trkpt lat="46.64064" lon="4.65864">
        <ele>333.735474</ele>
      </trkpt>
      <trkpt lat="46.64066" lon="4.65873">
        <ele>333.83075</ele>
      </trkpt>
      <trkpt lat="46.64013" lon="4.65929">
        <ele>334.678009</ele>
      </trkpt>
      <trkpt lat="46.63995" lon="4.65935">
        <ele>335.776978</ele>
      </trkpt>
      <trkpt lat="46.63814" lon="4.65892">
        <ele>345.596405</ele>
      </trkpt>
      <trkpt lat="46.63773" lon="4.65898">
        <ele>346</ele>
      </trkpt>
      <trkpt lat="46.6373" lon="4.65919">
        <ele>345.936615</ele>
      </trkpt>
      <trkpt lat="46.63627" lon="4.65934">
        <ele>341.532379</ele>
      </trkpt>
      <trkpt lat="46.63605" lon="4.65957">
        <ele>338.882446</ele>
      </trkpt>
      <trkpt lat="46.63581" lon="4.66017">
        <ele>336.315704</ele>
      </trkpt>
      <trkpt lat="46.63561" lon="4.66044">
        <ele>335.140564</ele>
      </trkpt>
      <trkpt lat="46.63541" lon="4.66052">
        <ele>333.40921</ele>
      </trkpt>
      <trkpt lat="46.6347" lon="4.66057">
        <ele>325.403015</ele>
      </trkpt>
      <trkpt lat="46.63443" lon="4.66079">
        <ele>322.605103</ele>
      </trkpt>
      <trkpt lat="46.63432" lon="4.66103">
        <ele>321.942841</ele>
      </trkpt>
      <trkpt lat="46.63396" lon="4.66143">
        <ele>317.18338</ele>
      </trkpt>
      <trkpt lat="46.63233" lon="4.66223">
        <ele>313.0336</ele>
      </trkpt>
      <trkpt lat="46.63171" lon="4.66286">
        <ele>312.108948</ele>
      </trkpt>
      <trkpt lat="46.63099" lon="4.66389">
        <ele>313.7435</ele>
      </trkpt>
      <trkpt lat="46.63066" lon="4.66427">
        <ele>317</ele>
      </trkpt>
      <trkpt lat="46.6303" lon="4.66455">
        <ele>321</ele>
      </trkpt>
      <trkpt lat="46.62915" lon="4.6655">
        <ele>328</ele>
      </trkpt>
      <trkpt lat="46.62863" lon="4.66593">
        <ele>330</ele>
      </trkpt>
      <trkpt lat="46.62799" lon="4.66621">
        <ele>333</ele>
      </trkpt>
      <trkpt lat="46.62753" lon="4.66639">
        <ele>337</ele>
      </trkpt>
      <trkpt lat="46.62614" lon="4.66653">
        <ele>343</ele>
      </trkpt>
      <trkpt lat="46.62466" lon="4.6666">
        <ele>343</ele>
      </trkpt>
      <trkpt lat="46.62421" lon="4.66663">
        <ele>337</ele>
      </trkpt>
      <trkpt lat="46.62272" lon="4.66654">
        <ele>322</ele>
      </trkpt>
      <trkpt lat="46.62123" lon="4.66607">
        <ele>327</ele>
      </trkpt>
      <trkpt lat="46.62063" lon="4.66609">
        <ele>322</ele>
      </trkpt>
      <trkpt lat="46.61993" lon="4.66611">
        <ele>314</ele>
      </trkpt>
      <trkpt lat="46.61951" lon="4.66635">
        <ele>309</ele>
      </trkpt>
      <trkpt lat="46.61923" lon="4.6664">
        <ele>305</ele>
      </trkpt>
      <trkpt lat="46.61887" lon="4.66658">
        <ele>300</ele>
      </trkpt>
      <trkpt lat="46.61814" lon="4.66645">
        <ele>296</ele>
      </trkpt>
      <trkpt lat="46.6179" lon="4.66615">
        <ele>294</ele>
      </trkpt>
      <trkpt lat="46.61731" lon="4.66581">
        <ele>290</ele>
      </trkpt>
      <trkpt lat="46.61588" lon="4.66526">
        <ele>272</ele>
      </trkpt>
      <trkpt lat="46.61575" lon="4.66516">
        <ele>269</ele>
      </trkpt>
      <trkpt lat="46.61552" lon="4.66491">
        <ele>263</ele>
      </trkpt>
      <trkpt lat="46.61517" lon="4.66456">
        <ele>256</ele>
      </trkpt>
      <trkpt lat="46.61463" lon="4.66504">
        <ele>254</ele>
      </trkpt>
      <trkpt lat="46.61449" lon="4.66509">
        <ele>253</ele>
      </trkpt>
      <trkpt lat="46.61434" lon="4.66508">
        <ele>251</ele>
      </trkpt>
      <trkpt lat="46.61429" lon="4.66498">
        <ele>250</ele>
      </trkpt>
      <trkpt lat="46.61427" lon="4.66479">
        <ele>248</ele>
      </trkpt>
      <trkpt lat="46.61408" lon="4.66478">
        <ele>246</ele>
      </trkpt>
      <trkpt lat="46.61396" lon="4.66468">
        <ele>244</ele>
      </trkpt>
      <trkpt lat="46.61378" lon="4.66441">
        <ele>241</ele>
      </trkpt>
      <trkpt lat="46.61401" lon="4.66441">
        <ele>243</ele>
      </trkpt>
      <trkpt lat="46.61412" lon="4.66452">
        <ele>245</ele>
      </trkpt>
      <trkpt lat="46.61421" lon="4.66444">
        <ele>245</ele>
      </trkpt>
      <trkpt lat="46.61416" lon="4.66419">
        <ele>243</ele>
      </trkpt>
      <trkpt lat="46.61425" lon="4.66397">
        <ele>243</ele>
      </trkpt>
      <trkpt lat="46.6143" lon="4.66366">
        <ele>241</ele>
      </trkpt>
      <trkpt lat="46.61438" lon="4.66335">
        <ele>240</ele>
      </trkpt>
      <trkpt lat="46.61435" lon="4.66286">
        <ele>238</ele>
      </trkpt>
      <trkpt lat="46.61402" lon="4.66254">
        <ele>234</ele>
      </trkpt>
      <trkpt lat="46.61323" lon="4.6625">
        <ele>230</ele>
      </trkpt>
      <trkpt lat="46.61304" lon="4.66259">
        <ele>229</ele>
      </trkpt>
      <trkpt lat="46.61236" lon="4.66258">
        <ele>228</ele>
      </trkpt>
      <trkpt lat="46.61203" lon="4.66248">
        <ele>228</ele>
      </trkpt>
      <trkpt lat="46.61014" lon="4.66294">
        <ele>226</ele>
      </trkpt>
      <trkpt lat="46.60942" lon="4.66349">
        <ele>226</ele>
      </trkpt>
      <trkpt lat="46.60913" lon="4.6635">
        <ele>225</ele>
      </trkpt>
      <trkpt lat="46.60747" lon="4.66424">
        <ele>223</ele>
      </trkpt>
      <trkpt lat="46.60669" lon="4.66504">
        <ele>222</ele>
      </trkpt>
      <trkpt lat="46.60651" lon="4.66504">
        <ele>222</ele>
      </trkpt>
      <trkpt lat="46.60613" lon="4.66483">
        <ele>220</ele>
      </trkpt>
      <trkpt lat="46.60582" lon="4.66477">
        <ele>221</ele>
      </trkpt>
      <trkpt lat="46.60561" lon="4.66497">
        <ele>222</ele>
      </trkpt>
      <trkpt lat="46.60544" lon="4.66497">
        <ele>222</ele>
      </trkpt>
      <trkpt lat="46.60449" lon="4.66435">
        <ele>218</ele>
      </trkpt>
      <trkpt lat="46.60429" lon="4.66431">
        <ele>218</ele>
      </trkpt>
      <trkpt lat="46.60415" lon="4.66432">
        <ele>217</ele>
      </trkpt>
      <trkpt lat="46.60322" lon="4.66453">
        <ele>215</ele>
      </trkpt>
      <trkpt lat="46.60314" lon="4.66447">
        <ele>215</ele>
      </trkpt>
      <trkpt lat="46.60307" lon="4.66415">
        <ele>214</ele>
      </trkpt>
      <trkpt lat="46.60262" lon="4.66283">
        <ele>211</ele>
      </trkpt>
      <trkpt lat="46.60221" lon="4.66236">
        <ele>213</ele>
      </trkpt>
      <trkpt lat="46.60205" lon="4.66227">
        <ele>214</ele>
      </trkpt>
      <trkpt lat="46.60194" lon="4.66211">
        <ele>216</ele>
      </trkpt>
      <trkpt lat="46.60188" lon="4.66218">
        <ele>216</ele>
      </trkpt>
      <trkpt lat="46.6012" lon="4.66249">
        <ele>219</ele>
      </trkpt>
      <trkpt lat="46.60049" lon="4.66295">
        <ele>220</ele>
      </trkpt>
      <trkpt lat="46.60005" lon="4.66315">
        <ele>222</ele>
      </trkpt>
      <trkpt lat="46.59969" lon="4.66318">
        <ele>227</ele>
      </trkpt>
      <trkpt lat="46.59922" lon="4.66312">
        <ele>233</ele>
      </trkpt>
      <trkpt lat="46.59887" lon="4.66293">
        <ele>238</ele>
      </trkpt>
      <trkpt lat="46.59712" lon="4.66148">
        <ele>248</ele>
      </trkpt>
      <trkpt lat="46.59621" lon="4.6609">
        <ele>243</ele>
      </trkpt>
      <trkpt lat="46.59596" lon="4.6608">
        <ele>241</ele>
      </trkpt>
      <trkpt lat="46.59577" lon="4.66055">
        <ele>241</ele>
      </trkpt>
      <trkpt lat="46.59509" lon="4.65921">
        <ele>239</ele>
      </trkpt>
      <trkpt lat="46.59508" lon="4.6591">
        <ele>240</ele>
      </trkpt>
      <trkpt lat="46.59456" lon="4.65788">
        <ele>242</ele>
      </trkpt>
      <trkpt lat="46.59436" lon="4.65763">
        <ele>242</ele>
      </trkpt>
      <trkpt lat="46.59398" lon="4.65816">
        <ele>239</ele>
      </trkpt>
      <trkpt lat="46.59332" lon="4.65877">
        <ele>235</ele>
      </trkpt>
      <trkpt lat="46.59308" lon="4.65875">
        <ele>234</ele>
      </trkpt>
      <trkpt lat="46.59188" lon="4.65841">
        <ele>231</ele>
      </trkpt>
      <trkpt lat="46.59178" lon="4.65835">
        <ele>231</ele>
      </trkpt>
      <trkpt lat="46.59133" lon="4.65786">
        <ele>229</ele>
      </trkpt>
      <trkpt lat="46.5906" lon="4.65754">
        <ele>225</ele>
      </trkpt>
      <trkpt lat="46.58936" lon="4.65662">
        <ele>219</ele>
      </trkpt>
      <trkpt lat="46.58899" lon="4.65613">
        <ele>216</ele>
      </trkpt>
      <trkpt lat="46.58884" lon="4.65603">
        <ele>216</ele>
      </trkpt>
      <trkpt lat="46.5856" lon="4.65485">
        <ele>217</ele>
      </trkpt>
      <trkpt lat="46.58524" lon="4.65481">
        <ele>221</ele>
      </trkpt>
      <trkpt lat="46.58494" lon="4.65493">
        <ele>223</ele>
      </trkpt>
      <trkpt lat="46.58451" lon="4.65497">
        <ele>227</ele>
      </trkpt>
      <trkpt lat="46.58415" lon="4.65497">
        <ele>231</ele>
      </trkpt>
      <trkpt lat="46.58347" lon="4.655">
        <ele>238</ele>
      </trkpt>
      <trkpt lat="46.58297" lon="4.65492">
        <ele>244</ele>
      </trkpt>
      <trkpt lat="46.58239" lon="4.65479">
        <ele>248</ele>
      </trkpt>
      <trkpt lat="46.58065" lon="4.65468">
        <ele>250</ele>
      </trkpt>
      <trkpt lat="46.57893" lon="4.65392">
        <ele>250</ele>
      </trkpt>
      <trkpt lat="46.57841" lon="4.65352">
        <ele>251</ele>
      </trkpt>
      <trkpt lat="46.5778" lon="4.65261">
        <ele>255</ele>
      </trkpt>
      <trkpt lat="46.57748" lon="4.65247">
        <ele>255</ele>
      </trkpt>
      <trkpt lat="46.57618" lon="4.6521">
        <ele>258</ele>
      </trkpt>
      <trkpt lat="46.57555" lon="4.65104">
        <ele>261</ele>
      </trkpt>
      <trkpt lat="46.57501" lon="4.65039">
        <ele>264</ele>
      </trkpt>
      <trkpt lat="46.57415" lon="4.64941">
        <ele>266</ele>
      </trkpt>
      <trkpt lat="46.5734" lon="4.64871">
        <ele>269</ele>
      </trkpt>
      <trkpt lat="46.57172" lon="4.64713">
        <ele>273</ele>
      </trkpt>
      <trkpt lat="46.57074" lon="4.64614">
        <ele>276</ele>
      </trkpt>
      <trkpt lat="46.56958" lon="4.64494">
        <ele>282</ele>
      </trkpt>
      <trkpt lat="46.56868" lon="4.64342">
        <ele>284</ele>
      </trkpt>
      <trkpt lat="46.56841" lon="4.64279">
        <ele>282</ele>
      </trkpt>
      <trkpt lat="46.56837" lon="4.64195">
        <ele>278</ele>
      </trkpt>
      <trkpt lat="46.56833" lon="4.6421">
        <ele>278</ele>
      </trkpt>
      <trkpt lat="46.56816" lon="4.64214">
        <ele>277</ele>
      </trkpt>
      <trkpt lat="46.56778" lon="4.64179">
        <ele>272</ele>
      </trkpt>
      <trkpt lat="46.56723" lon="4.6414">
        <ele>264</ele>
      </trkpt>
      <trkpt lat="46.56638" lon="4.64063">
        <ele>257</ele>
      </trkpt>
      <trkpt lat="46.56411" lon="4.63907">
        <ele>262</ele>
      </trkpt>
      <trkpt lat="46.56189" lon="4.63752">
        <ele>259</ele>
      </trkpt>
      <trkpt lat="46.56024" lon="4.63639">
        <ele>252</ele>
      </trkpt>
      <trkpt lat="46.56009" lon="4.63638">
        <ele>250</ele>
      </trkpt>
      <trkpt lat="46.55972" lon="4.63656">
        <ele>248</ele>
      </trkpt>
      <trkpt lat="46.55948" lon="4.63688">
        <ele>246</ele>
      </trkpt>
      <trkpt lat="46.55888" lon="4.63822">
        <ele>242</ele>
      </trkpt>
      <trkpt lat="46.55791" lon="4.63972">
        <ele>234</ele>
      </trkpt>
      <trkpt lat="46.55598" lon="4.64148">
        <ele>232</ele>
      </trkpt>
      <trkpt lat="46.55453" lon="4.64242">
        <ele>234</ele>
      </trkpt>
      <trkpt lat="46.55389" lon="4.64295">
        <ele>235</ele>
      </trkpt>
      <trkpt lat="46.55381" lon="4.64298">
        <ele>235</ele>
      </trkpt>
      <trkpt lat="46.55338" lon="4.64288">
        <ele>236</ele>
      </trkpt>
      <trkpt lat="46.55294" lon="4.64344">
        <ele>236</ele>
      </trkpt>
      <trkpt lat="46.55262" lon="4.6434">
        <ele>236</ele>
      </trkpt>
      <trkpt lat="46.55248" lon="4.64351">
        <ele>235</ele>
      </trkpt>
      <trkpt lat="46.55185" lon="4.64418">
        <ele>231</ele>
      </trkpt>
      <trkpt lat="46.55081" lon="4.645">
        <ele>222</ele>
      </trkpt>
      <trkpt lat="46.5497" lon="4.64606">
        <ele>216</ele>
      </trkpt>
      <trkpt lat="46.54952" lon="4.64603">
        <ele>216</ele>
      </trkpt>
      <trkpt lat="46.54934" lon="4.64581">
        <ele>216</ele>
      </trkpt>
      <trkpt lat="46.54905" lon="4.64532">
        <ele>215</ele>
      </trkpt>
      <trkpt lat="46.54888" lon="4.64518">
        <ele>214</ele>
      </trkpt>
      <trkpt lat="46.54793" lon="4.6451">
        <ele>213</ele>
      </trkpt>
      <trkpt lat="46.54687" lon="4.64492">
        <ele>210</ele>
      </trkpt>
      <trkpt lat="46.54659" lon="4.64463">
        <ele>210</ele>
      </trkpt>
      <trkpt lat="46.54616" lon="4.64388">
        <ele>211</ele>
      </trkpt>
      <trkpt lat="46.54495" lon="4.64288">
        <ele>209</ele>
      </trkpt>
      <trkpt lat="46.54436" lon="4.64155">
        <ele>206</ele>
      </trkpt>
      <trkpt lat="46.54386" lon="4.63961">
        <ele>205</ele>
      </trkpt>
      <trkpt lat="46.54372" lon="4.6393">
        <ele>205</ele>
      </trkpt>
      <trkpt lat="46.54297" lon="4.63883">
        <ele>203</ele>
      </trkpt>
      <trkpt lat="46.54171" lon="4.63842">
        <ele>202</ele>
      </trkpt>
      <trkpt lat="46.54141" lon="4.63866">
        <ele>201</ele>
      </trkpt>
      <trkpt lat="46.5403" lon="4.63986">
        <ele>202</ele>
      </trkpt>
      <trkpt lat="46.53989" lon="4.64006">
        <ele>202</ele>
      </trkpt>
      <trkpt lat="46.53928" lon="4.63994">
        <ele>204</ele>
      </trkpt>
      <trkpt lat="46.53874" lon="4.63959">
        <ele>205</ele>
      </trkpt>
      <trkpt lat="46.5383" lon="4.63931">
        <ele>209</ele>
      </trkpt>
      <trkpt lat="46.53733" lon="4.63861">
        <ele>217</ele>
      </trkpt>
      <trkpt lat="46.53708" lon="4.63828">
        <ele>218</ele>
      </trkpt>
      <trkpt lat="46.53646" lon="4.63768">
        <ele>221</ele>
      </trkpt>
      <trkpt lat="46.5362" lon="4.63757">
        <ele>223</ele>
      </trkpt>
      <trkpt lat="46.53617" lon="4.63768">
        <ele>223</ele>
      </trkpt>
      <trkpt lat="46.53484" lon="4.63957">
        <ele>223</ele>
      </trkpt>
      <trkpt lat="46.53473" lon="4.63969">
        <ele>223</ele>
      </trkpt>
      <trkpt lat="46.53374" lon="4.64024">
        <ele>220</ele>
      </trkpt>
      <trkpt lat="46.53155" lon="4.64225">
        <ele>222</ele>
      </trkpt>
      <trkpt lat="46.53075" lon="4.64242">
        <ele>228</ele>
      </trkpt>
      <trkpt lat="46.52994" lon="4.64253">
        <ele>235</ele>
      </trkpt>
      <trkpt lat="46.52977" lon="4.64243">
        <ele>235</ele>
      </trkpt>
      <trkpt lat="46.52893" lon="4.6422">
        <ele>238</ele>
      </trkpt>
      <trkpt lat="46.5283" lon="4.64222">
        <ele>240</ele>
      </trkpt>
      <trkpt lat="46.52732" lon="4.64191">
        <ele>242</ele>
      </trkpt>
      <trkpt lat="46.52721" lon="4.64191">
        <ele>243</ele>
      </trkpt>
      <trkpt lat="46.52689" lon="4.64176">
        <ele>245</ele>
      </trkpt>
      <trkpt lat="46.52661" lon="4.64136">
        <ele>247</ele>
      </trkpt>
      <trkpt lat="46.52624" lon="4.64107">
        <ele>250</ele>
      </trkpt>
      <trkpt lat="46.52592" lon="4.64098">
        <ele>252</ele>
      </trkpt>
      <trkpt lat="46.52554" lon="4.64081">
        <ele>255</ele>
      </trkpt>
      <trkpt lat="46.52518" lon="4.64072">
        <ele>257</ele>
      </trkpt>
      <trkpt lat="46.5238" lon="4.64007">
        <ele>262</ele>
      </trkpt>
      <trkpt lat="46.52346" lon="4.64">
        <ele>264</ele>
      </trkpt>
      <trkpt lat="46.52282" lon="4.64022">
        <ele>268</ele>
      </trkpt>
      <trkpt lat="46.52214" lon="4.64022">
        <ele>272</ele>
      </trkpt>
      <trkpt lat="46.52165" lon="4.64009">
        <ele>275</ele>
      </trkpt>
      <trkpt lat="46.52132" lon="4.64006">
        <ele>277</ele>
      </trkpt>
      <trkpt lat="46.52123" lon="4.6401">
        <ele>278</ele>
      </trkpt>
      <trkpt lat="46.52043" lon="4.64029">
        <ele>283</ele>
      </trkpt>
      <trkpt lat="46.51998" lon="4.64011">
        <ele>286</ele>
      </trkpt>
      <trkpt lat="46.51935" lon="4.63994">
        <ele>291</ele>
      </trkpt>
      <trkpt lat="46.51878" lon="4.63956">
        <ele>295</ele>
      </trkpt>
      <trkpt lat="46.51831" lon="4.63934">
        <ele>298</ele>
      </trkpt>
      <trkpt lat="46.51709" lon="4.63899">
        <ele>301</ele>
      </trkpt>
      <trkpt lat="46.51603" lon="4.6389">
        <ele>301</ele>
      </trkpt>
      <trkpt lat="46.51591" lon="4.63893">
        <ele>302</ele>
      </trkpt>
      <trkpt lat="46.51504" lon="4.63894">
        <ele>300</ele>
      </trkpt>
      <trkpt lat="46.5149" lon="4.63898">
        <ele>300</ele>
      </trkpt>
      <trkpt lat="46.51405" lon="4.63929">
        <ele>296</ele>
      </trkpt>
      <trkpt lat="46.51321" lon="4.63926">
        <ele>292</ele>
      </trkpt>
      <trkpt lat="46.51302" lon="4.63932">
        <ele>291</ele>
      </trkpt>
      <trkpt lat="46.5126" lon="4.63954">
        <ele>289</ele>
      </trkpt>
      <trkpt lat="46.51172" lon="4.63982">
        <ele>284</ele>
      </trkpt>
      <trkpt lat="46.51144" lon="4.6398">
        <ele>283</ele>
      </trkpt>
      <trkpt lat="46.51099" lon="4.63991">
        <ele>280</ele>
      </trkpt>
      <trkpt lat="46.51033" lon="4.63983">
        <ele>276</ele>
      </trkpt>
      <trkpt lat="46.51044" lon="4.63984">
        <ele>277</ele>
      </trkpt>
      <trkpt lat="46.51042" lon="4.64001">
        <ele>276</ele>
      </trkpt>
      <trkpt lat="46.5099" lon="4.64091">
        <ele>272</ele>
      </trkpt>
      <trkpt lat="46.50954" lon="4.64142">
        <ele>268</ele>
      </trkpt>
      <trkpt lat="46.50902" lon="4.64226">
        <ele>261</ele>
      </trkpt>
      <trkpt lat="46.50814" lon="4.64398">
        <ele>248</ele>
      </trkpt>
      <trkpt lat="46.5073" lon="4.64581">
        <ele>243</ele>
      </trkpt>
      <trkpt lat="46.50708" lon="4.64694">
        <ele>242</ele>
      </trkpt>
      <trkpt lat="46.50696" lon="4.64822">
        <ele>241</ele>
      </trkpt>
      <trkpt lat="46.50703" lon="4.64888">
        <ele>241</ele>
      </trkpt>
      <trkpt lat="46.50444" lon="4.65193">
        <ele>246</ele>
      </trkpt>
      <trkpt lat="46.50531" lon="4.65356">
        <ele>244</ele>
      </trkpt>
      <trkpt lat="46.50592" lon="4.65485">
        <ele>243</ele>
      </trkpt>
      <trkpt lat="46.50621" lon="4.65518">
        <ele>242</ele>
      </trkpt>
      <trkpt lat="46.50691" lon="4.65548">
        <ele>241</ele>
      </trkpt>
      <trkpt lat="46.50689" lon="4.65562">
        <ele>241</ele>
      </trkpt>
      <trkpt lat="46.50597" lon="4.65519">
        <ele>243</ele>
      </trkpt>
      <trkpt lat="46.50573" lon="4.6549">
        <ele>244</ele>
      </trkpt>
      <trkpt lat="46.50562" lon="4.65486">
        <ele>244</ele>
      </trkpt>
      <trkpt lat="46.50551" lon="4.65507">
        <ele>244</ele>
      </trkpt>
      <trkpt lat="46.50542" lon="4.6554">
        <ele>244</ele>
      </trkpt>
      <trkpt lat="46.50538" lon="4.65612">
        <ele>243</ele>
      </trkpt>
      <trkpt lat="46.50464" lon="4.65904">
        <ele>239</ele>
      </trkpt>
      <trkpt lat="46.50395" lon="4.66324">
        <ele>242</ele>
      </trkpt>
      <trkpt lat="46.50389" lon="4.66396">
        <ele>244</ele>
      </trkpt>
      <trkpt lat="46.50453" lon="4.66438">
        <ele>244</ele>
      </trkpt>
      <trkpt lat="46.50497" lon="4.6643">
        <ele>244</ele>
      </trkpt>
      <trkpt lat="46.50542" lon="4.66451">
        <ele>244</ele>
      </trkpt>
      <trkpt lat="46.50648" lon="4.66479">
        <ele>241</ele>
      </trkpt>
      <trkpt lat="46.50828" lon="4.66546">
        <ele>238</ele>
      </trkpt>
      <trkpt lat="46.50931" lon="4.66654">
        <ele>235</ele>
      </trkpt>
      <trkpt lat="46.51232" lon="4.66788">
        <ele>220</ele>
      </trkpt>
      <trkpt lat="46.51269" lon="4.66825">
        <ele>220</ele>
      </trkpt>
      <trkpt lat="46.51289" lon="4.6687">
        <ele>220</ele>
      </trkpt>
      <trkpt lat="46.51331" lon="4.6694">
        <ele>223</ele>
      </trkpt>
      <trkpt lat="46.51254" lon="4.67094">
        <ele>222</ele>
      </trkpt>
      <trkpt lat="46.51213" lon="4.67222">
        <ele>220</ele>
      </trkpt>
      <trkpt lat="46.5119" lon="4.67335">
        <ele>219</ele>
      </trkpt>
      <trkpt lat="46.51176" lon="4.67353">
        <ele>218</ele>
      </trkpt>
      <trkpt lat="46.51152" lon="4.67425">
        <ele>218</ele>
      </trkpt>
      <trkpt lat="46.5114" lon="4.67563">
        <ele>216</ele>
      </trkpt>
      <trkpt lat="46.51181" lon="4.67889">
        <ele>213</ele>
      </trkpt>
      <trkpt lat="46.51202" lon="4.67959">
        <ele>212</ele>
      </trkpt>
      <trkpt lat="46.51195" lon="4.68089">
        <ele>212</ele>
      </trkpt>
      <trkpt lat="46.51017" lon="4.68034">
        <ele>212</ele>
      </trkpt>
      <trkpt lat="46.50386" lon="4.67859">
        <ele>213</ele>
      </trkpt>
      <trkpt lat="46.50279" lon="4.67855">
        <ele>216</ele>
      </trkpt>
      <trkpt lat="46.50155" lon="4.67892">
        <ele>213</ele>
      </trkpt>
      <trkpt lat="46.49749" lon="4.68032">
        <ele>214</ele>
      </trkpt>
      <trkpt lat="46.49286" lon="4.68197">
        <ele>221</ele>
      </trkpt>
      <trkpt lat="46.49248" lon="4.68288">
        <ele>223</ele>
      </trkpt>
      <trkpt lat="46.49189" lon="4.68467">
        <ele>230</ele>
      </trkpt>
      <trkpt lat="46.49177" lon="4.6854">
        <ele>233</ele>
      </trkpt>
      <trkpt lat="46.49132" lon="4.68731">
        <ele>235</ele>
      </trkpt>
      <trkpt lat="46.49133" lon="4.68811">
        <ele>234</ele>
      </trkpt>
      <trkpt lat="46.49127" lon="4.68849">
        <ele>234</ele>
      </trkpt>
      <trkpt lat="46.49083" lon="4.6893">
        <ele>233</ele>
      </trkpt>
      <trkpt lat="46.49054" lon="4.68962">
        <ele>233</ele>
      </trkpt>
      <trkpt lat="46.49012" lon="4.69039">
        <ele>233</ele>
      </trkpt>
      <trkpt lat="46.48988" lon="4.69109">
        <ele>233</ele>
      </trkpt>
      <trkpt lat="46.48939" lon="4.69162">
        <ele>233</ele>
      </trkpt>
      <trkpt lat="46.48943" lon="4.69178">
        <ele>233</ele>
      </trkpt>
      <trkpt lat="46.48991" lon="4.69197">
        <ele>237</ele>
      </trkpt>
      <trkpt lat="46.49007" lon="4.69211">
        <ele>238</ele>
      </trkpt>
      <trkpt lat="46.49134" lon="4.6927">
        <ele>248</ele>
      </trkpt>
      <trkpt lat="46.49214" lon="4.69315">
        <ele>253</ele>
      </trkpt>
      <trkpt lat="46.4944" lon="4.69434">
        <ele>258</ele>
      </trkpt>
      <trkpt lat="46.49429" lon="4.69443">
        <ele>258</ele>
      </trkpt>
      <trkpt lat="46.49342" lon="4.69675">
        <ele>259</ele>
      </trkpt>
      <trkpt lat="46.49332" lon="4.69687">
        <ele>259</ele>
      </trkpt>
      <trkpt lat="46.49274" lon="4.69844">
        <ele>257</ele>
      </trkpt>
      <trkpt lat="46.49268" lon="4.69854">
        <ele>257</ele>
      </trkpt>
      <trkpt lat="46.49262" lon="4.69868">
        <ele>257</ele>
      </trkpt>
      <trkpt lat="46.49273" lon="4.69882">
        <ele>257</ele>
      </trkpt>
      <trkpt lat="46.49275" lon="4.69921">
        <ele>256</ele>
      </trkpt>
      <trkpt lat="46.49271" lon="4.6994">
        <ele>256</ele>
      </trkpt>
      <trkpt lat="46.4924" lon="4.701">
        <ele>253</ele>
      </trkpt>
      <trkpt lat="46.49249" lon="4.70118">
        <ele>253</ele>
      </trkpt>
      <trkpt lat="46.49319" lon="4.70208">
        <ele>254</ele>
      </trkpt>
      <trkpt lat="46.4935" lon="4.70266">
        <ele>256</ele>
      </trkpt>
      <trkpt lat="46.49382" lon="4.70361">
        <ele>261</ele>
      </trkpt>
      <trkpt lat="46.49411" lon="4.70414">
        <ele>262</ele>
      </trkpt>
      <trkpt lat="46.4941" lon="4.70472">
        <ele>264</ele>
      </trkpt>
      <trkpt lat="46.49392" lon="4.70524">
        <ele>265</ele>
      </trkpt>
      <trkpt lat="46.49353" lon="4.70582">
        <ele>267</ele>
      </trkpt>
      <trkpt lat="46.49341" lon="4.70652">
        <ele>269</ele>
      </trkpt>
      <trkpt lat="46.49337" lon="4.70836">
        <ele>276</ele>
      </trkpt>
      <trkpt lat="46.49337" lon="4.70901">
        <ele>279</ele>
      </trkpt>
      <trkpt lat="46.49341" lon="4.70962">
        <ele>283</ele>
      </trkpt>
      <trkpt lat="46.49346" lon="4.71016">
        <ele>286</ele>
      </trkpt>
      <trkpt lat="46.49343" lon="4.71083">
        <ele>290</ele>
      </trkpt>
      <trkpt lat="46.49335" lon="4.71139">
        <ele>293</ele>
      </trkpt>
      <trkpt lat="46.4932" lon="4.712">
        <ele>296</ele>
      </trkpt>
      <trkpt lat="46.49332" lon="4.712">
        <ele>297</ele>
      </trkpt>
      <trkpt lat="46.49355" lon="4.71216">
        <ele>300</ele>
      </trkpt>
      <trkpt lat="46.49629" lon="4.7128">
        <ele>298</ele>
      </trkpt>
      <trkpt lat="46.49636" lon="4.71288">
        <ele>298</ele>
      </trkpt>
      <trkpt lat="46.49635" lon="4.71299">
        <ele>299</ele>
      </trkpt>
      <trkpt lat="46.49623" lon="4.71318">
        <ele>301</ele>
      </trkpt>
      <trkpt lat="46.49598" lon="4.71377">
        <ele>307</ele>
      </trkpt>
      <trkpt lat="46.49585" lon="4.71418">
        <ele>311</ele>
      </trkpt>
      <trkpt lat="46.49571" lon="4.7143">
        <ele>313</ele>
      </trkpt>
      <trkpt lat="46.49577" lon="4.71454">
        <ele>315</ele>
      </trkpt>
      <trkpt lat="46.49571" lon="4.71475">
        <ele>317</ele>
      </trkpt>
      <trkpt lat="46.49544" lon="4.7152">
        <ele>323</ele>
      </trkpt>
      <trkpt lat="46.49538" lon="4.71537">
        <ele>325</ele>
      </trkpt>
      <trkpt lat="46.49519" lon="4.71597">
        <ele>332</ele>
      </trkpt>
      <trkpt lat="46.49514" lon="4.71624">
        <ele>336</ele>
      </trkpt>
      <trkpt lat="46.49506" lon="4.71646">
        <ele>339</ele>
      </trkpt>
      <trkpt lat="46.49495" lon="4.71688">
        <ele>345</ele>
      </trkpt>
      <trkpt lat="46.49491" lon="4.71708">
        <ele>348</ele>
      </trkpt>
      <trkpt lat="46.49488" lon="4.71738">
        <ele>351</ele>
      </trkpt>
      <trkpt lat="46.49481" lon="4.71773">
        <ele>355</ele>
      </trkpt>
      <trkpt lat="46.49469" lon="4.71793">
        <ele>359</ele>
      </trkpt>
      <trkpt lat="46.49449" lon="4.71809">
        <ele>361</ele>
      </trkpt>
      <trkpt lat="46.49443" lon="4.71818">
        <ele>362</ele>
      </trkpt>
      <trkpt lat="46.49415" lon="4.71838">
        <ele>365</ele>
      </trkpt>
      <trkpt lat="46.49411" lon="4.71854">
        <ele>367</ele>
      </trkpt>
      <trkpt lat="46.49415" lon="4.71865">
        <ele>368</ele>
      </trkpt>
      <trkpt lat="46.49426" lon="4.71894">
        <ele>373</ele>
      </trkpt>
      <trkpt lat="46.49455" lon="4.71943">
        <ele>378</ele>
      </trkpt>
      <trkpt lat="46.49458" lon="4.71964">
        <ele>379</ele>
      </trkpt>
      <trkpt lat="46.49458" lon="4.71976">
        <ele>377</ele>
      </trkpt>
      <trkpt lat="46.49447" lon="4.72056">
        <ele>375</ele>
      </trkpt>
      <trkpt lat="46.49415" lon="4.7213">
        <ele>382</ele>
      </trkpt>
      <trkpt lat="46.49397" lon="4.72181">
        <ele>389</ele>
      </trkpt>
      <trkpt lat="46.49393" lon="4.722">
        <ele>392</ele>
      </trkpt>
      <trkpt lat="46.49389" lon="4.72266">
        <ele>400</ele>
      </trkpt>
      <trkpt lat="46.49383" lon="4.72291">
        <ele>402</ele>
      </trkpt>
      <trkpt lat="46.49387" lon="4.723">
        <ele>403</ele>
      </trkpt>
      <trkpt lat="46.49374" lon="4.72416">
        <ele>413</ele>
      </trkpt>
      <trkpt lat="46.49366" lon="4.72487">
        <ele>420</ele>
      </trkpt>
      <trkpt lat="46.49358" lon="4.72543">
        <ele>428</ele>
      </trkpt>
      <trkpt lat="46.49334" lon="4.72578">
        <ele>435</ele>
      </trkpt>
      <trkpt lat="46.49305" lon="4.72598">
        <ele>444</ele>
      </trkpt>
      <trkpt lat="46.49295" lon="4.7261">
        <ele>447</ele>
      </trkpt>
      <trkpt lat="46.49291" lon="4.72619">
        <ele>448</ele>
      </trkpt>
      <trkpt lat="46.49287" lon="4.72641">
        <ele>450</ele>
      </trkpt>
      <trkpt lat="46.49282" lon="4.7265">
        <ele>451</ele>
      </trkpt>
      <trkpt lat="46.49263" lon="4.72699">
        <ele>447</ele>
      </trkpt>
      <trkpt lat="46.4925" lon="4.72716">
        <ele>443</ele>
      </trkpt>
      <trkpt lat="46.49221" lon="4.72771">
        <ele>432</ele>
      </trkpt>
      <trkpt lat="46.49203" lon="4.72788">
        <ele>427</ele>
      </trkpt>
      <trkpt lat="46.49171" lon="4.72822">
        <ele>420</ele>
      </trkpt>
      <trkpt lat="46.49134" lon="4.72863">
        <ele>411</ele>
      </trkpt>
      <trkpt lat="46.49106" lon="4.72884">
        <ele>406</ele>
      </trkpt>
      <trkpt lat="46.49089" lon="4.72911">
        <ele>404</ele>
      </trkpt>
      <trkpt lat="46.49073" lon="4.7292">
        <ele>406</ele>
      </trkpt>
      <trkpt lat="46.49028" lon="4.72962">
        <ele>405</ele>
      </trkpt>
      <trkpt lat="46.48935" lon="4.73012">
        <ele>394</ele>
      </trkpt>
      <trkpt lat="46.48908" lon="4.73021">
        <ele>391</ele>
      </trkpt>
      <trkpt lat="46.48877" lon="4.73043">
        <ele>388</ele>
      </trkpt>
      <trkpt lat="46.48836" lon="4.73062">
        <ele>385</ele>
      </trkpt>
      <trkpt lat="46.48792" lon="4.73075">
        <ele>382</ele>
      </trkpt>
      <trkpt lat="46.48753" lon="4.73091">
        <ele>377</ele>
      </trkpt>
      <trkpt lat="46.48721" lon="4.73105">
        <ele>373</ele>
      </trkpt>
      <trkpt lat="46.48709" lon="4.73158">
        <ele>359</ele>
      </trkpt>
      <trkpt lat="46.48716" lon="4.73186">
        <ele>353</ele>
      </trkpt>
      <trkpt lat="46.48726" lon="4.73214">
        <ele>346</ele>
      </trkpt>
      <trkpt lat="46.48734" lon="4.73243">
        <ele>339</ele>
      </trkpt>
      <trkpt lat="46.48729" lon="4.73253">
        <ele>336</ele>
      </trkpt>
      <trkpt lat="46.48678" lon="4.73283">
        <ele>329</ele>
      </trkpt>
      <trkpt lat="46.48605" lon="4.73309">
        <ele>326</ele>
      </trkpt>
      <trkpt lat="46.48601" lon="4.73331">
        <ele>322</ele>
      </trkpt>
      <trkpt lat="46.48609" lon="4.73347">
        <ele>319</ele>
      </trkpt>
      <trkpt lat="46.48612" lon="4.73375">
        <ele>314</ele>
      </trkpt>
      <trkpt lat="46.48604" lon="4.73394">
        <ele>312</ele>
      </trkpt>
      <trkpt lat="46.48587" lon="4.73412">
        <ele>310</ele>
      </trkpt>
      <trkpt lat="46.48579" lon="4.73427">
        <ele>309</ele>
      </trkpt>
      <trkpt lat="46.48578" lon="4.73446">
        <ele>309</ele>
      </trkpt>
      <trkpt lat="46.48584" lon="4.73462">
        <ele>309</ele>
      </trkpt>
      <trkpt lat="46.48596" lon="4.73472">
        <ele>309</ele>
      </trkpt>
      <trkpt lat="46.48642" lon="4.73483">
        <ele>314</ele>
      </trkpt>
      <trkpt lat="46.48648" lon="4.73498">
        <ele>314</ele>
      </trkpt>
      <trkpt lat="46.48641" lon="4.73503">
        <ele>314</ele>
      </trkpt>
      <trkpt lat="46.4863" lon="4.73508">
        <ele>314</ele>
      </trkpt>
      <trkpt lat="46.48599" lon="4.73532">
        <ele>315</ele>
      </trkpt>
      <trkpt lat="46.48558" lon="4.73588">
        <ele>320</ele>
      </trkpt>
      <trkpt lat="46.48505" lon="4.73627">
        <ele>322</ele>
      </trkpt>
      <trkpt lat="46.48538" lon="4.73622">
        <ele>324</ele>
      </trkpt>
      <trkpt lat="46.48545" lon="4.73631">
        <ele>326</ele>
      </trkpt>
      <trkpt lat="46.48541" lon="4.73657">
        <ele>329</ele>
      </trkpt>
      <trkpt lat="46.48533" lon="4.73683">
        <ele>331</ele>
      </trkpt>
      <trkpt lat="46.48523" lon="4.73735">
        <ele>335</ele>
      </trkpt>
      <trkpt lat="46.48509" lon="4.73791">
        <ele>341</ele>
      </trkpt>
      <trkpt lat="46.485" lon="4.73812">
        <ele>343</ele>
      </trkpt>
      <trkpt lat="46.48369" lon="4.73966">
        <ele>347</ele>
      </trkpt>
      <trkpt lat="46.48318" lon="4.74029">
        <ele>354</ele>
      </trkpt>
      <trkpt lat="46.48307" lon="4.74057">
        <ele>357</ele>
      </trkpt>
      <trkpt lat="46.48301" lon="4.74092">
        <ele>361</ele>
      </trkpt>
      <trkpt lat="46.48295" lon="4.74105">
        <ele>363</ele>
      </trkpt>
      <trkpt lat="46.48254" lon="4.74159">
        <ele>366</ele>
      </trkpt>
      <trkpt lat="46.48234" lon="4.74191">
        <ele>369</ele>
      </trkpt>
      <trkpt lat="46.4823" lon="4.74206">
        <ele>370</ele>
      </trkpt>
      <trkpt lat="46.48224" lon="4.74243">
        <ele>374</ele>
      </trkpt>
      <trkpt lat="46.48213" lon="4.74289">
        <ele>378</ele>
      </trkpt>
      <trkpt lat="46.48165" lon="4.7435">
        <ele>384</ele>
      </trkpt>
      <trkpt lat="46.48133" lon="4.74392">
        <ele>388</ele>
      </trkpt>
      <trkpt lat="46.48097" lon="4.74442">
        <ele>393</ele>
      </trkpt>
      <trkpt lat="46.48081" lon="4.7447">
        <ele>397</ele>
      </trkpt>
      <trkpt lat="46.48066" lon="4.74483">
        <ele>399</ele>
      </trkpt>
      <trkpt lat="46.48066" lon="4.74528">
        <ele>404</ele>
      </trkpt>
      <trkpt lat="46.48149" lon="4.74594">
        <ele>411</ele>
      </trkpt>
      <trkpt lat="46.48246" lon="4.74633">
        <ele>416</ele>
      </trkpt>
      <trkpt lat="46.48414" lon="4.74692">
        <ele>427</ele>
      </trkpt>
      <trkpt lat="46.48447" lon="4.74722">
        <ele>422</ele>
      </trkpt>
      <trkpt lat="46.48455" lon="4.7475">
        <ele>419</ele>
      </trkpt>
      <trkpt lat="46.48445" lon="4.74765">
        <ele>423</ele>
      </trkpt>
      <trkpt lat="46.48362" lon="4.74795">
        <ele>439</ele>
      </trkpt>
      <trkpt lat="46.48331" lon="4.74819">
        <ele>443</ele>
      </trkpt>
      <trkpt lat="46.48279" lon="4.74865">
        <ele>449</ele>
      </trkpt>
      <trkpt lat="46.4825" lon="4.74883">
        <ele>451</ele>
      </trkpt>
      <trkpt lat="46.48218" lon="4.74891">
        <ele>453</ele>
      </trkpt>
      <trkpt lat="46.48095" lon="4.74946">
        <ele>463</ele>
      </trkpt>
      <trkpt lat="46.47988" lon="4.75019">
        <ele>471</ele>
      </trkpt>
      <trkpt lat="46.47936" lon="4.75077">
        <ele>475</ele>
      </trkpt>
      <trkpt lat="46.47888" lon="4.75109">
        <ele>478</ele>
      </trkpt>
      <trkpt lat="46.47873" lon="4.75126">
        <ele>481</ele>
      </trkpt>
      <trkpt lat="46.47868" lon="4.75151">
        <ele>485</ele>
      </trkpt>
      <trkpt lat="46.4787" lon="4.75182">
        <ele>485</ele>
      </trkpt>
      <trkpt lat="46.47863" lon="4.75176">
        <ele>485</ele>
      </trkpt>
      <trkpt lat="46.47894" lon="4.75166">
        <ele>485</ele>
      </trkpt>
      <trkpt lat="46.47926" lon="4.75169">
        <ele>486</ele>
      </trkpt>
      <trkpt lat="46.47969" lon="4.75179">
        <ele>490</ele>
      </trkpt>
      <trkpt lat="46.48042" lon="4.75218">
        <ele>497</ele>
      </trkpt>
      <trkpt lat="46.4808" lon="4.75225">
        <ele>502</ele>
      </trkpt>
      <trkpt lat="46.48124" lon="4.75229">
        <ele>509</ele>
      </trkpt>
      <trkpt lat="46.48142" lon="4.75224">
        <ele>512</ele>
      </trkpt>
      <trkpt lat="46.48154" lon="4.75216">
        <ele>513</ele>
      </trkpt>
      <trkpt lat="46.4818" lon="4.75185">
        <ele>513</ele>
      </trkpt>
      <trkpt lat="46.48221" lon="4.75158">
        <ele>513</ele>
      </trkpt>
      <trkpt lat="46.48228" lon="4.75162">
        <ele>514</ele>
      </trkpt>
      <trkpt lat="46.48337" lon="4.75303">
        <ele>514</ele>
      </trkpt>
      <trkpt lat="46.48373" lon="4.7533">
        <ele>513</ele>
      </trkpt>
      <trkpt lat="46.4848" lon="4.75387">
        <ele>518</ele>
      </trkpt>
      <trkpt lat="46.48546" lon="4.75453">
        <ele>519</ele>
      </trkpt>
      <trkpt lat="46.48657" lon="4.75507">
        <ele>521</ele>
      </trkpt>
      <trkpt lat="46.48706" lon="4.75515">
        <ele>522</ele>
      </trkpt>
      <trkpt lat="46.48901" lon="4.75599">
        <ele>537</ele>
      </trkpt>
      <trkpt lat="46.48925" lon="4.75602">
        <ele>537</ele>
      </trkpt>
      <trkpt lat="46.48986" lon="4.7565">
        <ele>539</ele>
      </trkpt>
      <trkpt lat="46.49015" lon="4.75694">
        <ele>536</ele>
      </trkpt>
      <trkpt lat="46.49047" lon="4.75724">
        <ele>539</ele>
      </trkpt>
      <trkpt lat="46.4922" lon="4.75728">
        <ele>547</ele>
      </trkpt>
      <trkpt lat="46.4923" lon="4.75702">
        <ele>549</ele>
      </trkpt>
      <trkpt lat="46.49231" lon="4.75692">
        <ele>550</ele>
      </trkpt>
      <trkpt lat="46.49253" lon="4.75656">
        <ele>556</ele>
      </trkpt>
      <trkpt lat="46.49249" lon="4.75635">
        <ele>557</ele>
      </trkpt>
      <trkpt lat="46.49248" lon="4.75621">
        <ele>559</ele>
      </trkpt>
      <trkpt lat="46.49256" lon="4.75612">
        <ele>561</ele>
      </trkpt>
      <trkpt lat="46.49263" lon="4.75614">
        <ele>562</ele>
      </trkpt>
      <trkpt lat="46.49277" lon="4.75589">
        <ele>565</ele>
      </trkpt>
      <trkpt lat="46.49276" lon="4.75575">
        <ele>567</ele>
      </trkpt>
      <trkpt lat="46.49278" lon="4.75559">
        <ele>568</ele>
      </trkpt>
      <trkpt lat="46.49289" lon="4.75487">
        <ele>572</ele>
      </trkpt>
      <trkpt lat="46.49284" lon="4.75467">
        <ele>573</ele>
      </trkpt>
      <trkpt lat="46.49285" lon="4.7543">
        <ele>572</ele>
      </trkpt>
      <trkpt lat="46.49276" lon="4.75427">
        <ele>573</ele>
      </trkpt>
      <trkpt lat="46.4926" lon="4.75448">
        <ele>575</ele>
      </trkpt>
      <trkpt lat="46.4926" lon="4.75468">
        <ele>575</ele>
      </trkpt>
      <trkpt lat="46.49256" lon="4.7548">
        <ele>574</ele>
      </trkpt>
      <trkpt lat="46.4926" lon="4.75502">
        <ele>573</ele>
      </trkpt>
      <trkpt lat="46.49279" lon="4.75536">
        <ele>571</ele>
      </trkpt>
      <trkpt lat="46.49276" lon="4.75567">
        <ele>568</ele>
      </trkpt>
      <trkpt lat="46.49274" lon="4.75605">
        <ele>563</ele>
      </trkpt>
      <trkpt lat="46.49265" lon="4.75615">
        <ele>562</ele>
      </trkpt>
      <trkpt lat="46.49253" lon="4.75614">
        <ele>561</ele>
      </trkpt>
      <trkpt lat="46.49257" lon="4.75672">
        <ele>554</ele>
      </trkpt>
      <trkpt lat="46.49261" lon="4.75701">
        <ele>551</ele>
      </trkpt>
      <trkpt lat="46.49258" lon="4.75768">
        <ele>545</ele>
      </trkpt>
      <trkpt lat="46.49266" lon="4.75789">
        <ele>543</ele>
      </trkpt>
      <trkpt lat="46.49285" lon="4.75818">
        <ele>540</ele>
      </trkpt>
      <trkpt lat="46.49302" lon="4.75835">
        <ele>538</ele>
      </trkpt>
      <trkpt lat="46.49345" lon="4.75866">
        <ele>534</ele>
      </trkpt>
      <trkpt lat="46.49365" lon="4.75894">
        <ele>532</ele>
      </trkpt>
      <trkpt lat="46.4932" lon="4.75926">
        <ele>530</ele>
      </trkpt>
      <trkpt lat="46.49292" lon="4.75953">
        <ele>526</ele>
      </trkpt>
      <trkpt lat="46.49276" lon="4.75959">
        <ele>525</ele>
      </trkpt>
      <trkpt lat="46.49257" lon="4.75958">
        <ele>525</ele>
      </trkpt>
      <trkpt lat="46.49191" lon="4.75944">
        <ele>522</ele>
      </trkpt>
      <trkpt lat="46.49143" lon="4.75924">
        <ele>520</ele>
      </trkpt>
      <trkpt lat="46.49124" lon="4.75923">
        <ele>518</ele>
      </trkpt>
      <trkpt lat="46.49104" lon="4.75929">
        <ele>516</ele>
      </trkpt>
      <trkpt lat="46.49071" lon="4.75948">
        <ele>511</ele>
      </trkpt>
      <trkpt lat="46.49043" lon="4.75978">
        <ele>506</ele>
      </trkpt>
      <trkpt lat="46.48951" lon="4.76129">
        <ele>487</ele>
      </trkpt>
      <trkpt lat="46.48938" lon="4.76158">
        <ele>485</ele>
      </trkpt>
      <trkpt lat="46.48925" lon="4.76205">
        <ele>480</ele>
      </trkpt>
      <trkpt lat="46.48903" lon="4.76271">
        <ele>474</ele>
      </trkpt>
      <trkpt lat="46.48991" lon="4.76371">
        <ele>462</ele>
      </trkpt>
      <trkpt lat="46.49059" lon="4.76424">
        <ele>455</ele>
      </trkpt>
      <trkpt lat="46.49065" lon="4.76444">
        <ele>454</ele>
      </trkpt>
      <trkpt lat="46.49064" lon="4.76455">
        <ele>453</ele>
      </trkpt>
      <trkpt lat="46.4903" lon="4.76537">
        <ele>458</ele>
      </trkpt>
      <trkpt lat="46.49029" lon="4.76554">
        <ele>459</ele>
      </trkpt>
      <trkpt lat="46.49038" lon="4.76574">
        <ele>460</ele>
      </trkpt>
      <trkpt lat="46.49137" lon="4.76701">
        <ele>459</ele>
      </trkpt>
      <trkpt lat="46.49331" lon="4.76934">
        <ele>460</ele>
      </trkpt>
      <trkpt lat="46.49336" lon="4.76949">
        <ele>461</ele>
      </trkpt>
      <trkpt lat="46.49312" lon="4.77058">
        <ele>458</ele>
      </trkpt>
      <trkpt lat="46.4935" lon="4.77196">
        <ele>448</ele>
      </trkpt>
      <trkpt lat="46.49457" lon="4.77348">
        <ele>438</ele>
      </trkpt>
      <trkpt lat="46.49491" lon="4.7737">
        <ele>439</ele>
      </trkpt>
      <trkpt lat="46.49529" lon="4.77457">
        <ele>433</ele>
      </trkpt>
      <trkpt lat="46.49495" lon="4.77536">
        <ele>420</ele>
      </trkpt>
      <trkpt lat="46.49506" lon="4.77627">
        <ele>419</ele>
      </trkpt>
      <trkpt lat="46.4935" lon="4.77953">
        <ele>410</ele>
      </trkpt>
      <trkpt lat="46.49067" lon="4.78071">
        <ele>369</ele>
      </trkpt>
      <trkpt lat="46.48977" lon="4.78075">
        <ele>359</ele>
      </trkpt>
      <trkpt lat="46.48863" lon="4.78224">
        <ele>340</ele>
      </trkpt>
      <trkpt lat="46.48817" lon="4.78344">
        <ele>327</ele>
      </trkpt>
      <trkpt lat="46.48845" lon="4.78381">
        <ele>325</ele>
      </trkpt>
      <trkpt lat="46.48595" lon="4.7859">
        <ele>306</ele>
      </trkpt>
      <trkpt lat="46.48556" lon="4.78669">
        <ele>298</ele>
      </trkpt>
      <trkpt lat="46.48466" lon="4.78669">
        <ele>289</ele>
      </trkpt>
      <trkpt lat="46.48494" lon="4.78777">
        <ele>285</ele>
      </trkpt>
      <trkpt lat="46.48459" lon="4.78913">
        <ele>279</ele>
      </trkpt>
      <trkpt lat="46.48084" lon="4.78748">
        <ele>257</ele>
      </trkpt>
      <trkpt lat="46.47831" lon="4.79298">
        <ele>259</ele>
      </trkpt>
      <trkpt lat="46.47726" lon="4.79422">
        <ele>260</ele>
      </trkpt>
      <trkpt lat="46.47726" lon="4.79513">
        <ele>263</ele>
      </trkpt>
      <trkpt lat="46.47492" lon="4.79592">
        <ele>287</ele>
      </trkpt>
      <trkpt lat="46.47499" lon="4.80175">
        <ele>282</ele>
      </trkpt>
      <trkpt lat="46.47394" lon="4.80164">
        <ele>292</ele>
      </trkpt>
      <trkpt lat="46.47336" lon="4.80039">
        <ele>303</ele>
      </trkpt>
      <trkpt lat="46.47123" lon="4.80124">
        <ele>326</ele>
      </trkpt>
      <trkpt lat="46.46671" lon="4.80147">
        <ele>315</ele>
      </trkpt>
      <trkpt lat="46.46632" lon="4.80617">
        <ele>318</ele>
      </trkpt>
      <trkpt lat="46.46425" lon="4.8073">
        <ele>321</ele>
      </trkpt>
      <trkpt lat="46.46265" lon="4.81064">
        <ele>334</ele>
      </trkpt>
      <trkpt lat="46.46347" lon="4.81217">
        <ele>327</ele>
      </trkpt>
      <trkpt lat="46.46394" lon="4.81421">
        <ele>326</ele>
      </trkpt>
      <trkpt lat="46.46483" lon="4.81472">
        <ele>319</ele>
      </trkpt>
      <trkpt lat="46.46495" lon="4.82242">
        <ele>359</ele>
      </trkpt>
      <trkpt lat="46.46035" lon="4.8222">
        <ele>344</ele>
      </trkpt>
      <trkpt lat="46.459" lon="4.82137">
        <ele>365</ele>
      </trkpt>
      <trkpt lat="46.45791" lon="4.82137">
        <ele>362</ele>
      </trkpt>
      <trkpt lat="46.45686" lon="4.82013">
        <ele>377</ele>
      </trkpt>
      <trkpt lat="46.45647" lon="4.82149">
        <ele>366</ele>
      </trkpt>
      <trkpt lat="46.45561" lon="4.8207">
        <ele>376</ele>
      </trkpt>
      <trkpt lat="46.45385" lon="4.82234">
        <ele>376</ele>
      </trkpt>
      <trkpt lat="46.45475" lon="4.82296">
        <ele>377</ele>
      </trkpt>
      <trkpt lat="46.45424" lon="4.82494">
        <ele>389</ele>
      </trkpt>
      <trkpt lat="46.45662" lon="4.82936">
        <ele>388</ele>
      </trkpt>
      <trkpt lat="46.45658" lon="4.82993">
        <ele>390</ele>
      </trkpt>
      <trkpt lat="46.45643" lon="4.82967">
        <ele>392</ele>
      </trkpt>
      <trkpt lat="46.45623" lon="4.82952">
        <ele>396</ele>
      </trkpt>
      <trkpt lat="46.45613" lon="4.82955">
        <ele>399</ele>
      </trkpt>
      <trkpt lat="46.45599" lon="4.8293">
        <ele>401</ele>
      </trkpt>
      <trkpt lat="46.4549" lon="4.82826">
        <ele>418</ele>
      </trkpt>
      <trkpt lat="46.45466" lon="4.82833">
        <ele>423</ele>
      </trkpt>
      <trkpt lat="46.45462" lon="4.82802">
        <ele>424</ele>
      </trkpt>
      <trkpt lat="46.45451" lon="4.8279">
        <ele>426</ele>
      </trkpt>
      <trkpt lat="46.45428" lon="4.82782">
        <ele>430</ele>
      </trkpt>
      <trkpt lat="46.45408" lon="4.82761">
        <ele>430</ele>
      </trkpt>
      <trkpt lat="46.45389" lon="4.82751">
        <ele>431</ele>
      </trkpt>
      <trkpt lat="46.45328" lon="4.82692">
        <ele>434</ele>
      </trkpt>
      <trkpt lat="46.45347" lon="4.8269">
        <ele>430</ele>
      </trkpt>
      <trkpt lat="46.45279" lon="4.83002">
        <ele>393</ele>
      </trkpt>
      <trkpt lat="46.45178" lon="4.82987">
        <ele>389</ele>
      </trkpt>
      <trkpt lat="46.45087" lon="4.82952">
        <ele>385</ele>
      </trkpt>
      <trkpt lat="46.44915" lon="4.82859">
        <ele>383</ele>
      </trkpt>
      <trkpt lat="46.44827" lon="4.82825">
        <ele>380</ele>
      </trkpt>
      <trkpt lat="46.4468" lon="4.82734">
        <ele>376</ele>
      </trkpt>
      <trkpt lat="46.4444" lon="4.82627">
        <ele>363</ele>
      </trkpt>
      <trkpt lat="46.44179" lon="4.82519">
        <ele>355</ele>
      </trkpt>
      <trkpt lat="46.441" lon="4.82471">
        <ele>350</ele>
      </trkpt>
      <trkpt lat="46.44067" lon="4.82453">
        <ele>346</ele>
      </trkpt>
      <trkpt lat="46.44022" lon="4.82443">
        <ele>339</ele>
      </trkpt>
      <trkpt lat="46.43997" lon="4.82451">
        <ele>335</ele>
      </trkpt>
      <trkpt lat="46.43985" lon="4.82485">
        <ele>333</ele>
      </trkpt>
      <trkpt lat="46.43973" lon="4.82494">
        <ele>331</ele>
      </trkpt>
      <trkpt lat="46.43963" lon="4.82524">
        <ele>329</ele>
      </trkpt>
      <trkpt lat="46.43946" lon="4.82543">
        <ele>327</ele>
      </trkpt>
      <trkpt lat="46.43932" lon="4.82548">
        <ele>325</ele>
      </trkpt>
      <trkpt lat="46.43908" lon="4.82543">
        <ele>322</ele>
      </trkpt>
      <trkpt lat="46.43899" lon="4.82556">
        <ele>321</ele>
      </trkpt>
      <trkpt lat="46.43897" lon="4.82572">
        <ele>321</ele>
      </trkpt>
      <trkpt lat="46.43835" lon="4.82694">
        <ele>316</ele>
      </trkpt>
      <trkpt lat="46.43821" lon="4.82732">
        <ele>313</ele>
      </trkpt>
      <trkpt lat="46.43814" lon="4.82736">
        <ele>312</ele>
      </trkpt>
      <trkpt lat="46.43782" lon="4.82677">
        <ele>313</ele>
      </trkpt>
      <trkpt lat="46.43769" lon="4.82662">
        <ele>313</ele>
      </trkpt>
      <trkpt lat="46.43559" lon="4.8248">
        <ele>311</ele>
      </trkpt>
      <trkpt lat="46.43558" lon="4.82469">
        <ele>311</ele>
      </trkpt>
      <trkpt lat="46.43574" lon="4.82458">
        <ele>310</ele>
      </trkpt>
      <trkpt lat="46.43572" lon="4.82461">
        <ele>310</ele>
      </trkpt>
      <trkpt lat="46.4356" lon="4.82453">
        <ele>310</ele>
      </trkpt>
      <trkpt lat="46.4356" lon="4.82433">
        <ele>310</ele>
      </trkpt>
      <trkpt lat="46.43558" lon="4.82423">
        <ele>309</ele>
      </trkpt>
      <trkpt lat="46.43544" lon="4.82417">
        <ele>310</ele>
      </trkpt>
      <trkpt lat="46.4352" lon="4.82425">
        <ele>311</ele>
      </trkpt>
      <trkpt lat="46.43497" lon="4.82423">
        <ele>311</ele>
      </trkpt>
      <trkpt lat="46.43334" lon="4.82322">
        <ele>313</ele>
      </trkpt>
      <trkpt lat="46.43156" lon="4.82135">
        <ele>314</ele>
      </trkpt>
      <trkpt lat="46.43138" lon="4.82102">
        <ele>314</ele>
      </trkpt>
      <trkpt lat="46.4312" lon="4.8209">
        <ele>314</ele>
      </trkpt>
      <trkpt lat="46.4312" lon="4.82076">
        <ele>313</ele>
      </trkpt>
      <trkpt lat="46.43132" lon="4.82032">
        <ele>312</ele>
      </trkpt>
      <trkpt lat="46.43131" lon="4.81983">
        <ele>311</ele>
      </trkpt>
      <trkpt lat="46.43115" lon="4.8192">
        <ele>313</ele>
      </trkpt>
      <trkpt lat="46.43066" lon="4.81816">
        <ele>322</ele>
      </trkpt>
      <trkpt lat="46.43053" lon="4.81799">
        <ele>324</ele>
      </trkpt>
      <trkpt lat="46.43032" lon="4.81756">
        <ele>325</ele>
      </trkpt>
      <trkpt lat="46.43005" lon="4.81727">
        <ele>323</ele>
      </trkpt>
      <trkpt lat="46.42883" lon="4.81671">
        <ele>313</ele>
      </trkpt>
      <trkpt lat="46.4287" lon="4.81677">
        <ele>313</ele>
      </trkpt>
      <trkpt lat="46.42888" lon="4.81647">
        <ele>312</ele>
      </trkpt>
      <trkpt lat="46.42878" lon="4.81636">
        <ele>310</ele>
      </trkpt>
      <trkpt lat="46.42823" lon="4.8162">
        <ele>307</ele>
      </trkpt>
      <trkpt lat="46.4281" lon="4.81595">
        <ele>304</ele>
      </trkpt>
      <trkpt lat="46.42813" lon="4.81561">
        <ele>301</ele>
      </trkpt>
      <trkpt lat="46.42798" lon="4.81545">
        <ele>297</ele>
      </trkpt>
      <trkpt lat="46.42767" lon="4.81546">
        <ele>296</ele>
      </trkpt>
      <trkpt lat="46.42712" lon="4.8153">
        <ele>292</ele>
      </trkpt>
      <trkpt lat="46.42709" lon="4.81517">
        <ele>290</ele>
      </trkpt>
      <trkpt lat="46.42719" lon="4.81491">
        <ele>287</ele>
      </trkpt>
      <trkpt lat="46.42752" lon="4.81433">
        <ele>278</ele>
      </trkpt>
      <trkpt lat="46.42761" lon="4.81398">
        <ele>274</ele>
      </trkpt>
      <trkpt lat="46.4274" lon="4.81358">
        <ele>269</ele>
      </trkpt>
      <trkpt lat="46.42679" lon="4.8128">
        <ele>261</ele>
      </trkpt>
      <trkpt lat="46.42672" lon="4.81261">
        <ele>259</ele>
      </trkpt>
      <trkpt lat="46.42674" lon="4.8123">
        <ele>256</ele>
      </trkpt>
      <trkpt lat="46.42686" lon="4.81181">
        <ele>252</ele>
      </trkpt>
      <trkpt lat="46.42703" lon="4.80923">
        <ele>233</ele>
      </trkpt>
      <trkpt lat="46.42834" lon="4.80813">
        <ele>235</ele>
      </trkpt>
      <trkpt lat="46.42924" lon="4.80688">
        <ele>236</ele>
      </trkpt>
      <trkpt lat="46.42984" lon="4.80634">
        <ele>233</ele>
      </trkpt>
      <trkpt lat="46.42999" lon="4.80612">
        <ele>233</ele>
      </trkpt>
      <trkpt lat="46.43004" lon="4.80598">
        <ele>233</ele>
      </trkpt>
      <trkpt lat="46.43006" lon="4.80544">
        <ele>233</ele>
      </trkpt>
      <trkpt lat="46.43032" lon="4.80404">
        <ele>231</ele>
      </trkpt>
      <trkpt lat="46.43024" lon="4.80378">
        <ele>230</ele>
      </trkpt>
      <trkpt lat="46.4299" lon="4.80357">
        <ele>228</ele>
      </trkpt>
      <trkpt lat="46.42907" lon="4.80336">
        <ele>226</ele>
      </trkpt>
      <trkpt lat="46.42871" lon="4.80303">
        <ele>227</ele>
      </trkpt>
      <trkpt lat="46.42843" lon="4.80289">
        <ele>228</ele>
      </trkpt>
      <trkpt lat="46.42824" lon="4.80286">
        <ele>229</ele>
      </trkpt>
      <trkpt lat="46.42793" lon="4.80297">
        <ele>230</ele>
      </trkpt>
      <trkpt lat="46.42778" lon="4.80295">
        <ele>231</ele>
      </trkpt>
      <trkpt lat="46.42672" lon="4.80252">
        <ele>242</ele>
      </trkpt>
      <trkpt lat="46.42614" lon="4.80235">
        <ele>245</ele>
      </trkpt>
      <trkpt lat="46.42508" lon="4.80182">
        <ele>246</ele>
      </trkpt>
      <trkpt lat="46.42388" lon="4.80142">
        <ele>246</ele>
      </trkpt>
      <trkpt lat="46.42173" lon="4.80058">
        <ele>247</ele>
      </trkpt>
      <trkpt lat="46.4189" lon="4.80048">
        <ele>247</ele>
      </trkpt>
      <trkpt lat="46.4179" lon="4.80036">
        <ele>243</ele>
      </trkpt>
      <trkpt lat="46.41683" lon="4.80001">
        <ele>235</ele>
      </trkpt>
      <trkpt lat="46.41566" lon="4.8">
        <ele>228</ele>
      </trkpt>
      <trkpt lat="46.41474" lon="4.79965">
        <ele>226</ele>
      </trkpt>
      <trkpt lat="46.41392" lon="4.79918">
        <ele>224</ele>
      </trkpt>
      <trkpt lat="46.41295" lon="4.79882">
        <ele>221</ele>
      </trkpt>
      <trkpt lat="46.41287" lon="4.79887">
        <ele>221</ele>
      </trkpt>
      <trkpt lat="46.41243" lon="4.80019">
        <ele>215</ele>
      </trkpt>
      <trkpt lat="46.41231" lon="4.80094">
        <ele>213</ele>
      </trkpt>
      <trkpt lat="46.41236" lon="4.80175">
        <ele>213</ele>
      </trkpt>
      <trkpt lat="46.41285" lon="4.80323">
        <ele>212</ele>
      </trkpt>
      <trkpt lat="46.413" lon="4.80421">
        <ele>212</ele>
      </trkpt>
      <trkpt lat="46.41298" lon="4.80465">
        <ele>213</ele>
      </trkpt>
      <trkpt lat="46.41273" lon="4.80559">
        <ele>216</ele>
      </trkpt>
      <trkpt lat="46.41273" lon="4.80581">
        <ele>217</ele>
      </trkpt>
      <trkpt lat="46.4129" lon="4.80639">
        <ele>219</ele>
      </trkpt>
      <trkpt lat="46.41281" lon="4.80634">
        <ele>219</ele>
      </trkpt>
      <trkpt lat="46.41109" lon="4.80422">
        <ele>228</ele>
      </trkpt>
      <trkpt lat="46.4104" lon="4.80295">
        <ele>231</ele>
      </trkpt>
      <trkpt lat="46.4103" lon="4.80258">
        <ele>232</ele>
      </trkpt>
      <trkpt lat="46.41038" lon="4.802">
        <ele>229</ele>
      </trkpt>
      <trkpt lat="46.41037" lon="4.80166">
        <ele>227</ele>
      </trkpt>
      <trkpt lat="46.4103" lon="4.8015">
        <ele>226</ele>
      </trkpt>
      <trkpt lat="46.41018" lon="4.80139">
        <ele>226</ele>
      </trkpt>
      <trkpt lat="46.40954" lon="4.80107">
        <ele>220</ele>
      </trkpt>
      <trkpt lat="46.40769" lon="4.8004">
        <ele>216</ele>
      </trkpt>
      <trkpt lat="46.4066" lon="4.80015">
        <ele>214</ele>
      </trkpt>
      <trkpt lat="46.40524" lon="4.80024">
        <ele>212</ele>
      </trkpt>
      <trkpt lat="46.4051" lon="4.80016">
        <ele>210</ele>
      </trkpt>
      <trkpt lat="46.40497" lon="4.79982">
        <ele>205</ele>
      </trkpt>
      <trkpt lat="46.40484" lon="4.79968">
        <ele>204</ele>
      </trkpt>
      <trkpt lat="46.40462" lon="4.79962">
        <ele>203</ele>
      </trkpt>
      <trkpt lat="46.40439" lon="4.79966">
        <ele>203</ele>
      </trkpt>
      <trkpt lat="46.40384" lon="4.79992">
        <ele>203</ele>
      </trkpt>
      <trkpt lat="46.40383" lon="4.79855">
        <ele>203</ele>
      </trkpt>
      <trkpt lat="46.40368" lon="4.79848">
        <ele>203</ele>
      </trkpt>
      <trkpt lat="46.40136" lon="4.79947">
        <ele>203</ele>
      </trkpt>
      <trkpt lat="46.40086" lon="4.80004">
        <ele>206</ele>
      </trkpt>
      <trkpt lat="46.40015" lon="4.8012">
        <ele>207</ele>
      </trkpt>
      <trkpt lat="46.39982" lon="4.80148">
        <ele>208</ele>
      </trkpt>
      <trkpt lat="46.39898" lon="4.80182">
        <ele>212</ele>
      </trkpt>
      <trkpt lat="46.39803" lon="4.80205">
        <ele>211</ele>
      </trkpt>
      <trkpt lat="46.39736" lon="4.80218">
        <ele>205</ele>
      </trkpt>
      <trkpt lat="46.39653" lon="4.80291">
        <ele>201</ele>
      </trkpt>
      <trkpt lat="46.39646" lon="4.80307">
        <ele>201</ele>
      </trkpt>
      <trkpt lat="46.39637" lon="4.80368">
        <ele>202</ele>
      </trkpt>
      <trkpt lat="46.39599" lon="4.80502">
        <ele>204</ele>
      </trkpt>
      <trkpt lat="46.39583" lon="4.80729">
        <ele>200</ele>
      </trkpt>
      <trkpt lat="46.39591" lon="4.80762">
        <ele>198</ele>
      </trkpt>
      <trkpt lat="46.3959" lon="4.80798">
        <ele>198</ele>
      </trkpt>
      <trkpt lat="46.39569" lon="4.80859">
        <ele>197</ele>
      </trkpt>
      <trkpt lat="46.3956" lon="4.80872">
        <ele>196</ele>
      </trkpt>
      <trkpt lat="46.39372" lon="4.81028">
        <ele>198</ele>
      </trkpt>
      <trkpt lat="46.39358" lon="4.81033">
        <ele>198</ele>
      </trkpt>
      <trkpt lat="46.39334" lon="4.81017">
        <ele>199</ele>
      </trkpt>
      <trkpt lat="46.39327" lon="4.81019">
        <ele>199</ele>
      </trkpt>
      <trkpt lat="46.39191" lon="4.81203">
        <ele>202</ele>
      </trkpt>
      <trkpt lat="46.39126" lon="4.814">
        <ele>204</ele>
      </trkpt>
      <trkpt lat="46.38624" lon="4.8177">
        <ele>232</ele>
      </trkpt>
      <trkpt lat="46.38545" lon="4.81829">
        <ele>228</ele>
      </trkpt>
      <trkpt lat="46.38421" lon="4.81851">
        <ele>228</ele>
      </trkpt>
      <trkpt lat="46.38297" lon="4.81856">
        <ele>224</ele>
      </trkpt>
      <trkpt lat="46.38277" lon="4.81879">
        <ele>224</ele>
      </trkpt>
      <trkpt lat="46.38251" lon="4.81893">
        <ele>226</ele>
      </trkpt>
      <trkpt lat="46.38187" lon="4.81872">
        <ele>228</ele>
      </trkpt>
      <trkpt lat="46.38158" lon="4.81844">
        <ele>230</ele>
      </trkpt>
      <trkpt lat="46.38083" lon="4.81821">
        <ele>231</ele>
      </trkpt>
      <trkpt lat="46.38051" lon="4.81861">
        <ele>232</ele>
      </trkpt>
      <trkpt lat="46.3803" lon="4.81928">
        <ele>239</ele>
      </trkpt>
      <trkpt lat="46.38012" lon="4.81964">
        <ele>243</ele>
      </trkpt>
      <trkpt lat="46.37848" lon="4.8193">
        <ele>246</ele>
      </trkpt>
      <trkpt lat="46.37842" lon="4.81941">
        <ele>247</ele>
      </trkpt>
      <trkpt lat="46.37842" lon="4.81955">
        <ele>248</ele>
      </trkpt>
      <trkpt lat="46.37848" lon="4.82026">
        <ele>252</ele>
      </trkpt>
      <trkpt lat="46.37843" lon="4.82056">
        <ele>254</ele>
      </trkpt>
      <trkpt lat="46.37779" lon="4.82193">
        <ele>256</ele>
      </trkpt>
      <trkpt lat="46.37767" lon="4.822">
        <ele>256</ele>
      </trkpt>
      <trkpt lat="46.37734" lon="4.82195">
        <ele>255</ele>
      </trkpt>
      <trkpt lat="46.37671" lon="4.82175">
        <ele>258</ele>
      </trkpt>
      <trkpt lat="46.3761" lon="4.82165">
        <ele>262</ele>
      </trkpt>
      <trkpt lat="46.37515" lon="4.82125">
        <ele>270</ele>
      </trkpt>
      <trkpt lat="46.37474" lon="4.82094">
        <ele>274</ele>
      </trkpt>
      <trkpt lat="46.37456" lon="4.8209">
        <ele>275</ele>
      </trkpt>
      <trkpt lat="46.37358" lon="4.82085">
        <ele>278</ele>
      </trkpt>
      <trkpt lat="46.37331" lon="4.82127">
        <ele>276</ele>
      </trkpt>
      <trkpt lat="46.37301" lon="4.8214">
        <ele>273</ele>
      </trkpt>
      <trkpt lat="46.37284" lon="4.82137">
        <ele>273</ele>
      </trkpt>
      <trkpt lat="46.37212" lon="4.82101">
        <ele>269</ele>
      </trkpt>
      <trkpt lat="46.37174" lon="4.82093">
        <ele>266</ele>
      </trkpt>
      <trkpt lat="46.37163" lon="4.82102">
        <ele>265</ele>
      </trkpt>
      <trkpt lat="46.37108" lon="4.82113">
        <ele>263</ele>
      </trkpt>
      <trkpt lat="46.3705" lon="4.82142">
        <ele>265</ele>
      </trkpt>
      <trkpt lat="46.36999" lon="4.82142">
        <ele>268</ele>
      </trkpt>
      <trkpt lat="46.36949" lon="4.82155">
        <ele>271</ele>
      </trkpt>
      <trkpt lat="46.36724" lon="4.82114">
        <ele>268</ele>
      </trkpt>
      <trkpt lat="46.36625" lon="4.82123">
        <ele>274</ele>
      </trkpt>
      <trkpt lat="46.36373" lon="4.82048">
        <ele>277</ele>
      </trkpt>
      <trkpt lat="46.36352" lon="4.82061">
        <ele>277</ele>
      </trkpt>
      <trkpt lat="46.36343" lon="4.82073">
        <ele>277</ele>
      </trkpt>
      <trkpt lat="46.36291" lon="4.82092">
        <ele>281</ele>
      </trkpt>
      <trkpt lat="46.36244" lon="4.8214">
        <ele>283</ele>
      </trkpt>
      <trkpt lat="46.36172" lon="4.82281">
        <ele>268</ele>
      </trkpt>
      <trkpt lat="46.36159" lon="4.82328">
        <ele>271</ele>
      </trkpt>
      <trkpt lat="46.36151" lon="4.82494">
        <ele>281</ele>
      </trkpt>
      <trkpt lat="46.3614" lon="4.82499">
        <ele>281</ele>
      </trkpt>
      <trkpt lat="46.36117" lon="4.82484">
        <ele>282</ele>
      </trkpt>
      <trkpt lat="46.36007" lon="4.82477">
        <ele>282</ele>
      </trkpt>
      <trkpt lat="46.35909" lon="4.82497">
        <ele>282</ele>
      </trkpt>
      <trkpt lat="46.3584" lon="4.82464">
        <ele>282</ele>
      </trkpt>
      <trkpt lat="46.35816" lon="4.82473">
        <ele>282</ele>
      </trkpt>
      <trkpt lat="46.35724" lon="4.82467">
        <ele>282</ele>
      </trkpt>
      <trkpt lat="46.35698" lon="4.82453">
        <ele>282</ele>
      </trkpt>
      <trkpt lat="46.3564" lon="4.82437">
        <ele>283</ele>
      </trkpt>
      <trkpt lat="46.3563" lon="4.82419">
        <ele>283</ele>
      </trkpt>
      <trkpt lat="46.35525" lon="4.82365">
        <ele>283</ele>
      </trkpt>
      <trkpt lat="46.35446" lon="4.82342">
        <ele>284</ele>
      </trkpt>
      <trkpt lat="46.35392" lon="4.82319">
        <ele>286</ele>
      </trkpt>
      <trkpt lat="46.35237" lon="4.8228">
        <ele>289</ele>
      </trkpt>
      <trkpt lat="46.35207" lon="4.82254">
        <ele>290</ele>
      </trkpt>
      <trkpt lat="46.35062" lon="4.82224">
        <ele>290</ele>
      </trkpt>
      <trkpt lat="46.35011" lon="4.82243">
        <ele>289</ele>
      </trkpt>
      <trkpt lat="46.34897" lon="4.82251">
        <ele>284</ele>
      </trkpt>
      <trkpt lat="46.34838" lon="4.8221">
        <ele>282</ele>
      </trkpt>
      <trkpt lat="46.34725" lon="4.82146">
        <ele>280</ele>
      </trkpt>
      <trkpt lat="46.3459" lon="4.82123">
        <ele>280</ele>
      </trkpt>
      <trkpt lat="46.34515" lon="4.82158">
        <ele>277</ele>
      </trkpt>
      <trkpt lat="46.34487" lon="4.82161">
        <ele>276</ele>
      </trkpt>
      <trkpt lat="46.34384" lon="4.82141">
        <ele>273</ele>
      </trkpt>
      <trkpt lat="46.34376" lon="4.82131">
        <ele>274</ele>
      </trkpt>
      <trkpt lat="46.34374" lon="4.82119">
        <ele>275</ele>
      </trkpt>
      <trkpt lat="46.34376" lon="4.82082">
        <ele>279</ele>
      </trkpt>
      <trkpt lat="46.34321" lon="4.82196">
        <ele>261</ele>
      </trkpt>
      <trkpt lat="46.3459" lon="4.82346">
        <ele>252</ele>
      </trkpt>
      <trkpt lat="46.34514" lon="4.82454">
        <ele>235</ele>
      </trkpt>
      <trkpt lat="46.34303" lon="4.82399">
        <ele>229</ele>
      </trkpt>
      <trkpt lat="46.34283" lon="4.82417">
        <ele>224</ele>
      </trkpt>
      <trkpt lat="46.34262" lon="4.82488">
        <ele>221</ele>
      </trkpt>
      <trkpt lat="46.34194" lon="4.82461">
        <ele>218</ele>
      </trkpt>
      <trkpt lat="46.34157" lon="4.82495">
        <ele>213</ele>
      </trkpt>
      <trkpt lat="46.34152" lon="4.82551">
        <ele>211</ele>
      </trkpt>
      <trkpt lat="46.3408" lon="4.82741">
        <ele>202</ele>
      </trkpt>
      <trkpt lat="46.34077" lon="4.82877">
        <ele>201</ele>
      </trkpt>
      <trkpt lat="46.34049" lon="4.83091">
        <ele>200</ele>
      </trkpt>
      <trkpt lat="46.34045" lon="4.83217">
        <ele>201</ele>
      </trkpt>
      <trkpt lat="46.33998" lon="4.83309">
        <ele>198</ele>
      </trkpt>
      <trkpt lat="46.33947" lon="4.83654">
        <ele>200</ele>
      </trkpt>
      <trkpt lat="46.33874" lon="4.83922">
        <ele>200</ele>
      </trkpt>
      <trkpt lat="46.33866" lon="4.83998">
        <ele>199</ele>
      </trkpt>
      <trkpt lat="46.33896" lon="4.84046">
        <ele>197</ele>
      </trkpt>
      <trkpt lat="46.33866" lon="4.8404">
        <ele>197</ele>
      </trkpt>
      <trkpt lat="46.33874" lon="4.8414">
        <ele>192</ele>
      </trkpt>
      <trkpt lat="46.33827" lon="4.8438">
        <ele>178</ele>
      </trkpt>
      <trkpt lat="46.33669" lon="4.84318">
        <ele>179</ele>
      </trkpt>
      <trkpt lat="46.33631" lon="4.84178">
        <ele>183</ele>
      </trkpt>
      <trkpt lat="46.33641" lon="4.84366">
        <ele>178</ele>
      </trkpt>
      <trkpt lat="46.33633" lon="4.845">
        <ele>176</ele>
      </trkpt>
      <trkpt lat="46.33589" lon="4.84509">
        <ele>176</ele>
      </trkpt>
      <trkpt lat="46.33604" lon="4.84573">
        <ele>176</ele>
      </trkpt>
      <trkpt lat="46.33782" lon="4.84712">
        <ele>174</ele>
      </trkpt>
      <trkpt lat="46.33721" lon="4.85058">
        <ele>171</ele>
      </trkpt>
      <trkpt lat="46.33214" lon="4.85094">
        <ele>169</ele>
      </trkpt>
      <trkpt lat="46.32832" lon="4.8503">
        <ele>170</ele>
      </trkpt>
      <trkpt lat="46.32645" lon="4.84694">
        <ele>171</ele>
      </trkpt>
      <trkpt lat="46.32568" lon="4.84478">
        <ele>172</ele>
      </trkpt>
      <trkpt lat="46.32136" lon="4.84496">
        <ele>173</ele>
      </trkpt>
      <trkpt lat="46.31434" lon="4.84041">
        <ele>174</ele>
      </trkpt>
      <trkpt lat="46.31129" lon="4.83857">
        <ele>170</ele>
      </trkpt>
      <trkpt lat="46.30605" lon="4.83654">
        <ele>174</ele>
      </trkpt>
      <trkpt lat="46.30154" lon="4.83264">
        <ele>174</ele>
      </trkpt>
      <trkpt lat="46.30341" lon="4.82684">
        <ele>185</ele>
      </trkpt>
      <trkpt lat="46.30341" lon="4.82684">
        <ele>185</ele>
      </trkpt>
    </trkseg>
  </trk>
</gpx>